GFSSGP_500_spd_000.txt.gz
Wind_Speed
24 22 22 23 23 14 9 20 19 17 21 15 13 18 19 18 22 17 19 19 19 18 17 17 17 15 15 15 14 13 11 7 8 6 6 9 9 8 10 12 11 9 6 4 5 5 5 4 3
18 14 19 22 22 20 15 22 22 16 19 20 19 21 19 18 23 18 15 17 18 16 17 18 15 16 15 13 12 10 10 7 8 6 8 11 10 11 11 13 13 12 9 7 6 7 6 4 3
17 18 11 18 21 12 13 17 15 14 13 18 17 19 19 17 20 15 17 15 18 17 15 17 14 15 14 12 11 11 10 10 10 11 11 11 12 12 14 12 11 12 12 9 7 6 6 3 3
15 12 14 22 22 12 11 9 12 14 13 14 18 13 15 18 20 17 15 15 17 15 13 14 13 13 12 12 11 12 11 12 14 13 12 13 13 13 12 12 12 12 12 12 10 7 5 4 1
11 9 14 16 24 20 23 14 10 9 8 11 14 10 14 14 18 16 15 14 15 15 13 13 13 13 12 11 11 10 11 13 14 13 12 11 10 10 10 11 11 10 10 10 9 8 5 5 4
11 9 12 16 15 22 22 17 9 6 7 6 10 9 9 10 14 12 13 13 13 15 13 12 12 11 11 10 11 12 12 12 10 9 9 9 9 9 7 7 7 8 8 8 7 6 5 4 4
13 9 11 8 23 22 17 16 7 5 7 5 9 12 8 10 11 12 13 13 13 13 12 12 13 11 10 11 10 9 9 9 10 10 10 9 11 10 7 7 8 6 7 7 6 6 5 5 5
10 3 10 12 21 18 18 15 12 9 7 7 10 13 10 11 12 13 15 15 14 13 12 11 11 9 8 7 6 7 7 8 9 11 11 10 11 11 8 6 8 8 9 8 8 7 6 6 5
12 14 18 15 13 13 15 14 9 7 6 7 9 10 13 9 10 11 12 11 10 10 9 9 8 8 10 6 5 6 7 8 8 10 11 11 11 14 6 7 8 9 9 8 7 7 8 7 8
11 7 13 12 9 17 15 6 4 5 7 6 7 8 11 13 12 13 13 15 13 14 15 14 12 11 10 9 7 8 9 9 9 10 9 8 9 10 10 9 9 10 10 10 10 9 8 9 10
12 10 7 8 7 14 16 7 8 7 3 5 6 7 7 9 12 13 16 17 16 15 13 11 13 11 8 9 9 9 10 10 11 11 11 10 11 10 8 8 9 8 9 9 11 10 11 8 11
8 9 10 12 18 16 10 15 8 5 6 7 6 6 7 8 9 10 13 13 12 10 8 10 12 10 8 9 10 11 13 12 13 12 11 10 10 11 12 9 11 12 13 12 12 11 12 13 11
10 5 8 14 16 13 8 12 9 8 8 8 5 5 6 6 7 8 8 10 8 8 10 11 11 11 10 9 10 13 13 13 11 11 12 11 10 9 9 10 10 10 12 11 11 11 12 12 13
6 9 12 10 6 5 5 1 7 7 7 5 2 5 6 6 6 7 8 10 9 7 9 10 10 11 11 10 10 11 11 12 12 11 10 10 10 10 10 11 12 11 11 12 11 11 12 11 11
19 13 12 9 7 12 6 4 5 7 7 5 3 4 7 9 9 8 9 8 8 7 7 7 8 8 7 8 8 10 10 11 12 13 12 10 10 11 11 13 14 13 14 15 14 12 12 13 11
21 23 8 11 12 10 5 7 2 2 5 6 2 4 7 8 9 8 6 6 7 6 6 5 5 5 4 5 6 7 10 12 13 14 13 11 10 11 11 11 13 15 16 16 15 14 14 14 14
28 23 13 6 1 7 2 9 7 6 4 4 2 3 6 6 7 7 6 4 4 3 3 3 5 5 4 5 6 8 8 10 12 13 13 13 12 11 13 14 15 15 16 17 18 17 16 17 17
28 17 13 3 10 9 6 7 8 10 14 15 7 6 2 4 4 5 6 5 4 5 6 5 5 5 6 6 6 7 7 8 10 11 13 13 13 13 14 13 14 15 16 17 18 19 19 19 19
21 15 5 8 10 13 11 11 6 13 16 9 7 7 5 3 3 2 4 6 5 4 5 5 4 5 5 7 8 8 7 8 9 10 11 11 12 12 13 14 14 15 16 17 18 19 21 20 20
24 20 12 3 10 21 19 15 9 11 9 3 2 4 1 4 3 3 3 4 5 4 3 3 3 3 4 6 6 8 9 10 11 12 13 12 13 12 13 13 15 16 17 19 20 22 23 24 21
25 22 20 4 16 23 22 21 18 14 6 4 9 10 11 8 9 7 7 6 6 5 2 1 3 5 4 6 8 9 10 12 14 14 15 16 17 17 17 18 18 19 20 22 22 23 23 26 26
32 22 11 14 24 33 23 23 25 19 10 6 13 19 19 7 11 14 11 8 6 4 4 5 8 8 9 10 11 12 14 14 14 15 16 18 19 21 22 22 23 23 24 25 26 26 25 25 28
30 23 16 19 22 23 25 28 19 21 15 11 15 8 11 15 14 15 13 12 9 9 9 10 12 13 13 14 16 17 18 18 19 18 19 19 20 21 22 23 24 25 27 29 30 30 28 28 29
35 27 29 23 24 27 26 23 26 27 24 17 20 18 13 11 11 12 14 13 14 13 14 16 17 18 19 19 19 22 23 21 20 21 23 25 26 25 26 26 26 27 28 30 31 31 31 30 31
42 33 35 38 33 32 25 28 26 28 29 20 23 20 16 15 12 15 15 15 19 21 20 20 22 23 24 22 21 21 22 22 21 24 26 27 26 26 26 26 25 26 28 30 31 33 33 33 35
38 36 36 40 49 43 35 37 17 13 16 17 25 19 12 12 5 11 12 14 12 18 21 23 23 22 21 20 18 20 19 19 22 26 28 28 27 28 27 26 26 26 29 32 35 36 35 36 38
33 41 34 33 39 27 28 25 17 19 21 19 18 17 15 16 15 12 10 12 16 18 24 22 20 20 19 19 19 18 20 19 21 24 27 27 27 28 26 25 26 29 31 34 34 35 37 38 39
30 23 29 39 31 31 31 24 21 14 20 16 16 17 18 23 19 19 10 7 10 14 18 21 21 21 21 21 23 23 23 23 22 24 27 29 29 27 26 26 27 31 34 37 37 38 40 41 40
28 31 27 28 26 37 29 24 21 21 23 15 16 15 22 24 22 15 8 7 10 12 15 21 23 23 25 26 27 28 25 26 25 23 26 28 28 28 25 27 29 33 37 37 38 40 41 41 44
25 34 35 35 39 32 34 28 28 24 26 17 14 19 23 28 22 13 10 14 15 19 16 21 23 25 29 32 31 29 27 28 27 26 26 29 29 30 30 31 33 35 39 41 41 42 44 44 43

GFSSGP_500_spd_003.txt.gz
Wind_Speed
20 22 22 30 27 24 17 17 19 16 13 11 17 20 21 18 20 17 15 19 18 19 19 19 19 17 14 12 12 13 13 12 12 13 13 14 14 13 14 16 16 14 12 9 8 9 9 7 5
16 20 21 27 24 21 17 16 16 16 20 17 16 18 19 19 21 18 16 18 21 20 20 19 18 16 14 14 15 16 16 16 16 15 15 14 13 13 14 14 14 16 16 13 10 8 7 6 5
16 20 27 25 26 24 18 18 16 13 13 16 15 16 19 19 20 17 17 17 20 20 19 17 17 15 15 16 17 17 17 18 16 16 15 14 14 15 15 14 14 15 14 13 12 10 7 5 4
18 19 20 28 24 21 19 16 17 11 8 11 16 12 14 17 21 19 16 16 17 16 15 16 14 14 15 17 17 17 16 15 13 13 11 11 11 12 11 10 10 11 10 9 9 10 8 5 1
14 15 28 20 20 23 18 17 18 11 6 4 11 11 15 15 20 19 17 14 16 16 14 15 14 13 12 12 13 13 12 11 9 8 8 10 10 10 8 7 7 8 8 9 9 8 7 5 1
10 12 20 26 21 22 19 18 14 10 8 4 6 9 9 7 15 16 16 14 13 15 15 15 15 14 12 12 14 14 13 13 12 12 11 12 11 10 7 7 8 8 8 7 8 7 6 5 4
9 5 13 25 24 26 23 22 16 11 9 7 3 10 7 5 7 12 12 10 9 9 8 7 8 9 10 12 11 10 10 10 9 9 9 8 9 8 6 5 7 4 3 4 5 6 5 5 3
11 7 9 17 23 21 20 20 21 13 8 5 6 8 8 5 6 9 10 10 9 8 7 8 9 8 7 8 7 6 5 5 6 9 8 7 8 10 6 5 5 6 4 3 4 6 5 6 6
12 10 12 16 20 23 16 17 15 14 8 5 4 4 8 6 5 7 9 9 8 6 5 9 11 11 10 9 9 8 7 6 6 7 7 7 7 6 6 7 7 7 6 4 4 7 7 5 7
10 9 11 13 17 18 16 16 13 7 8 7 2 3 5 6 4 6 7 8 7 8 11 12 12 11 11 8 7 7 8 6 6 7 7 6 5 7 8 8 10 8 7 6 6 8 8 7 9
12 8 6 14 17 12 11 17 15 9 8 7 3 4 6 6 7 8 11 13 13 12 13 13 10 10 10 9 8 8 7 6 6 7 7 6 6 7 8 9 10 10 9 10 10 11 9 9 9
12 4 6 15 12 10 12 12 5 5 6 7 6 4 7 7 8 9 11 12 11 9 11 11 11 10 9 9 11 10 9 7 6 6 7 7 6 5 6 7 10 11 10 9 10 9 9 9 9
7 4 7 16 10 11 10 8 6 7 7 6 7 5 6 6 7 7 9 10 10 14 13 12 10 9 10 11 11 9 7 8 8 7 7 7 7 7 8 8 9 10 11 11 10 11 11 11 10
7 2 5 10 11 9 7 8 8 8 8 7 5 3 5 6 8 9 10 10 11 11 13 12 11 10 9 9 8 9 9 9 10 9 9 9 9 8 9 9 10 12 14 15 13 12 11 9 9
12 3 8 11 9 10 8 7 4 7 10 9 5 3 6 9 11 11 11 9 9 10 8 9 9 6 7 6 6 8 9 10 11 11 8 7 10 9 8 8 10 11 13 14 13 13 14 14 12
13 9 7 13 12 10 9 7 2 5 8 10 6 2 5 8 9 9 10 9 9 9 7 6 6 5 5 3 4 5 8 10 10 10 8 7 7 8 8 8 9 12 13 14 14 15 16 16 17
12 10 11 11 7 10 8 12 6 6 9 8 6 4 4 7 7 6 7 8 8 7 6 6 6 5 4 1 3 4 4 5 6 7 6 7 8 8 9 11 11 12 13 14 15 16 17 17 18
13 16 14 9 4 7 9 8 7 4 6 11 4 4 5 5 6 5 6 7 7 7 8 8 7 5 4 3 3 1 1 2 4 6 6 7 7 9 10 12 13 14 15 16 16 17 17 17 20
17 14 16 7 5 6 10 8 6 15 12 7 1 5 6 5 5 3 5 6 6 6 5 6 6 5 3 2 1 2 3 4 4 4 4 5 5 7 9 11 12 14 16 17 18 19 19 18 19
25 22 15 12 4 6 4 10 7 11 13 7 5 4 5 7 7 7 7 6 8 8 6 5 4 3 2 2 4 5 5 6 7 8 9 10 10 11 12 13 13 14 15 17 18 20 22 23 21
28 24 17 8 9 15 12 16 5 10 14 9 13 7 8 8 13 12 8 7 8 9 8 7 6 4 4 7 9 10 9 9 10 11 12 14 15 15 16 16 17 17 18 19 20 21 22 23 22
33 26 20 22 19 17 20 22 13 8 11 3 10 8 6 7 7 13 13 11 11 11 11 10 8 8 8 11 13 13 13 13 15 16 16 18 19 21 21 21 21 20 20 21 22 22 23 24 25
35 26 25 26 22 18 23 27 16 16 12 8 7 7 10 12 14 14 15 17 16 16 14 14 13 13 14 15 17 18 19 19 19 21 21 22 22 23 24 23 22 21 21 22 22 23 25 27 26
33 33 35 30 26 30 23 24 20 14 7 14 12 13 13 11 14 16 14 18 20 21 19 16 16 18 19 21 21 24 28 24 24 25 24 22 22 23 23 22 23 23 24 25 25 26 28 30 30
42 41 39 38 36 33 28 29 15 3 7 10 10 13 11 9 10 14 15 12 15 20 24 24 22 24 25 26 24 22 22 23 25 25 23 22 23 23 23 24 26 26 26 26 26 28 30 31 31
44 47 45 39 31 31 32 35 9 6 5 7 10 14 10 6 11 10 24 27 25 21 22 23 19 18 23 22 18 18 19 20 22 23 22 22 23 24 26 25 25 25 25 26 28 30 31 33 34
49 56 46 43 37 36 34 35 29 18 17 18 13 12 7 9 11 14 11 15 20 22 21 19 17 17 17 17 16 18 18 19 21 21 23 23 23 25 27 28 27 27 27 28 30 33 35 35 36
54 52 50 51 45 45 45 45 39 34 22 17 15 15 11 11 12 13 9 12 11 12 14 15 17 18 19 20 21 23 24 27 24 23 24 23 24 27 27 28 28 28 29 30 31 34 36 37 39
55 53 54 48 45 40 37 35 32 35 29 16 18 18 12 12 12 16 14 5 6 5 11 18 21 21 21 24 28 27 29 30 28 27 27 25 27 29 28 28 30 31 32 33 34 36 38 40 41
54 49 48 42 35 33 33 32 31 28 24 17 21 17 13 14 12 11 11 6 3 5 6 11 16 23 27 30 32 32 31 32 32 32 32 30 29 29 31 32 32 32 33 34 37 38 40 41 41

GFSSGP_500_spd_006.txt.gz
Wind_Speed
21 25 22 25 26 20 17 14 16 17 12 12 14 18 22 19 18 15 13 20 18 18 18 16 19 19 19 18 17 16 17 17 16 15 15 15 14 15 16 17 16 13 13 10 7 7 9 8 8
21 23 23 25 25 22 17 16 15 12 16 11 15 19 22 22 22 20 15 17 21 23 23 20 20 19 18 17 17 17 18 16 15 14 14 15 16 15 15 14 12 11 10 9 9 9 9 8 7
21 20 18 23 23 23 22 16 14 14 13 13 13 13 21 21 21 22 20 18 20 22 22 20 20 18 16 17 16 16 16 15 13 14 14 13 13 12 11 10 10 9 8 9 11 11 8 6 7
27 21 17 19 19 21 19 18 15 13 10 12 13 13 14 17 22 20 18 17 18 19 19 18 17 16 15 14 14 14 14 13 11 11 10 10 9 9 9 10 10 9 8 9 9 9 8 4 5
22 25 18 11 19 19 19 17 17 13 9 6 11 14 15 15 19 19 17 15 16 17 17 16 15 13 12 12 13 12 11 10 10 11 11 11 8 9 8 8 9 6 6 6 8 8 7 6 2
20 23 21 23 22 21 18 17 16 15 9 5 8 14 12 9 13 15 15 13 12 14 14 12 12 11 11 11 12 11 11 10 12 11 10 9 9 9 7 6 7 5 4 5 7 7 6 4 2
10 16 18 22 21 20 22 22 18 15 14 7 1 11 10 7 4 8 10 9 8 7 7 6 7 8 9 11 11 9 8 9 10 9 8 8 10 7 7 7 6 4 2 3 5 5 5 3 0
12 20 21 22 19 17 19 18 17 15 14 12 9 5 10 7 5 6 6 5 3 3 4 4 6 7 8 9 9 9 9 10 11 11 9 9 10 11 9 7 7 5 3 1 3 4 5 7 4
11 16 17 19 18 17 19 17 16 15 13 11 8 8 8 8 5 5 7 6 4 5 5 8 8 10 11 10 10 8 10 9 10 10 8 8 8 8 8 8 8 7 6 5 6 6 7 9 8
12 12 11 12 13 13 17 15 14 12 10 11 8 6 5 6 4 6 6 4 4 5 9 10 11 11 10 9 7 8 7 7 8 8 8 8 7 7 7 6 7 8 9 10 11 10 9 10 10
12 10 7 6 12 13 15 14 13 12 11 12 7 6 5 6 4 4 5 5 7 10 11 12 11 11 9 8 7 7 7 8 8 8 8 6 5 7 8 10 11 12 12 11 11 12 11 9 8
12 7 7 9 11 16 16 13 12 12 10 10 6 6 6 6 6 8 8 10 12 12 13 12 11 11 11 9 9 8 8 7 7 7 6 5 5 6 9 12 13 13 12 10 9 9 9 8 8
10 6 8 10 11 12 15 14 13 12 9 8 8 5 7 8 9 10 10 11 14 15 15 13 10 10 10 9 9 8 8 8 7 7 6 6 6 7 8 9 11 13 13 11 11 12 11 11 11
11 9 8 9 10 12 15 15 13 10 10 9 6 6 6 9 10 12 14 15 14 15 14 13 13 11 9 8 8 9 9 9 8 7 8 7 6 7 7 8 10 12 13 13 12 12 12 11 11
12 10 10 11 13 16 15 13 13 11 10 10 6 6 7 9 9 10 11 11 12 12 12 11 10 8 6 5 6 8 8 7 8 6 7 7 7 6 5 6 7 9 10 11 11 13 13 13 13
15 19 11 10 14 16 16 13 10 9 8 9 8 3 6 8 8 7 8 9 10 10 10 9 8 7 6 3 4 4 5 5 7 6 7 7 5 6 8 7 7 8 10 11 11 12 13 15 15
13 13 20 13 12 14 16 14 12 5 5 6 5 4 3 6 7 8 9 8 9 9 8 7 7 6 5 3 3 3 3 4 5 5 6 6 5 6 8 8 9 10 10 11 12 13 14 16 18
9 17 20 15 9 13 13 10 8 11 6 8 2 1 1 6 6 5 9 10 10 8 8 9 7 5 3 3 2 2 1 2 4 4 4 5 7 9 9 10 11 12 12 13 14 15 15 16 19
12 14 20 17 18 13 9 4 4 8 7 10 3 4 5 4 4 5 7 8 8 10 10 9 8 6 6 3 1 1 2 4 5 7 7 7 8 10 12 12 13 14 14 15 15 16 15 16 19
17 20 24 19 14 10 9 6 1 3 8 10 5 1 4 7 4 5 5 6 7 8 9 10 10 9 7 5 4 3 3 4 6 8 9 10 11 13 14 15 16 17 17 17 17 16 14 15 17
20 20 23 16 14 13 11 13 5 2 6 7 8 6 3 3 6 10 10 7 9 11 12 11 10 10 10 8 7 6 6 7 9 10 12 14 15 16 16 18 18 18 18 17 18 18 19 18 18
27 13 20 23 21 18 17 15 10 5 6 5 8 8 3 4 6 6 14 13 12 13 14 13 12 13 13 11 11 12 12 12 14 17 18 18 20 21 20 19 18 17 18 19 19 20 20 20 21
25 19 20 23 28 29 24 24 11 14 13 2 4 11 11 8 7 12 12 15 19 17 16 16 17 17 16 16 16 17 19 21 24 25 22 22 24 25 23 21 19 18 18 18 19 20 20 21 23
27 35 31 34 37 38 25 22 13 11 6 6 9 12 11 11 14 16 17 15 20 21 19 21 22 22 19 18 20 23 27 29 25 22 21 23 26 26 23 20 19 19 19 18 20 22 24 24 25
38 39 42 42 42 42 30 29 10 11 10 5 6 11 12 14 13 14 11 14 16 20 21 22 23 25 24 26 26 24 23 23 24 21 21 22 24 24 23 21 19 21 20 20 22 24 26 28 28
42 41 46 48 43 41 37 31 9 10 11 10 11 11 13 9 14 11 8 14 22 20 22 22 21 21 17 18 19 18 18 17 18 18 21 25 25 25 23 21 23 23 24 24 24 26 27 30 31
50 48 46 47 46 45 44 40 28 18 14 14 13 13 12 13 17 9 10 12 16 21 23 24 17 14 15 17 16 17 17 16 17 20 21 22 25 26 24 23 22 24 26 28 27 28 29 31 33
58 51 50 53 52 50 49 43 34 24 21 20 18 18 20 18 17 7 10 12 14 16 12 9 11 15 19 21 23 23 23 24 25 27 26 24 24 23 23 25 26 27 29 30 29 27 28 31 34
64 62 58 55 56 52 48 47 37 32 30 26 22 24 15 20 14 7 11 8 8 13 11 8 9 12 16 20 23 28 28 32 32 31 31 30 28 25 25 27 28 28 30 30 28 26 28 32 34
59 63 58 58 58 57 52 45 38 30 27 25 26 29 23 22 16 14 11 13 8 3 4 6 10 13 15 18 20 28 25 29 32 32 32 33 33 31 29 29 29 31 30 30 29 28 31 34 37

GFSSGP_500_spd_009.txt.gz
Wind_Speed
25 19 14 21 17 14 12 18 18 12 11 10 15 16 23 19 15 16 13 16 18 19 17 20 23 21 21 19 20 18 17 16 16 15 15 16 17 17 14 11 10 11 9 10 9 9 10 10 10
19 18 17 20 22 20 16 14 11 13 14 12 14 14 19 20 20 18 13 11 14 16 19 19 20 19 18 16 16 14 14 13 13 14 14 15 15 13 12 10 9 9 11 11 9 7 8 10 9
18 16 16 20 19 19 20 19 16 12 11 11 14 15 19 21 20 19 16 16 17 18 19 18 17 16 14 14 13 12 11 12 12 13 13 12 11 9 9 9 7 7 9 9 10 8 7 8 8
22 14 13 18 17 18 18 17 16 14 12 12 13 15 15 18 22 22 19 18 17 17 17 15 15 13 12 12 12 12 11 12 11 11 10 10 9 8 9 8 7 6 7 9 9 9 6 6 7
23 22 16 14 16 17 16 16 14 15 12 9 14 15 16 15 19 19 18 16 15 14 14 14 13 13 12 12 11 11 11 11 11 11 10 8 7 8 7 8 6 6 7 8 8 7 6 4 4
19 19 18 17 17 19 18 16 15 14 12 11 13 16 14 13 14 16 15 13 11 13 12 11 10 10 11 11 10 11 12 12 11 9 7 7 7 8 9 7 5 4 5 6 5 6 6 5 2
15 17 17 18 20 18 18 17 16 17 15 9 8 14 14 10 8 11 12 11 8 5 4 4 5 9 10 10 10 12 12 12 10 9 9 13 12 11 9 7 5 4 4 5 6 5 4 5 3
20 17 18 17 17 17 16 17 16 15 16 15 6 9 15 10 5 4 7 7 4 2 3 5 10 11 10 11 14 13 13 12 11 11 11 12 12 12 12 11 9 7 5 4 6 7 6 5 3
20 15 15 15 13 14 15 14 15 15 15 14 12 9 9 12 7 6 7 5 4 2 4 9 11 11 12 11 11 11 11 11 11 11 10 9 9 11 10 9 9 8 8 7 8 9 9 8 8
17 13 12 11 11 12 14 13 13 13 15 14 10 12 7 12 7 6 8 7 5 5 9 12 12 12 11 9 9 10 9 9 9 9 8 8 8 8 9 9 9 10 10 9 9 8 8 8 8
12 10 7 10 8 13 15 15 13 12 12 13 10 11 8 10 7 4 4 4 7 10 12 13 13 12 11 9 7 8 7 7 8 7 7 7 7 8 10 11 12 12 12 12 11 11 11 10 9
13 9 10 12 10 12 15 16 14 10 11 12 10 7 9 9 9 8 7 10 11 12 12 12 12 11 10 9 7 6 7 7 7 6 7 6 6 8 11 13 14 13 12 13 13 13 12 11 10
12 9 13 12 11 12 15 17 14 12 10 12 11 6 9 12 11 9 9 10 12 13 14 13 11 10 9 9 8 7 8 7 7 6 6 7 7 6 9 11 12 13 13 13 14 14 13 13 13
12 11 14 12 12 12 15 17 18 14 12 8 10 8 8 13 13 11 12 13 13 14 13 12 11 9 8 8 7 7 7 7 7 7 6 5 6 6 7 8 10 10 11 12 12 12 12 12 13
16 15 14 14 12 14 14 17 18 15 12 10 7 9 8 11 14 15 14 14 15 15 14 12 11 8 7 4 6 7 6 7 5 7 6 5 5 4 6 6 7 9 11 10 10 10 11 12 12
17 18 17 15 15 14 13 14 15 14 11 9 7 5 7 8 12 13 13 12 13 12 11 10 8 7 4 3 4 5 4 5 6 5 5 5 4 6 6 6 7 8 9 10 10 11 12 14 14
21 19 19 18 19 16 13 10 9 10 9 9 5 5 3 5 6 9 10 11 11 10 9 8 8 8 6 4 3 4 2 3 6 5 5 7 8 9 11 11 11 10 10 10 10 10 11 13 14
17 18 19 19 16 18 16 13 11 11 10 3 1 4 3 3 4 4 6 8 10 11 11 11 10 8 8 5 4 3 2 1 3 3 4 6 7 9 10 11 12 13 13 13 13 13 14 15 16
17 19 21 19 21 19 18 14 12 10 8 7 3 4 5 6 5 3 3 6 9 10 11 12 11 9 6 5 3 2 3 4 4 5 6 7 8 9 9 11 13 14 15 15 14 14 14 16 17
24 26 24 24 23 18 17 15 14 11 7 6 3 4 4 7 6 4 3 4 8 11 12 12 11 10 10 8 6 5 5 5 5 7 8 10 11 12 14 14 15 16 16 15 14 13 13 15 16
24 24 33 26 25 21 17 16 14 11 9 6 4 1 3 5 8 7 7 8 7 11 13 13 12 12 12 10 9 7 7 8 9 10 12 13 15 15 17 18 18 17 16 15 13 13 14 15 14
20 22 32 31 29 23 20 17 15 11 9 7 3 2 2 6 10 11 13 14 13 12 14 15 14 15 14 13 13 13 13 13 15 17 20 22 20 18 18 20 20 17 15 14 12 12 14 14 15
26 21 33 29 30 30 26 24 19 18 15 13 6 2 3 7 9 9 10 12 13 16 18 17 17 17 17 16 17 18 19 20 21 24 23 19 19 18 18 19 19 17 16 16 15 13 13 14 16
36 32 30 33 35 40 30 29 21 15 11 15 12 8 9 9 9 10 13 17 17 17 21 22 21 19 19 20 21 22 24 26 23 20 20 19 18 18 18 20 21 18 18 17 16 16 16 17 19
47 43 41 39 40 43 31 30 10 13 12 19 14 12 13 14 12 11 11 11 19 18 21 25 25 23 21 23 26 26 22 20 20 18 17 19 19 19 19 20 20 18 19 17 17 19 20 21 21
52 48 47 43 41 35 33 28 18 12 19 18 17 18 21 13 10 12 15 16 13 17 19 23 24 23 20 23 17 17 17 15 16 17 18 21 24 24 21 19 19 20 21 20 20 22 25 25 23
58 56 46 45 45 39 41 34 26 15 22 21 18 18 15 10 10 17 18 16 11 12 15 23 27 24 20 15 13 15 18 18 19 19 21 22 23 23 24 23 22 23 24 23 23 26 27 26 24
60 56 54 52 54 54 51 43 30 22 20 21 19 17 14 13 17 20 19 10 13 14 14 11 9 10 10 11 14 17 19 19 23 23 27 29 28 22 22 22 24 25 25 24 25 27 28 27 25
67 65 63 59 56 53 52 47 31 26 22 24 25 23 20 17 18 20 15 11 10 10 6 6 6 5 5 7 10 13 19 22 24 25 28 28 29 28 23 22 23 25 25 26 27 28 29 29 27
69 67 63 63 59 58 56 49 38 31 27 23 22 24 26 22 23 20 17 17 15 13 4 6 2 3 7 11 14 18 22 20 26 30 31 37 28 27 27 28 28 28 27 29 29 30 31 31 27

GFSSGP_500_spd_012.txt.gz
Wind_Speed
17 17 14 18 18 14 14 13 14 14 14 12 12 14 18 19 18 13 12 17 17 17 18 16 16 14 17 19 22 20 17 17 16 15 15 14 13 12 9 9 10 9 9 7 8 11 11 11 10
13 14 14 15 17 10 15 11 10 10 11 12 14 15 16 18 17 14 11 11 12 15 18 16 16 16 16 17 16 15 13 12 13 14 13 12 11 8 7 7 9 9 10 9 8 10 9 9 9
14 15 14 16 13 12 12 12 13 13 12 10 11 12 16 18 17 13 10 10 11 12 14 14 14 13 14 13 13 11 11 11 13 12 10 9 8 7 6 6 8 8 9 9 8 7 7 8 8
14 14 15 16 13 12 13 12 11 12 13 12 12 13 13 16 17 16 14 13 13 12 12 10 10 9 10 9 10 10 10 10 10 9 8 7 6 6 5 5 7 9 8 8 8 6 5 6 7
19 15 15 14 13 11 11 12 11 12 11 13 12 12 13 15 17 16 16 13 13 11 10 10 9 8 10 9 11 10 10 10 10 10 8 6 6 5 4 4 5 7 8 8 7 6 5 3 5
18 16 11 9 12 14 13 10 12 11 11 10 11 13 13 12 13 14 13 12 10 10 8 6 6 8 10 11 11 11 10 9 9 9 9 7 7 7 5 4 3 4 5 7 7 5 4 3 2
17 16 11 10 11 12 13 12 10 13 13 9 12 15 14 11 8 9 11 11 9 5 3 3 7 8 10 10 12 12 11 11 12 12 12 13 10 8 6 5 5 4 5 6 6 6 3 3 3
17 15 13 12 10 13 13 13 14 13 15 13 9 11 15 13 8 6 7 8 5 2 2 6 8 9 11 13 13 13 12 12 12 11 11 11 10 10 9 10 10 9 8 7 7 7 5 3 3
17 14 5 6 9 10 13 12 13 14 16 15 11 7 10 15 10 7 7 6 5 4 7 9 10 11 12 13 12 11 11 10 10 9 8 9 9 9 10 11 10 8 7 6 6 7 7 6 5
13 12 5 7 8 11 11 12 12 13 15 14 12 10 9 14 12 10 9 8 5 5 9 11 11 11 11 10 10 10 10 9 9 8 7 8 10 11 10 10 10 12 12 12 11 11 10 9 8
12 10 7 6 8 8 10 12 13 11 12 11 9 14 12 12 11 7 5 4 5 9 11 12 11 10 9 8 7 8 8 8 7 6 7 9 11 12 13 14 14 14 15 14 14 14 13 13 13
13 8 10 10 10 11 10 12 11 10 9 11 9 6 13 11 12 9 8 10 12 13 12 11 10 9 9 8 7 7 8 8 6 6 7 7 10 11 13 13 14 15 15 15 15 16 15 14 14
15 12 12 11 10 12 11 11 10 9 8 10 11 8 9 13 12 11 11 13 15 13 13 13 11 10 8 7 8 7 8 8 7 6 5 6 7 9 10 11 12 13 12 13 13 13 12 12 12
15 14 14 13 12 12 12 12 13 10 8 8 11 10 9 13 13 13 12 12 13 14 13 13 10 9 7 7 7 7 8 7 6 6 6 6 7 7 7 7 8 8 9 10 11 11 11 11 11
17 15 16 15 14 15 14 12 13 13 12 8 8 9 8 9 11 14 15 14 14 14 12 11 8 6 5 4 5 5 6 6 5 5 5 4 4 4 5 5 6 6 7 8 8 9 10 11 11
18 16 16 17 17 15 14 8 11 12 12 10 8 7 8 9 9 11 12 13 14 13 10 9 7 5 3 2 4 3 3 4 4 5 5 4 4 4 5 5 4 6 7 8 9 10 12 14 13
22 15 17 19 19 18 15 12 10 10 10 9 8 7 6 9 10 9 9 10 11 10 10 9 8 7 6 4 4 4 3 2 4 3 3 3 4 5 5 6 7 9 9 8 9 11 12 13 14
20 19 19 18 20 18 16 13 11 9 9 9 8 8 8 7 8 9 10 10 11 11 10 10 9 9 8 7 6 6 4 3 2 1 3 5 5 6 7 8 9 10 12 11 11 12 13 13 13
19 20 18 23 23 21 18 14 12 11 9 8 7 5 7 10 8 6 6 8 10 11 13 13 12 10 9 8 6 6 4 4 4 5 5 7 9 10 10 12 13 14 14 13 13 12 12 12 13
25 25 22 23 28 25 22 20 19 16 13 11 10 6 4 7 9 9 8 7 9 11 12 12 12 13 11 10 9 7 6 6 6 7 7 9 10 13 15 14 15 16 16 14 14 13 11 11 12
31 29 26 26 28 28 26 25 21 18 16 13 11 9 6 5 10 10 8 8 8 10 13 13 13 14 13 13 10 9 8 8 9 10 11 13 16 20 21 19 18 17 17 16 15 14 13 12 12
34 30 28 29 32 31 30 21 21 18 15 13 11 9 6 7 9 10 12 13 13 13 12 13 13 15 14 14 13 13 13 13 14 15 17 20 24 20 19 19 18 16 17 16 15 16 15 13 13
31 31 35 31 34 30 31 29 23 25 19 13 11 10 8 7 7 11 12 12 14 15 15 14 15 17 17 16 16 17 18 18 20 21 23 24 19 17 17 16 16 15 15 13 14 15 15 15 15
37 34 34 33 34 38 33 33 26 21 13 18 17 17 13 9 8 11 12 14 17 18 17 17 19 20 18 18 19 21 22 22 23 25 19 17 14 14 15 16 16 17 14 12 14 16 16 15 17
47 44 37 37 39 37 34 37 35 26 20 21 22 19 17 18 16 12 11 9 7 18 24 23 22 24 21 21 21 22 22 22 20 18 16 14 15 16 17 18 19 18 16 15 17 19 20 19 20
51 50 40 38 35 34 35 39 29 24 25 22 24 24 22 23 13 10 8 9 11 13 14 19 17 20 21 22 22 22 18 15 16 18 18 17 17 20 25 26 24 20 18 19 20 21 22 21 22
58 60 44 33 33 33 30 36 33 29 27 24 21 27 25 25 13 9 12 11 17 10 10 13 16 21 19 21 22 16 17 16 17 17 19 21 21 22 24 25 27 26 22 20 22 22 24 22 23
64 54 54 46 42 40 34 29 26 29 25 23 25 22 21 18 13 15 15 15 12 10 9 9 9 11 16 14 13 11 8 10 13 12 15 17 22 20 26 25 24 29 25 23 24 22 24 23 23
62 68 64 47 46 41 38 36 29 28 31 29 24 24 23 21 17 17 17 18 19 12 10 9 10 11 9 8 6 7 11 13 14 15 19 21 25 22 27 23 28 27 28 23 22 24 24 23 24
49 61 64 58 58 47 45 36 26 30 32 31 27 23 29 27 23 22 20 18 22 16 12 11 9 9 8 8 7 9 10 10 13 16 16 26 28 37 41 33 29 28 31 28 26 24 25 26 27

GFSSGP_500_spd_015.txt.gz
Wind_Speed
18 19 20 9 13 21 15 8 10 10 11 10 9 14 12 9 11 10 14 9 11 14 13 16 12 14 13 14 18 18 16 15 15 12 11 9 8 8 8 8 7 6 5 5 7 8 7 10 9
14 15 14 19 13 8 6 11 10 11 9 9 9 12 13 13 9 9 10 10 11 15 16 15 16 17 15 16 16 14 12 12 12 11 10 8 7 7 6 6 6 7 7 7 8 8 7 7 7
10 13 7 19 14 5 8 6 7 9 10 9 8 7 10 12 10 7 8 8 10 14 15 15 15 14 14 14 12 11 9 10 10 10 9 6 6 4 4 5 5 6 7 6 7 7 6 6 5
12 16 17 9 6 5 5 5 6 7 8 7 7 6 7 8 8 10 8 10 11 12 11 12 11 10 9 10 9 9 8 8 8 7 5 5 5 4 3 4 6 7 8 6 4 4 5 5 4
16 27 17 8 5 5 6 6 6 6 5 7 9 7 8 8 8 9 10 11 10 10 10 8 8 6 7 8 8 8 7 7 6 6 5 5 5 4 3 4 5 6 7 7 5 3 2 3 4
26 18 18 6 2 5 5 6 8 10 9 9 7 8 9 8 9 9 9 10 9 10 7 5 4 6 6 8 9 8 8 7 8 7 6 8 6 6 3 2 3 5 6 5 5 4 4 2 1
16 7 9 4 1 4 6 6 5 8 9 8 9 8 9 9 8 7 8 9 7 4 3 3 5 6 7 9 9 9 9 9 11 10 11 10 8 6 5 4 4 4 5 5 4 3 1 1 2
22 16 3 4 6 5 6 7 7 9 12 9 8 10 11 11 8 6 7 7 4 2 2 6 7 7 9 11 10 10 10 11 11 12 12 11 10 9 8 8 7 7 6 6 5 4 2 1 2
25 18 7 5 10 7 6 7 8 9 10 13 13 10 9 13 12 8 7 6 4 3 7 8 8 10 10 10 10 10 10 9 9 10 11 12 11 10 10 9 9 7 7 8 8 6 6 6 6
15 23 16 10 6 3 10 9 10 9 10 11 12 10 8 15 14 11 8 6 5 5 7 10 11 10 9 9 9 8 8 9 9 11 12 12 11 12 13 14 14 13 13 12 12 13 13 13 12
8 11 14 7 5 5 11 9 10 9 8 7 9 10 11 11 12 10 7 6 6 8 11 11 11 9 9 8 7 7 7 8 9 10 13 13 13 14 14 13 14 15 14 14 15 15 15 13 14
14 5 7 8 12 10 9 10 11 10 8 9 7 8 12 13 13 12 11 10 11 12 12 11 9 8 7 7 8 7 7 7 8 10 10 12 11 11 11 11 11 12 12 13 13 12 13 12 13
12 11 8 7 9 9 11 10 9 9 8 9 9 9 11 13 12 11 10 11 14 13 12 10 9 7 6 6 6 7 7 6 7 7 8 9 10 9 8 8 9 9 9 10 10 10 10 10 10
9 12 10 9 10 10 13 10 7 8 7 8 8 8 8 10 11 12 13 13 14 14 12 11 9 7 6 6 6 7 6 5 6 5 6 7 7 7 4 5 5 6 6 6 6 8 9 10 11
18 13 10 11 13 13 12 9 8 8 8 7 7 8 8 11 12 13 14 15 15 13 12 9 8 6 5 5 5 4 5 5 5 4 5 4 3 4 2 3 3 4 4 5 6 8 9 9 11
20 14 8 15 16 14 10 7 6 7 8 8 9 8 7 10 11 11 11 13 14 12 10 8 8 6 3 2 2 3 3 3 4 4 4 4 2 2 3 3 4 5 7 8 9 9 10 12 13
22 14 13 19 19 16 14 12 10 8 8 8 8 8 7 8 9 10 10 11 11 9 9 9 8 7 5 3 3 3 2 1 4 3 4 4 3 2 4 5 7 9 10 10 11 11 12 12 13
19 16 15 18 25 21 18 13 17 11 9 10 8 8 8 8 8 8 9 9 9 9 9 8 8 8 7 7 6 6 4 2 1 1 1 2 2 3 4 6 8 10 13 14 13 14 14 13 13
18 17 19 19 25 23 19 16 16 12 11 10 10 9 8 8 8 7 9 10 10 11 11 11 10 9 8 7 5 4 5 4 3 5 5 6 6 9 9 11 14 14 14 16 15 14 13 12 13
25 23 20 17 28 22 18 17 18 17 15 13 12 12 10 9 10 10 10 11 12 13 13 12 12 10 9 8 8 7 7 6 6 7 8 8 10 12 17 17 17 17 16 15 15 14 13 13 14
31 27 23 22 29 20 22 20 22 25 18 15 15 14 13 12 12 11 11 11 11 12 14 14 12 11 11 11 11 10 9 9 9 10 11 13 15 18 21 17 17 16 15 14 14 13 14 15 15
34 30 26 25 34 27 26 22 27 24 22 19 16 14 14 14 13 14 15 14 13 13 11 11 11 13 13 12 13 14 12 13 15 15 17 19 20 22 18 17 16 16 15 14 13 13 15 15 16
35 30 28 28 31 22 26 27 23 22 22 23 18 15 15 16 17 17 16 17 16 16 14 14 12 14 15 14 15 15 15 17 19 20 22 23 23 18 15 15 15 16 17 16 15 14 15 17 18
38 31 32 31 31 37 31 30 26 28 22 26 22 20 17 17 18 19 15 14 15 16 16 17 17 17 17 17 17 18 18 20 23 24 23 20 17 15 14 15 16 17 19 18 17 16 17 17 18
46 41 37 38 40 40 30 37 26 28 26 21 19 21 24 20 20 18 17 15 14 13 17 21 19 18 20 21 20 19 20 21 22 20 17 16 14 16 17 18 19 20 19 19 21 20 19 18 20
50 47 44 43 36 35 32 37 36 31 24 21 21 21 23 28 22 15 13 12 8 11 13 13 18 22 22 20 23 22 22 21 19 17 15 15 15 17 18 19 22 26 26 23 22 23 23 22 22
47 54 43 38 33 34 33 32 30 30 33 33 27 21 25 28 23 14 12 9 9 9 7 12 15 18 21 20 20 20 19 17 16 16 17 14 14 17 20 21 26 30 31 32 28 24 25 24 23
50 43 48 50 45 41 35 32 30 34 38 32 32 25 24 26 25 21 16 12 12 10 9 10 16 17 18 22 21 18 13 10 7 9 10 14 18 19 22 19 30 30 28 29 32 33 31 28 25
47 55 47 45 48 45 39 35 32 27 26 30 27 23 23 24 22 17 16 13 16 16 12 13 14 16 12 12 14 12 10 10 9 8 10 14 19 18 18 26 33 34 38 35 31 33 34 29 30
39 42 49 49 51 50 44 38 30 32 27 28 29 23 17 22 28 24 23 21 16 13 17 15 15 14 15 16 12 9 10 8 8 10 16 15 21 17 28 29 32 36 40 44 38 41 35 31 29

GFSSGP_500_spd_018.txt.gz
Wind_Speed
14 16 11 10 20 12 8 7 5 5 5 8 8 5 8 8 9 9 9 13 12 13 12 12 13 16 13 16 15 14 14 13 10 10 8 7 6 5 6 9 9 8 6 5 6 8 7 8 9
10 16 6 14 14 12 9 5 10 7 6 5 7 3 4 9 9 9 10 11 13 13 15 15 15 15 14 13 14 13 11 10 9 8 6 4 3 4 7 7 9 8 6 4 5 6 6 5 6
7 7 22 25 27 15 5 3 3 2 1 2 5 3 1 2 2 8 8 10 14 16 16 15 15 13 12 11 11 9 8 7 7 6 4 2 2 5 6 9 9 7 6 5 5 5 4 3 4
12 11 18 23 12 13 7 4 2 1 3 4 0 1 2 3 3 8 11 13 13 14 14 15 13 11 10 9 9 8 8 7 6 4 1 2 3 4 6 10 9 7 7 6 6 3 2 1 1
8 8 20 13 4 10 2 2 4 1 1 1 2 3 3 4 6 10 12 13 12 14 12 11 10 9 8 7 7 8 8 6 5 3 2 2 2 3 7 8 8 8 7 7 5 4 2 0 2
9 13 20 4 14 2 6 1 5 4 5 2 4 3 4 7 9 10 12 12 11 10 9 7 7 7 6 6 7 9 8 7 6 4 4 4 5 6 6 6 5 5 4 4 4 4 3 2 1
26 24 18 7 13 7 9 7 9 11 7 3 3 3 4 9 7 8 10 10 7 6 6 6 6 6 6 6 8 9 9 10 8 9 9 10 8 7 7 5 5 4 4 3 3 2 2 3 3
1 20 1 21 8 12 7 3 5 14 7 6 4 5 5 8 8 7 7 6 2 3 4 7 6 6 8 9 10 10 11 12 12 11 11 10 10 9 7 7 7 7 5 5 6 6 5 3 4
18 14 6 15 9 17 11 8 9 9 10 9 7 7 3 7 11 8 6 4 1 2 6 8 8 9 10 10 11 11 11 11 10 10 11 11 11 10 13 12 12 12 10 9 10 9 10 8 7
5 14 12 18 13 18 7 12 11 8 6 10 13 10 8 7 11 8 7 4 4 4 8 9 10 10 10 10 10 10 10 11 11 11 10 12 13 15 17 16 17 15 15 15 13 13 14 14 13
9 8 9 5 14 13 14 14 11 9 7 7 4 9 9 7 9 11 8 6 5 6 9 11 10 9 9 9 8 9 10 11 11 11 13 15 15 18 13 15 12 11 13 14 12 13 13 14 14
12 2 8 13 9 18 13 14 9 5 7 7 6 8 9 8 8 10 9 8 8 11 13 11 10 9 9 9 8 9 9 11 10 10 10 11 12 13 12 12 11 9 11 10 10 11 10 11 10
11 7 6 11 13 10 3 18 14 8 10 7 8 7 7 9 9 9 6 8 11 14 13 12 11 9 9 8 7 7 7 9 9 10 9 9 10 9 9 8 7 7 8 8 9 9 11 10 9
8 11 11 8 9 11 13 17 16 10 12 9 8 6 7 9 10 10 9 12 13 13 12 12 10 10 8 7 7 6 5 5 7 8 8 8 6 6 5 5 6 6 6 7 7 8 8 8 10
18 16 16 10 10 15 14 21 19 11 10 9 6 4 5 8 9 9 11 13 15 13 11 10 9 7 7 5 5 5 4 4 4 5 5 4 4 3 3 4 4 5 7 8 7 8 9 10 10
17 17 14 11 14 15 7 17 15 9 6 6 6 3 5 7 8 10 10 12 12 12 11 10 8 6 4 3 3 3 4 3 3 3 4 2 2 2 3 4 5 7 8 9 9 9 9 10 10
21 17 16 16 16 16 13 29 18 10 4 5 6 5 5 7 8 10 11 12 11 10 8 6 6 4 2 1 1 1 2 2 4 4 3 2 2 2 3 5 7 8 9 11 12 11 12 12 12
17 18 16 22 18 16 21 23 28 15 10 8 6 7 7 7 9 9 9 10 10 9 7 6 5 4 4 3 3 3 3 2 3 3 2 1 2 5 6 7 10 13 14 14 13 14 14 13 14
17 15 13 28 24 18 22 27 33 2 10 13 10 8 7 8 9 9 8 9 9 8 8 7 6 5 4 4 3 3 3 3 3 2 2 4 5 6 8 12 14 15 15 15 14 14 14 13 14
23 24 23 22 26 18 20 20 23 15 16 17 14 12 11 10 9 8 8 9 10 9 9 9 8 7 6 5 4 6 5 5 5 5 5 7 9 11 14 17 17 15 15 15 14 13 11 13 13
30 30 22 19 23 25 18 18 20 26 24 20 17 14 12 12 11 11 10 10 10 10 12 12 10 8 8 7 7 7 7 6 7 8 9 11 13 15 18 20 17 16 15 15 14 14 12 11 14
32 29 25 21 27 30 28 28 23 21 25 19 20 16 15 14 13 13 13 13 13 13 12 11 12 12 11 9 10 10 9 10 10 11 14 16 18 20 20 16 14 13 14 14 15 16 17 15 15
31 27 30 26 26 32 27 31 26 29 35 25 20 17 18 17 15 16 17 19 18 17 15 15 14 13 13 13 13 13 12 13 14 15 17 20 21 18 15 13 12 14 17 17 18 18 18 19 19
34 32 30 32 30 36 28 33 26 30 34 31 33 24 19 20 17 19 19 20 22 21 18 18 19 19 17 15 16 16 17 16 16 17 19 18 14 12 11 12 13 15 17 20 22 23 22 21 22
41 35 36 37 40 39 28 36 31 28 33 35 36 23 24 23 24 19 19 16 17 18 20 19 20 20 19 18 18 19 19 17 17 19 19 15 12 11 12 14 15 16 20 23 25 24 24 26 26
39 40 45 42 41 34 32 39 36 24 38 35 6 11 26 27 23 22 16 13 11 10 16 18 18 23 25 23 20 20 20 20 19 18 16 15 13 8 11 14 15 17 24 27 25 32 27 26 29
35 43 42 40 33 35 33 32 28 34 37 36 33 25 21 22 33 16 19 15 10 9 10 13 15 19 20 21 22 21 19 19 15 14 12 10 7 12 11 11 14 18 24 24 28 32 34 32 29
39 32 41 47 46 45 38 35 36 30 39 30 33 28 26 30 33 29 23 18 13 9 10 10 12 13 16 17 20 20 19 14 12 8 7 6 6 12 10 10 19 24 29 30 33 35 32 33 35
40 44 45 38 49 50 44 41 31 29 32 37 42 34 28 35 33 34 24 21 14 16 12 10 14 16 14 13 15 19 16 12 9 7 3 8 10 11 10 14 18 23 24 31 33 32 32 30 33
38 40 43 51 48 52 48 43 23 31 31 34 41 33 35 43 32 32 25 23 19 15 10 8 12 14 15 13 13 11 12 10 9 6 8 10 14 15 16 17 24 29 29 32 35 33 34 34 33

GFSSGP_500_spd_021.txt.gz
Wind_Speed
13 11 5 9 22 12 8 11 1 6 1 3 8 8 8 9 12 13 11 16 17 15 14 13 14 16 16 16 13 11 12 11 10 10 9 8 7 7 6 8 7 7 9 9 6 7 8 11 12
11 9 15 14 17 10 8 7 7 2 5 3 7 6 11 11 12 13 13 16 16 15 15 16 15 16 14 11 11 11 11 10 9 9 7 5 5 4 6 7 6 8 8 8 6 6 6 7 7
7 3 7 19 16 11 6 12 12 6 7 4 5 7 7 9 8 11 11 18 17 17 17 15 15 12 11 10 10 10 9 9 8 6 4 3 3 5 8 8 8 8 7 6 5 5 5 3 3
11 4 10 17 24 9 16 15 8 7 5 1 3 4 6 7 10 13 15 15 16 16 15 14 13 11 10 9 10 9 8 8 6 3 2 3 3 6 7 8 9 8 7 6 6 5 4 2 1
11 13 23 18 18 18 14 9 6 9 1 4 3 5 5 7 12 14 15 14 15 13 12 12 12 11 9 11 10 9 8 6 5 4 3 4 5 5 6 8 9 8 7 8 8 6 3 1 1
4 14 19 19 13 5 14 5 5 15 7 5 4 3 4 7 14 13 12 13 11 11 9 9 10 10 10 10 9 9 8 8 7 7 7 8 7 7 7 8 7 7 8 8 6 6 4 3 3
20 14 12 15 9 8 14 8 8 7 7 3 3 2 2 9 12 13 12 9 8 7 8 10 10 10 10 11 11 11 11 11 11 10 11 9 8 9 9 9 8 8 10 8 8 6 5 5 5
3 9 13 15 14 2 20 18 10 9 8 4 3 4 4 6 10 10 9 5 5 5 7 10 10 11 13 13 13 12 13 14 12 12 11 10 9 8 10 12 11 11 12 11 10 8 8 7 8
9 11 19 15 10 16 18 16 12 16 12 6 3 6 6 3 5 7 6 2 2 4 7 10 12 13 14 13 13 12 12 12 12 12 12 11 13 15 14 15 16 17 16 17 17 15 13 10 12
16 14 15 13 15 7 23 20 11 14 12 8 2 8 6 5 4 5 4 1 1 4 9 13 13 13 12 12 13 13 13 12 11 11 10 11 16 16 16 17 17 18 16 16 16 15 14 12 13
21 19 13 12 8 15 19 17 16 13 13 7 3 5 4 10 7 6 8 5 5 8 11 13 12 11 11 12 13 13 13 13 12 12 11 11 13 14 12 15 14 15 14 14 13 11 11 10 11
17 9 8 12 17 17 24 21 13 13 12 10 6 11 4 6 9 6 8 7 8 11 13 12 11 11 11 12 12 12 12 11 11 11 9 10 9 14 14 13 12 12 12 10 11 10 9 10 8
18 9 8 6 14 20 21 15 11 20 14 9 8 9 8 5 9 9 5 6 10 14 12 13 12 11 11 11 11 11 10 10 9 10 7 7 7 10 12 10 8 9 10 9 7 8 8 7 8
19 13 6 5 13 20 26 18 17 17 18 8 9 6 7 6 7 9 9 10 14 13 13 14 13 10 10 10 9 8 9 9 8 8 7 5 6 7 6 6 7 8 7 7 6 8 8 9 9
20 19 14 13 15 16 25 17 10 23 20 10 6 5 3 4 4 4 9 13 16 13 15 14 12 11 9 9 8 7 7 8 8 8 5 3 4 4 5 5 7 8 7 8 9 8 7 8 8
21 23 22 15 10 17 24 19 13 24 17 10 4 4 0 4 7 8 13 11 13 12 12 11 9 10 10 9 8 7 6 6 7 5 4 2 3 3 4 5 6 7 9 11 11 11 11 11 10
24 18 17 12 20 15 15 14 15 23 20 13 5 3 2 5 7 9 9 13 13 15 13 10 8 7 6 7 6 5 5 6 5 5 3 1 3 3 4 5 6 7 9 10 10 11 11 12 10
19 18 16 13 14 18 18 13 14 19 26 24 8 3 3 5 8 8 8 9 9 9 8 7 5 2 4 3 2 4 4 6 5 4 2 0 2 3 4 6 10 12 12 11 11 11 11 12 11
20 21 16 10 19 27 22 17 13 18 13 13 9 3 3 6 7 9 9 10 9 7 7 6 6 4 3 3 3 3 5 5 5 4 2 3 3 5 8 12 14 14 14 13 12 11 13 12 13
23 18 20 16 28 31 21 16 19 13 16 23 9 2 5 5 7 8 8 8 8 7 7 6 5 4 5 5 4 3 4 4 4 3 3 4 7 9 12 14 16 14 14 13 13 12 11 13 13
25 24 20 26 24 32 26 18 17 15 18 12 9 4 6 8 9 7 8 10 9 10 9 8 7 8 8 7 6 6 6 7 5 4 5 8 10 13 16 17 15 13 12 13 13 13 14 15 15
27 22 23 27 19 24 23 20 21 22 19 13 9 10 6 8 8 10 9 9 9 10 9 9 10 10 9 9 10 9 9 10 8 7 8 11 14 16 16 12 9 10 12 13 14 16 16 17 19
23 27 29 31 25 27 24 32 27 24 28 20 18 18 11 8 10 7 10 14 15 13 13 12 11 11 12 11 12 11 13 12 12 11 12 14 12 11 10 9 8 10 12 14 17 18 20 20 19
27 31 34 37 28 32 30 28 30 32 24 23 23 16 24 10 10 13 12 17 17 17 18 19 17 16 16 16 16 16 16 15 14 14 13 13 11 9 9 9 9 10 10 15 15 17 22 23 23
33 37 40 47 46 44 34 37 29 16 25 30 26 29 31 28 10 10 13 14 16 17 16 16 18 21 20 20 18 19 18 17 17 16 13 11 8 8 5 5 6 7 12 17 18 21 25 26 30
30 38 45 49 48 48 39 45 31 20 15 27 29 36 28 38 21 7 11 16 14 15 13 14 16 21 24 24 23 20 20 19 19 16 12 7 6 3 6 4 4 8 12 18 18 22 23 22 28
33 36 31 44 45 48 47 43 24 26 22 27 31 32 33 22 18 10 13 12 16 15 12 9 8 16 20 20 22 24 23 22 18 13 5 1 2 1 4 5 7 12 15 15 19 22 19 22 28
36 31 35 38 47 52 44 48 37 23 26 33 34 33 34 41 34 14 19 19 20 17 14 11 7 9 9 11 15 18 21 20 15 8 3 5 1 8 7 4 5 8 14 17 20 23 24 28 31
38 40 43 39 42 45 46 47 36 29 22 36 37 32 35 33 32 29 23 26 23 24 22 13 10 10 10 9 9 11 15 14 11 5 9 4 3 4 6 6 8 13 16 21 22 23 26 28 34
37 40 42 49 42 47 48 40 33 31 23 36 26 27 29 34 32 32 28 30 24 31 23 12 12 8 10 10 7 6 5 7 6 7 11 6 6 7 11 10 11 14 18 26 27 28 28 31 33

GFSSGP_500_spd_027.txt.gz
Wind_Speed
3 2 5 4 7 5 6 9 8 9 15 15 13 16 14 13 12 14 10 18 16 15 14 12 11 11 10 8 8 7 7 6 6 7 9 10 10 11 10 8 7 6 7 8 8 8 7 8 8
6 7 11 10 16 16 10 15 15 13 11 10 13 10 12 15 15 15 13 14 14 14 14 12 12 11 11 9 7 6 6 5 7 8 9 10 10 10 7 6 5 5 6 6 7 6 4 4 4
7 7 12 17 18 18 11 12 13 12 10 7 4 10 6 11 13 15 14 13 14 13 12 11 11 11 10 8 7 5 4 5 6 9 10 9 10 9 7 6 6 6 6 5 5 4 2 2 4
11 10 14 16 18 17 19 21 15 13 10 8 6 11 9 8 16 19 14 14 11 10 10 10 10 9 8 6 5 5 5 5 5 9 8 8 9 9 7 7 8 8 8 6 6 5 3 3 3
12 14 10 15 17 15 13 10 14 14 7 9 6 13 9 8 14 19 16 13 11 9 8 8 9 8 7 7 6 6 6 5 6 8 8 10 10 8 7 7 8 9 10 9 10 9 7 6 6
8 10 9 14 16 15 15 11 9 11 8 8 5 14 9 11 17 18 15 10 7 9 9 9 9 9 9 8 8 7 7 9 10 11 12 11 10 9 9 9 9 10 11 12 10 9 10 9 9
5 8 9 9 16 18 13 15 13 11 9 8 3 12 14 9 12 16 12 7 6 6 11 10 10 10 10 9 10 10 10 11 12 12 14 13 12 11 12 12 12 14 14 17 16 17 16 15 12
13 9 12 10 14 16 15 15 11 12 9 6 5 4 12 10 8 11 8 5 4 7 10 11 11 11 12 12 13 13 14 13 12 13 13 14 13 15 15 17 20 18 19 20 18 17 18 17 12
5 8 12 13 13 15 17 18 22 14 8 6 5 5 6 11 9 9 7 4 4 7 9 11 12 13 14 13 13 12 14 15 15 16 16 16 17 18 17 18 19 18 17 18 16 17 17 15 15
19 14 13 11 14 20 21 19 25 21 10 7 3 4 6 7 8 8 6 2 4 9 10 11 13 14 14 14 13 13 13 15 16 16 15 18 16 17 17 16 15 15 15 14 14 15 15 14 14
20 14 11 9 9 18 19 16 18 18 20 14 5 1 8 9 11 10 7 4 5 13 14 13 12 14 15 14 13 12 13 14 14 14 15 13 14 16 14 14 14 14 14 13 14 14 13 12 11
20 17 10 7 3 11 13 18 12 12 13 10 6 3 2 8 12 14 13 8 10 15 15 13 13 14 15 14 14 14 13 15 13 11 13 13 13 12 12 11 12 12 12 11 13 14 15 15 15
20 16 7 5 5 3 7 14 13 11 14 13 6 4 2 5 9 8 9 8 13 17 16 15 14 14 13 13 13 13 12 13 13 12 12 12 10 10 9 10 10 9 11 11 11 13 13 14 13
23 20 11 9 11 6 1 13 16 12 9 19 14 6 3 2 7 8 8 9 16 16 16 17 16 14 13 12 12 14 13 11 11 11 11 9 8 9 6 8 9 10 10 11 12 11 11 10 10
20 15 14 12 9 2 6 15 18 13 12 12 18 10 7 2 9 9 9 13 17 17 17 15 15 14 13 12 11 12 13 11 10 9 8 8 7 7 4 7 8 8 9 10 9 10 10 8 8
24 19 18 13 10 6 5 13 16 13 13 13 15 9 9 2 7 10 10 15 17 17 17 15 13 12 12 12 11 11 12 12 10 8 7 6 7 6 5 7 6 9 10 11 10 11 12 10 9
27 18 16 14 15 11 4 10 12 14 15 15 8 5 7 3 6 9 12 15 16 18 16 14 12 12 11 11 11 9 9 9 8 7 8 6 5 3 4 5 9 13 14 12 12 10 10 10 8
18 17 17 18 18 17 10 5 8 10 10 7 8 6 6 5 8 11 13 15 14 15 13 13 12 11 10 9 8 7 6 6 7 6 5 4 4 1 2 5 9 13 12 11 11 11 11 10 10
16 21 22 23 23 15 13 9 8 5 11 3 2 6 6 7 7 9 11 15 15 13 12 11 11 10 8 8 8 9 10 8 7 7 6 4 3 0 5 9 12 11 9 9 10 9 8 9 10
25 24 24 26 26 22 22 15 8 6 7 9 7 5 4 8 9 8 10 11 11 13 12 11 10 9 9 9 7 8 9 9 9 6 4 3 1 3 8 10 12 7 6 7 9 11 13 13 15
27 26 26 26 30 31 28 22 11 9 12 9 9 8 4 5 10 12 10 10 12 10 10 11 11 11 9 9 8 7 8 8 7 5 5 5 6 7 11 12 10 7 7 8 10 11 14 17 17
31 24 31 32 35 37 32 28 22 11 10 9 15 13 7 4 7 12 13 10 9 11 11 11 10 9 8 8 10 9 8 8 8 8 7 6 6 9 11 9 9 9 9 8 7 12 13 15 15
20 31 31 35 41 40 36 36 30 21 16 17 15 12 7 6 4 8 12 13 10 9 9 10 10 9 8 9 10 9 10 10 9 9 8 8 9 11 9 9 10 11 10 6 9 12 12 15 13
21 33 35 39 43 49 34 37 26 21 13 17 18 10 8 8 6 3 6 9 8 7 9 9 10 12 11 10 10 10 11 11 11 11 10 10 11 12 11 11 10 8 6 8 9 12 15 14 10
30 39 44 49 52 42 36 41 19 25 18 15 16 12 12 12 6 4 7 13 12 12 12 13 13 14 16 16 14 14 13 11 14 13 12 12 12 14 13 12 8 6 6 7 10 12 11 14 16
29 35 47 50 50 41 38 38 19 24 22 25 22 16 12 17 11 11 11 16 16 14 10 9 9 9 13 16 18 18 16 14 16 15 15 13 15 16 15 11 6 8 9 10 9 12 12 14 16
31 40 32 45 47 49 44 33 27 30 30 26 26 26 17 11 5 4 2 5 9 10 5 6 6 6 9 14 19 19 20 18 18 18 18 17 17 17 15 9 7 9 8 8 9 10 11 10 13
41 30 38 44 49 48 42 34 28 28 30 26 30 25 21 16 12 7 3 5 10 8 10 7 7 7 9 9 13 18 22 22 23 21 19 19 17 16 15 10 7 7 7 8 6 7 9 10 13
42 43 42 44 47 46 38 30 27 27 29 32 29 25 24 21 14 9 10 9 10 12 15 11 9 9 10 12 13 13 15 20 22 19 20 19 18 18 13 9 7 7 9 8 4 6 10 11 11
48 47 47 48 40 37 36 39 22 24 31 33 35 33 30 25 20 18 16 16 18 15 15 16 11 12 13 15 14 14 14 15 18 21 21 20 21 19 14 9 7 7 8 8 10 8 10 13 15

GFSSGP_500_spd_030.txt.gz
Wind_Speed
3 5 6 9 6 2 14 10 13 15 16 21 19 15 13 13 15 15 22 19 15 14 12 9 10 9 8 8 8 10 8 9 8 8 10 12 12 11 10 12 12 9 8 7 9 10 10 11 10
7 11 3 5 11 15 17 15 12 15 14 12 14 14 12 15 17 18 20 14 15 14 12 10 9 9 8 8 9 9 9 9 7 10 13 14 12 12 12 12 11 10 9 7 6 8 7 5 6
14 10 12 12 11 14 12 12 14 12 11 9 9 11 6 11 14 16 17 13 12 13 12 8 8 8 8 8 9 8 8 8 9 13 15 13 13 13 13 12 10 10 11 8 6 5 3 2 3
12 10 17 15 11 17 13 13 15 15 13 10 10 13 10 7 15 15 16 15 11 9 10 8 8 8 7 8 9 8 8 9 11 14 12 12 12 13 12 12 12 13 12 10 8 6 5 4 6
15 10 15 15 10 7 6 13 13 14 10 10 8 14 12 11 15 16 15 12 9 8 8 8 8 8 8 9 9 9 9 11 12 13 12 12 12 11 11 11 12 13 12 12 11 11 10 9 7
11 14 22 19 14 8 7 8 9 11 13 11 11 16 14 10 11 13 11 8 4 6 9 8 8 8 9 9 9 11 12 13 15 14 12 12 12 11 11 11 13 14 15 15 15 14 11 10 10
7 9 21 19 15 12 8 7 12 12 14 12 5 11 17 10 8 12 9 6 3 5 8 9 9 10 10 10 10 12 14 15 15 15 14 14 12 12 15 18 20 21 21 19 19 18 18 17 17
16 16 12 14 18 16 12 11 15 13 12 11 12 6 14 17 10 9 5 5 4 6 7 8 10 11 12 12 13 14 16 15 15 15 14 15 16 19 21 24 24 24 23 20 17 17 18 16 14
12 14 14 16 15 19 19 17 16 15 13 8 9 10 9 13 12 9 5 4 5 6 7 10 12 13 13 13 14 14 15 15 16 17 19 18 20 20 20 20 21 21 19 18 15 14 14 14 13
10 16 13 13 14 14 20 17 15 14 16 9 7 6 8 7 10 10 5 2 4 8 9 10 12 13 13 13 14 15 17 17 17 18 19 18 17 17 17 18 18 19 18 16 15 14 13 13 13
16 17 13 13 13 13 14 19 16 15 17 14 6 2 7 9 8 9 7 3 1 8 12 12 12 13 14 14 15 15 16 15 15 16 14 17 14 15 16 16 16 17 16 15 15 13 11 12 13
17 13 15 14 15 12 9 11 18 19 20 19 10 2 2 8 13 13 12 8 6 11 14 13 14 13 13 13 15 16 16 17 14 14 15 15 13 12 13 14 14 14 14 13 13 12 12 12 13
21 17 16 10 8 11 12 9 15 20 18 20 16 8 2 4 8 7 5 7 7 14 14 14 15 15 13 13 14 15 15 15 14 14 12 12 10 10 13 13 13 13 12 11 10 10 10 9 10
25 23 17 5 9 8 15 15 13 20 17 15 15 16 8 2 6 6 9 10 13 13 14 16 16 15 14 13 13 13 13 14 13 13 12 9 7 10 12 11 11 11 11 11 10 10 8 8 7
25 19 16 9 3 10 12 14 12 15 18 15 10 8 6 1 9 9 11 14 17 16 15 16 17 16 14 13 12 11 11 12 12 10 8 7 8 9 10 10 10 10 10 10 10 9 7 5 5
26 22 15 9 7 11 13 13 15 13 16 17 8 6 4 4 8 9 10 15 16 16 16 16 15 15 14 13 13 12 10 10 10 9 7 7 7 9 9 7 9 11 10 8 7 7 5 3 3
29 22 17 16 12 8 12 15 17 16 15 15 12 7 2 6 10 9 12 16 18 18 15 15 15 14 14 13 14 13 11 9 9 9 8 7 5 8 6 6 8 9 9 7 7 7 7 6 5
24 21 20 18 15 7 13 15 19 18 14 11 7 7 3 4 9 12 16 18 16 17 16 12 11 13 13 12 12 13 11 10 9 10 7 6 4 3 3 5 8 10 8 8 8 8 8 9 9
22 24 27 20 18 10 11 17 19 17 14 11 3 4 4 4 8 11 15 17 18 16 12 12 12 11 12 12 11 9 9 8 8 7 6 4 2 1 2 5 9 10 8 8 10 11 12 11 12
25 24 26 24 23 16 15 20 14 14 12 10 9 4 6 6 9 10 13 13 14 17 15 12 10 11 10 10 9 9 8 7 7 5 3 1 1 4 6 8 10 9 8 8 9 9 12 14 16
24 24 26 24 27 23 19 20 16 14 9 11 13 12 10 11 9 11 12 17 16 13 9 9 9 9 8 8 7 8 9 8 7 5 5 5 4 5 8 10 10 10 9 9 8 10 13 13 16
24 21 29 30 31 33 29 25 22 18 15 16 17 17 14 13 13 12 13 11 12 12 11 9 8 8 8 9 9 8 8 8 8 8 7 6 6 7 9 11 11 10 9 10 8 11 11 13 15
19 26 28 32 36 35 36 31 26 26 20 21 20 20 18 14 12 13 15 14 14 11 11 13 13 12 11 11 11 10 10 10 9 9 9 8 8 9 11 11 11 10 9 8 8 10 11 14 11
23 31 34 37 41 45 32 32 27 25 17 21 25 20 19 18 16 11 11 10 11 12 11 10 10 11 11 12 13 14 13 10 11 10 11 9 9 12 12 13 10 9 5 7 8 11 12 10 12
29 37 42 47 47 36 33 37 16 18 20 23 20 18 14 14 15 14 10 6 3 7 8 8 9 12 14 15 16 16 17 14 13 11 11 12 11 12 14 15 12 7 5 6 8 9 9 10 10
28 36 43 42 38 33 39 24 11 19 22 28 30 25 25 22 18 16 11 8 9 7 6 5 8 13 15 18 19 21 19 16 16 13 13 13 13 13 16 16 14 7 6 8 7 9 9 8 8
33 35 31 41 41 41 37 23 26 21 25 30 29 22 26 24 19 11 12 10 5 4 5 3 4 8 10 13 18 19 19 19 18 18 16 16 15 16 17 16 13 9 6 8 8 9 7 8 8
40 31 38 43 44 39 34 26 19 18 20 27 27 25 26 23 24 22 14 13 9 8 12 8 5 6 8 7 9 16 19 21 22 22 19 19 19 19 17 17 15 11 8 9 11 11 6 6 8
40 42 42 43 43 39 36 24 20 15 18 28 30 24 26 31 29 24 19 14 13 15 14 11 11 11 8 8 8 9 13 19 23 24 24 25 24 21 18 18 17 13 10 10 12 11 10 8 9
45 45 46 47 38 35 34 23 18 11 16 25 30 30 30 27 25 27 25 22 20 19 19 13 14 13 11 12 10 10 12 15 17 19 23 27 24 23 21 20 18 14 12 11 11 12 14 14 12

GFSSGP_500_spd_036.txt.gz
Wind_Speed
1 1 3 2 11 12 14 11 12 15 15 15 14 12 14 14 17 13 15 15 13 11 9 8 10 9 11 12 14 13 14 14 14 14 13 13 14 15 16 14 13 12 13 12 12 11 9 9 8
1 4 6 13 14 13 12 14 16 15 15 12 12 11 12 13 17 17 21 17 12 16 9 9 8 9 11 11 12 13 13 14 14 13 13 14 14 14 15 14 13 11 11 10 9 7 7 5 5
8 13 13 14 13 13 14 17 17 14 14 14 13 10 13 17 17 20 22 14 11 11 10 8 8 8 9 12 13 13 12 14 14 15 14 15 15 14 13 13 11 11 10 9 7 5 4 3 4
9 14 14 11 12 11 11 13 14 14 15 13 12 11 13 16 16 13 15 15 9 9 8 7 8 7 10 12 12 12 12 13 14 15 17 17 16 14 12 12 12 11 11 9 8 7 7 6 6
12 14 15 12 9 9 10 8 10 11 10 10 11 14 14 13 12 14 15 12 10 8 7 7 7 9 11 12 12 11 12 14 16 17 17 17 16 15 13 13 14 13 12 10 10 10 11 10 9
13 12 15 8 8 7 7 8 8 9 11 11 13 17 13 10 11 12 11 9 6 7 9 9 9 10 11 13 13 12 14 16 18 18 17 16 16 15 15 16 16 15 15 16 16 16 15 15 15
13 12 12 10 8 7 9 10 12 12 13 12 10 16 18 14 12 11 8 7 7 6 9 11 11 11 11 13 14 15 16 18 19 20 19 20 20 20 20 21 20 19 19 17 14 14 14 15 16
14 10 7 5 6 7 8 10 13 13 13 14 12 13 16 16 13 11 9 8 9 8 8 10 11 11 12 14 15 16 18 19 21 23 24 23 22 21 21 20 18 17 16 14 13 13 14 14 14
18 13 10 7 7 8 7 8 11 14 14 15 15 15 14 14 13 10 8 7 9 9 9 10 11 13 15 16 17 17 19 20 22 24 23 21 21 20 18 17 15 15 15 13 13 13 13 13 14
20 17 13 11 8 8 10 9 10 13 15 16 15 18 15 12 12 9 7 7 9 10 11 12 12 14 15 17 17 18 20 21 21 22 20 18 18 17 16 15 14 13 13 14 14 14 12 12 14
19 18 16 12 9 8 10 12 12 15 16 15 16 16 18 14 12 10 7 6 8 10 12 13 13 13 15 18 19 20 22 21 20 19 17 16 15 15 14 13 13 12 11 12 12 13 12 12 12
20 17 14 13 12 11 9 9 14 16 15 16 16 18 18 18 16 14 11 7 6 11 14 14 14 14 17 19 20 19 21 19 18 16 15 14 14 13 12 11 10 8 8 8 8 8 9 10 9
20 20 17 13 12 12 10 9 11 15 17 17 16 16 17 17 16 13 10 9 6 13 14 15 15 16 17 18 18 17 18 15 17 15 13 12 12 12 11 10 10 8 6 4 5 5 7 6 7
23 24 21 17 11 11 10 9 10 11 13 13 13 13 15 18 18 16 15 15 12 15 15 17 15 15 16 17 17 17 17 16 16 13 12 11 10 10 10 9 7 6 5 5 3 4 4 3 2
24 24 26 21 11 13 13 11 10 8 7 8 9 10 13 17 17 20 19 19 18 19 16 17 16 16 17 17 17 16 16 15 14 12 11 10 10 9 8 6 5 4 4 4 5 3 3 5 5
28 25 25 25 12 17 14 11 10 8 7 8 7 7 12 16 19 17 18 18 20 19 17 16 16 16 16 16 16 16 15 14 13 12 10 11 10 9 5 4 4 8 8 8 6 5 5 4 5
28 26 27 26 15 17 17 15 15 12 10 9 7 7 11 16 16 16 17 19 20 20 19 18 16 16 15 15 15 14 14 13 11 11 10 8 8 7 3 3 6 8 8 8 7 6 6 7 7
25 28 29 28 19 17 22 19 17 16 16 15 13 12 13 17 18 19 19 21 21 20 21 18 17 16 15 14 14 14 13 13 12 11 10 8 7 4 2 4 7 8 6 6 5 6 7 7 9
26 26 28 29 27 23 22 23 22 24 19 17 15 14 14 16 16 16 20 22 22 21 17 16 15 14 14 15 16 15 13 13 12 11 10 9 7 4 2 5 7 5 4 5 5 5 6 6 10
26 23 27 32 32 26 25 25 25 25 18 21 18 17 19 18 17 18 19 21 23 21 19 17 17 16 15 15 13 11 11 11 12 12 10 7 5 3 4 7 9 6 4 5 4 4 6 9 12
27 28 28 33 35 31 28 25 30 27 25 21 21 20 19 21 20 19 22 23 24 22 20 19 18 18 14 13 12 11 11 12 15 12 10 7 4 1 4 6 7 5 5 4 4 5 7 11 12
32 29 34 37 40 35 32 30 25 31 29 26 20 18 19 20 22 20 21 22 23 22 22 22 20 17 15 13 13 14 14 14 13 10 10 9 6 2 3 5 6 5 5 3 3 4 8 10 11
26 35 36 37 39 39 39 37 34 37 37 27 21 21 20 21 23 22 23 23 24 23 21 20 19 19 18 17 16 14 12 13 13 15 14 11 9 6 4 2 4 5 7 4 3 5 7 10 9
31 38 37 38 39 46 35 37 41 39 35 29 28 24 22 24 22 24 26 25 24 23 21 19 18 18 17 18 18 16 16 15 15 16 15 13 11 10 8 5 4 5 5 4 4 5 7 9 8
34 40 42 45 47 44 34 37 26 46 36 33 30 25 25 26 25 25 25 24 22 19 19 18 18 17 16 17 17 18 18 17 17 17 16 15 14 14 11 9 7 6 5 5 3 1 5 8 8
34 37 42 46 41 39 37 35 25 32 40 37 35 28 29 28 28 26 24 24 23 22 19 17 17 18 18 19 20 21 20 18 19 18 18 17 16 15 14 13 11 11 7 7 4 2 4 6 7
33 39 32 41 42 35 29 27 27 25 39 41 35 31 28 30 29 25 27 27 25 23 21 20 19 20 20 21 23 23 23 21 20 20 21 19 18 18 18 16 14 14 11 9 7 4 2 3 3
40 31 39 42 43 38 29 25 15 17 35 41 36 31 25 29 29 28 28 25 22 20 21 23 23 19 20 20 19 21 24 26 25 24 22 21 21 21 21 21 17 16 16 12 11 7 4 3 3
48 46 42 38 35 32 27 20 15 19 28 35 33 33 26 28 25 21 21 20 21 21 22 22 19 14 12 9 12 15 17 20 24 24 24 24 24 24 23 24 23 19 19 17 13 11 6 5 4
47 44 42 41 33 31 25 18 20 20 26 36 38 36 34 31 29 30 29 28 25 24 25 22 20 17 13 12 11 12 15 15 16 20 25 26 25 27 26 28 27 24 21 21 17 14 10 8 7

GFSSGP_500_spd_039.txt.gz
Wind_Speed
2 2 3 4 7 7 7 8 7 8 8 9 10 12 10 11 9 16 11 16 17 13 10 11 10 12 12 12 12 12 12 13 14 13 13 13 13 12 12 11 11 12 11 11 11 10 9 9 8
0 3 6 9 9 7 1 8 10 10 10 10 8 10 7 11 9 11 12 14 10 12 8 8 9 10 11 11 11 11 12 13 12 11 11 12 12 12 12 11 10 10 9 8 7 7 7 6 5
8 9 16 13 8 9 9 10 10 10 9 9 9 8 9 10 8 15 12 9 13 6 7 8 8 9 10 11 11 11 12 12 11 12 12 12 12 11 11 11 10 9 7 6 5 4 5 4 4
7 11 15 10 6 12 13 10 9 7 9 8 9 9 10 13 13 17 11 10 10 9 6 7 8 8 10 11 10 11 13 13 13 14 15 13 13 12 11 10 9 8 8 8 8 8 7 7 7
8 10 10 9 8 9 11 10 11 10 10 9 9 10 11 12 11 15 14 8 9 5 6 6 7 9 9 10 10 12 13 13 14 15 14 14 13 13 12 11 10 10 11 11 13 13 13 13 12
15 15 11 19 3 5 7 8 9 10 12 10 11 13 13 11 9 12 10 8 6 7 8 7 9 9 9 10 12 13 15 15 15 15 14 14 14 14 14 13 14 14 15 16 16 15 15 15 16
15 12 14 15 3 5 7 7 10 11 11 10 10 14 15 11 11 11 9 8 7 8 9 9 10 10 10 12 15 15 16 16 15 16 16 16 17 18 18 19 19 16 15 13 14 13 14 14 14
15 15 10 7 4 12 5 7 10 11 12 12 12 15 14 14 12 11 9 8 10 9 9 9 10 11 12 15 17 17 18 18 19 20 21 20 20 19 18 17 17 15 13 12 11 12 14 14 14
12 13 12 6 10 10 6 9 10 12 13 13 14 11 15 14 12 10 8 8 11 11 10 10 10 12 15 16 17 18 20 21 22 21 20 20 18 16 16 15 14 13 12 12 11 12 14 13 14
10 13 20 11 10 2 12 6 9 12 13 15 14 14 13 13 12 10 9 9 11 11 11 11 12 14 16 18 18 19 22 22 21 19 19 13 15 15 13 14 13 13 13 11 12 15 13 13 14
13 16 15 19 11 6 10 6 10 13 15 14 13 14 15 14 14 11 9 8 9 11 13 13 13 15 17 18 18 20 22 20 18 17 16 15 14 13 11 10 10 12 6 12 12 13 9 12 12
19 15 11 17 8 13 5 6 6 11 16 16 15 16 15 17 16 13 9 7 10 12 14 14 13 15 17 18 19 20 20 18 16 15 14 13 12 10 10 8 7 9 7 7 8 8 8 8 10
20 20 19 13 11 11 9 12 1 12 16 18 18 17 17 15 15 12 10 9 10 13 14 15 16 17 18 18 18 19 17 16 14 12 11 11 10 8 8 6 6 5 6 7 7 7 7 6 6
23 22 19 16 16 14 11 7 8 9 14 16 16 17 18 19 17 17 17 15 10 14 16 17 17 19 19 18 16 17 14 14 12 10 9 9 9 8 7 4 3 5 5 2 4 6 6 5 5
29 24 21 18 16 14 13 12 10 12 10 11 12 14 16 20 20 21 20 20 14 17 17 18 18 19 19 17 16 15 14 13 10 9 7 7 7 7 5 4 5 4 3 3 3 3 4 4 5
29 28 28 24 17 12 13 8 10 12 10 11 12 11 14 18 23 23 19 19 18 19 18 19 18 19 19 18 16 15 15 12 11 8 7 7 6 5 3 5 6 5 5 5 6 4 4 6 5
33 28 27 28 24 16 18 11 11 16 14 12 13 12 13 17 20 19 18 19 19 20 19 20 18 19 19 17 16 15 15 13 11 9 8 7 5 4 1 5 6 5 4 6 7 7 7 8 9
32 29 23 25 27 22 24 16 10 16 16 16 13 12 12 15 17 19 20 20 21 20 20 21 20 19 18 16 16 16 15 13 11 10 9 7 5 3 1 5 5 4 2 5 7 6 8 7 9
28 26 26 21 22 23 25 18 15 18 21 19 17 15 14 16 18 19 20 22 21 20 20 20 19 18 18 18 17 17 15 12 10 10 9 8 6 3 1 4 3 3 4 5 6 8 9 8 8
32 31 29 29 30 24 23 27 22 21 23 23 21 17 16 18 19 19 19 22 22 22 21 19 19 20 20 19 18 16 13 11 11 11 11 9 6 3 1 3 2 3 3 4 6 7 7 9 10
33 28 27 31 26 33 26 25 24 23 27 23 22 19 19 17 18 19 21 22 23 22 21 21 21 22 20 19 17 15 14 14 15 14 11 9 7 5 1 3 3 4 5 4 5 7 8 10 11
36 30 32 29 31 32 33 28 27 27 26 25 24 21 19 20 20 20 21 23 24 23 22 23 24 23 21 19 18 17 16 14 12 10 10 11 9 6 1 2 4 4 5 5 5 6 7 8 10
32 35 37 38 34 33 33 32 24 24 26 29 27 24 20 21 20 20 22 24 26 26 22 21 22 21 21 21 19 18 15 14 14 15 15 12 10 7 3 2 3 4 4 3 4 5 6 7 8
30 39 39 41 42 45 39 35 31 30 25 28 27 24 22 21 22 23 25 26 25 24 23 22 21 20 19 19 18 17 17 16 15 17 17 14 11 10 7 5 5 5 4 1 3 3 3 5 5
39 39 43 43 46 48 36 39 34 28 29 27 28 27 27 23 26 26 26 26 25 23 20 19 19 18 19 18 17 17 17 17 17 16 15 15 14 13 11 8 7 8 6 3 2 2 1 3 4
39 37 40 44 44 37 36 34 32 29 28 31 30 28 29 27 27 26 26 26 25 25 23 22 21 19 19 19 18 18 17 16 16 17 17 17 16 14 13 12 10 10 9 7 5 5 4 1 1
40 42 30 31 23 27 26 28 29 28 35 36 34 34 30 28 27 27 26 27 25 24 22 21 20 19 17 17 18 18 18 18 19 20 20 19 17 16 15 15 13 12 13 11 8 7 7 5 4
45 34 40 41 33 26 26 23 25 24 31 32 36 38 34 31 24 28 29 29 27 25 23 21 20 19 20 20 19 20 20 21 22 22 21 22 22 20 18 18 16 15 16 14 13 9 10 8 6
46 48 42 36 37 26 22 19 21 26 15 30 35 37 37 30 22 27 29 30 30 27 25 23 23 22 18 17 18 16 17 18 18 21 24 25 25 22 20 21 19 18 18 18 16 14 12 12 10
46 47 41 41 35 36 20 15 28 21 23 30 37 40 38 32 25 25 28 31 29 25 25 24 24 20 18 15 12 11 10 9 12 14 16 20 23 24 24 22 22 21 21 21 19 17 15 14 13

GFSSGP_500_spd_042.txt.gz
Wind_Speed
3 4 5 5 5 6 5 5 0 5 4 6 5 9 7 5 2 8 13 16 15 12 14 13 11 11 11 12 11 11 11 11 11 10 10 10 12 12 13 13 13 12 11 11 10 9 9 8 7
2 3 7 7 4 7 2 5 2 3 5 4 4 8 6 8 6 6 13 11 13 9 11 11 9 10 11 12 11 10 11 10 10 9 9 9 11 11 11 10 9 9 8 7 7 7 8 7 7
4 7 11 2 14 13 1 5 5 4 5 4 3 6 4 6 3 7 9 9 11 5 8 7 9 9 11 11 10 10 10 10 9 9 9 9 10 11 10 9 8 7 7 7 8 8 9 8 7
7 12 10 7 12 3 3 3 4 4 4 3 4 4 5 5 6 13 9 9 5 3 4 6 7 9 11 11 10 10 10 11 11 11 10 11 12 11 10 10 9 10 10 10 11 11 11 10 9
12 10 10 17 10 8 4 3 6 7 4 6 5 4 7 7 9 11 6 6 6 4 4 4 7 9 9 9 9 10 11 11 12 12 13 13 14 13 12 12 13 13 13 13 14 14 14 13 14
10 10 9 7 12 5 3 8 8 9 8 9 8 7 9 9 8 9 7 5 4 4 4 6 8 9 8 9 10 12 12 12 12 13 14 15 15 15 15 16 17 17 16 15 15 15 14 15 17
15 10 4 21 8 5 5 4 9 9 10 10 11 11 12 10 7 10 8 6 5 5 6 8 9 9 8 11 13 13 13 12 12 15 17 18 19 19 18 18 16 14 14 14 14 14 16 17 18
17 5 16 21 10 1 7 7 12 8 12 11 10 10 11 11 10 10 8 7 6 7 7 8 9 10 10 13 14 15 14 13 17 20 21 22 22 19 17 16 14 13 16 15 15 16 15 17 17
10 7 8 7 11 5 13 8 4 6 10 12 11 11 10 11 10 9 8 7 7 9 8 9 10 11 13 15 16 16 16 18 21 22 20 19 18 17 14 13 12 13 15 14 14 13 14 16 19
14 13 13 18 7 6 16 10 8 9 11 10 12 11 9 11 12 10 7 8 8 9 9 9 10 12 14 17 18 18 19 18 20 23 14 13 16 15 13 13 12 14 13 16 14 12 15 16 17
13 10 12 4 11 4 4 11 10 8 11 8 10 9 9 9 10 8 6 5 8 10 11 11 12 14 16 18 19 20 20 14 16 20 18 22 11 8 9 12 11 11 13 14 14 9 13 13 16
14 10 9 12 10 15 21 4 4 8 7 9 11 11 10 11 12 10 6 6 7 9 11 13 13 16 17 18 21 21 19 13 10 10 13 14 10 9 3 6 9 10 13 14 11 10 10 12 13
16 15 17 4 2 16 6 8 7 6 11 8 12 13 13 12 12 11 8 7 6 10 12 12 15 17 18 19 19 20 18 14 12 8 7 8 11 7 9 10 11 10 13 12 10 10 11 11 11
18 19 20 4 15 12 8 9 4 16 3 9 12 13 14 15 14 12 11 11 7 11 12 12 16 18 18 19 19 17 16 14 12 9 7 7 8 7 7 7 9 11 8 5 8 7 8 7 7
22 27 21 15 16 14 9 9 13 7 8 10 9 11 13 15 16 17 15 14 10 13 13 13 16 18 18 18 18 15 14 12 10 9 7 6 5 5 6 6 8 7 6 6 5 6 7 6 7
26 31 29 24 18 16 8 6 17 16 13 15 11 10 12 14 18 19 17 16 16 13 15 15 16 18 18 17 16 15 14 11 8 6 5 5 3 4 3 2 7 10 11 9 9 7 6 6 8
32 29 28 18 22 15 8 11 14 21 22 15 13 9 11 14 16 17 17 16 18 16 16 17 16 17 17 17 16 15 13 11 8 6 5 4 2 2 4 6 3 9 9 8 7 7 7 7 9
29 31 24 19 22 20 16 10 15 15 24 22 16 11 11 13 15 16 16 17 20 19 18 19 18 18 17 16 16 15 13 11 8 6 5 4 2 2 4 6 7 8 8 5 6 8 9 9 9
27 28 27 20 24 28 22 17 22 15 18 23 22 15 13 13 12 14 15 18 21 22 19 20 19 18 17 16 16 15 13 10 8 7 5 4 3 2 4 7 9 8 6 5 7 9 10 9 9
32 27 23 21 24 22 24 26 16 15 15 22 29 26 14 11 12 13 15 17 20 22 22 21 21 20 20 19 18 15 13 11 9 8 7 5 3 3 4 5 4 5 5 6 7 9 9 9 10
33 32 28 23 25 28 19 26 25 26 15 21 27 22 16 10 11 13 13 16 20 20 20 22 22 23 22 20 17 16 14 13 12 10 7 6 5 3 4 4 3 5 5 5 7 7 8 10 10
39 29 32 30 30 30 25 26 25 24 38 29 30 25 22 12 13 14 14 16 19 20 21 23 24 25 24 20 19 19 18 15 11 8 8 9 7 4 2 2 3 4 5 4 5 6 7 5 6
36 35 36 38 31 29 33 32 29 25 24 30 32 22 24 17 14 14 16 17 21 23 22 23 24 23 22 22 22 19 16 14 12 13 13 11 8 5 3 1 2 4 3 2 2 4 5 3 4
25 34 32 36 33 45 40 31 29 32 27 25 32 23 16 25 12 16 18 17 19 21 20 20 21 21 22 22 20 17 16 14 14 15 13 10 8 6 5 5 4 3 4 2 2 1 2 2 2
35 37 38 40 48 49 40 42 39 26 25 25 28 26 24 24 19 18 19 16 20 21 20 18 19 19 19 19 17 16 16 14 14 14 12 11 10 9 8 7 7 7 7 6 5 3 1 1 1
40 40 45 47 45 38 38 40 35 34 30 25 25 26 23 28 25 18 19 19 21 22 22 22 19 18 19 17 16 15 14 13 13 13 13 11 10 10 10 8 8 8 7 7 6 6 5 5 4
43 45 35 32 28 27 29 29 23 27 39 34 31 30 30 31 29 15 19 19 22 22 21 21 20 19 17 16 16 14 13 13 14 16 16 15 13 13 12 11 10 10 9 8 8 8 8 8 7
45 34 39 40 33 30 23 25 22 23 33 39 34 33 33 34 31 12 15 20 23 23 24 22 20 17 18 17 16 15 15 14 15 16 16 17 18 18 15 16 14 13 12 10 9 9 10 10 10
47 44 41 37 36 28 20 19 17 22 20 33 33 42 38 34 34 23 13 20 24 23 24 22 21 19 19 18 15 13 14 14 11 11 13 16 19 21 18 19 18 17 15 13 11 11 11 12 12
49 48 43 43 40 33 24 14 23 27 27 24 28 34 33 39 38 28 15 21 26 26 24 22 22 21 18 16 15 13 8 5 5 5 6 8 10 12 16 15 19 17 17 17 15 14 12 13 12

GFSSGP_500_spd_045.txt.gz
Wind_Speed
3 5 5 4 10 9 10 9 2 4 6 2 2 5 3 1 3 8 16 17 9 10 10 9 9 10 10 10 11 11 12 11 10 10 10 11 13 14 14 13 13 12 11 9 8 9 8 7 6
2 5 7 2 3 12 9 10 6 5 6 6 4 3 4 8 11 13 14 13 8 8 10 8 9 9 11 9 11 12 11 10 10 9 10 11 12 12 12 11 10 10 8 7 8 8 8 7 6
3 8 7 2 9 13 5 7 7 5 6 4 2 2 2 5 9 10 11 12 8 7 9 8 8 9 10 9 11 12 10 10 9 9 11 12 12 12 11 10 10 9 8 9 10 10 9 8 7
10 11 9 1 13 11 11 6 6 7 3 4 1 1 1 3 7 10 9 13 5 5 5 6 8 10 9 9 10 11 10 11 10 11 12 13 14 13 12 11 12 11 12 13 14 14 14 11 9
12 10 12 12 20 8 8 6 2 2 2 3 4 2 1 3 5 9 5 7 6 3 4 6 9 9 9 8 10 11 10 12 11 13 14 15 15 15 14 14 15 15 16 14 14 15 14 15 13
9 6 12 7 9 10 11 9 5 1 1 3 5 3 4 4 6 7 2 5 3 2 4 6 9 9 8 8 10 10 11 13 14 16 17 15 16 17 17 18 17 16 15 15 16 15 16 17 19
7 14 15 22 17 13 3 8 6 5 5 4 5 3 5 5 6 6 4 3 2 3 5 7 8 9 7 8 12 11 13 14 17 18 18 19 19 19 19 19 17 14 14 16 16 17 19 20 21
14 7 17 10 16 24 9 7 6 7 2 5 4 2 5 7 5 6 4 3 2 5 7 8 8 9 9 11 12 12 14 17 19 19 21 21 18 18 15 18 17 16 15 15 14 15 19 21 22
12 4 6 6 16 9 3 5 2 3 7 4 4 6 5 5 6 5 4 3 3 6 7 8 9 10 11 11 13 15 20 21 20 20 19 17 16 14 18 18 17 18 15 14 15 15 17 19 22
12 10 11 10 4 11 13 5 7 2 3 4 4 5 5 5 6 5 4 4 6 6 7 8 10 12 12 13 16 22 24 21 21 19 14 13 14 14 16 16 18 16 14 13 15 15 17 17 19
12 4 10 9 7 6 9 3 1 7 1 4 4 4 3 4 4 4 3 2 4 7 8 9 12 13 13 14 20 23 23 18 19 14 11 13 14 16 15 13 17 13 12 13 12 13 15 15 18
14 14 9 15 8 12 7 10 6 9 6 0 2 3 5 6 6 5 3 3 4 6 7 10 13 15 14 17 21 21 23 11 15 16 8 9 12 14 12 11 14 10 10 10 12 10 12 12 13
19 13 5 11 12 12 8 8 13 6 9 5 1 3 6 7 6 6 5 3 3 7 9 10 14 15 16 17 21 18 17 15 14 13 9 11 12 16 11 11 9 8 6 8 9 8 9 8 8
18 15 9 8 15 5 4 10 9 6 7 8 6 7 6 8 9 9 8 6 4 8 10 10 15 16 17 17 19 17 14 12 12 11 9 7 15 13 12 10 10 6 8 7 6 9 9 9 9
23 19 15 18 9 4 13 11 12 7 8 12 9 7 8 7 9 11 11 9 7 9 10 12 15 16 17 17 17 17 15 11 10 8 8 12 12 13 13 11 10 8 10 9 10 9 10 9 10
26 25 27 18 25 11 12 8 11 9 1 9 7 5 4 7 12 11 10 11 12 9 13 14 17 17 17 18 16 15 12 10 8 7 7 9 10 11 10 7 9 10 11 10 10 9 8 9 10
31 28 27 26 18 13 15 15 14 16 12 8 5 4 3 3 7 10 10 11 14 14 15 16 18 17 17 18 16 15 12 8 7 6 7 8 8 11 10 9 8 8 9 9 9 10 12 12 12
30 31 26 27 24 23 20 10 11 16 16 7 15 5 7 5 5 8 13 12 14 18 18 18 18 17 16 16 16 15 12 9 7 6 6 7 7 7 7 6 7 7 6 7 11 13 12 9 9
31 32 27 25 27 18 17 13 16 19 26 15 24 2 8 11 11 4 9 15 19 20 19 19 18 18 16 17 16 15 13 10 8 6 5 4 6 6 8 7 7 8 10 11 12 14 11 10 11
35 33 26 21 23 21 25 17 19 27 23 25 31 9 5 9 10 7 6 12 19 20 20 20 20 21 19 18 18 15 13 9 8 8 7 5 5 6 6 7 4 6 8 11 12 12 12 12 12
38 33 23 26 20 28 29 18 27 31 29 33 30 17 3 7 9 5 7 12 18 19 18 19 22 22 22 20 18 16 14 12 11 8 7 6 6 6 5 6 5 6 7 9 9 9 9 9 9
34 31 26 29 27 35 36 33 31 27 32 30 33 17 7 7 7 2 7 11 16 20 20 20 21 22 21 20 19 18 17 14 10 9 8 6 6 5 4 4 5 6 7 7 6 5 6 5 6
29 34 32 34 36 24 30 24 18 22 28 28 26 22 18 13 7 8 9 11 16 18 18 19 22 21 19 19 19 17 14 12 12 12 11 7 6 4 3 1 3 4 4 4 3 3 2 2 3
29 37 40 43 43 45 38 30 29 24 29 27 23 25 17 10 14 10 11 12 15 18 17 17 18 20 20 19 18 16 14 13 12 11 9 8 8 6 4 2 1 3 4 3 4 3 3 2 1
34 38 41 51 56 52 41 40 29 33 28 25 25 31 19 12 10 11 10 12 16 18 17 16 16 17 18 17 16 15 14 13 12 11 9 8 7 6 4 3 2 2 4 4 4 5 4 4 2
37 36 41 49 54 44 49 51 45 37 33 26 29 31 23 20 13 12 10 13 16 17 18 16 17 17 17 17 16 13 11 11 10 10 10 10 9 6 6 6 5 3 3 4 5 6 6 7 7
39 45 40 41 43 52 52 45 43 34 34 33 33 32 33 21 22 9 8 13 17 18 18 19 18 20 20 18 16 13 11 11 11 11 11 10 11 11 10 9 9 9 7 6 6 6 8 8 9
45 34 41 41 41 43 39 35 30 33 39 41 34 39 20 28 27 3 9 12 17 19 20 19 19 19 19 18 16 15 14 13 13 13 14 15 15 14 14 14 12 12 12 10 9 7 7 10 10
48 44 40 37 39 34 27 24 13 10 11 18 39 30 25 31 32 8 9 9 14 18 19 21 20 19 17 17 16 14 13 11 11 14 15 17 17 16 14 16 12 12 12 12 11 12 11 10 13
44 47 40 43 38 36 27 23 17 15 23 19 21 40 31 28 31 18 12 11 13 14 18 20 20 20 20 19 17 14 10 11 10 9 8 7 8 7 11 14 13 11 12 13 14 15 16 13 14

GFSSGP_500_spd_048.txt.gz
Wind_Speed
4 5 5 6 7 11 10 10 3 15 19 1 2 6 5 5 12 13 16 12 9 8 6 5 6 8 8 9 11 11 11 11 10 10 10 11 11 12 14 13 12 10 8 7 6 6 5 5 4
5 7 4 5 8 13 12 6 6 10 6 4 8 5 9 7 10 15 15 8 7 6 5 6 7 9 8 9 11 11 10 11 11 11 10 11 12 12 11 10 9 7 6 5 4 4 3 2 4
6 7 5 8 12 11 9 9 8 8 6 6 8 7 6 6 9 11 16 9 6 5 5 5 8 9 8 10 12 11 10 11 12 11 11 12 11 11 10 9 8 7 7 6 6 6 6 4 3
10 10 2 1 21 18 13 14 12 8 9 8 6 5 4 9 10 11 8 12 4 3 5 4 9 9 9 10 12 11 10 11 11 11 13 13 12 12 11 11 11 11 12 12 12 11 10 7 4
11 12 6 12 16 12 16 12 7 4 4 4 2 2 3 5 6 11 9 10 6 4 4 6 8 9 9 10 11 11 11 11 11 13 14 14 14 15 14 14 15 15 14 13 12 12 13 12 8
10 11 10 8 11 10 11 17 4 3 3 2 1 1 2 4 11 8 4 7 4 5 5 8 9 9 9 9 11 11 11 12 14 15 15 15 15 16 17 16 16 15 15 15 16 16 19 17 15
11 3 14 19 9 5 10 12 4 7 4 4 2 1 3 2 1 3 3 5 4 4 7 8 8 8 9 9 11 12 13 16 17 18 18 18 18 16 14 16 15 15 16 16 18 20 22 23 23
10 2 3 17 18 9 9 8 12 8 5 4 3 1 4 0 2 2 4 2 3 5 7 8 8 8 10 12 12 13 18 19 19 20 20 18 16 13 14 15 16 15 15 16 19 20 21 21 22
15 3 3 5 15 10 11 10 6 4 7 4 3 1 1 2 2 3 3 2 3 5 7 8 8 9 11 12 12 17 22 23 23 21 19 16 15 13 14 14 15 14 18 18 17 17 19 19 21
14 12 6 13 7 13 10 5 9 3 4 4 1 0 2 3 2 3 2 3 5 7 8 7 8 11 12 13 16 22 25 23 22 19 17 15 13 15 14 14 11 15 16 17 17 16 17 16 16
15 14 8 15 10 12 8 9 5 8 5 2 2 2 6 7 5 5 2 1 5 7 8 8 10 12 14 17 19 23 23 22 18 15 15 15 12 12 13 10 10 14 13 15 13 14 14 12 13
17 15 10 13 3 6 9 12 9 11 8 1 3 3 5 8 7 5 4 3 4 5 8 10 12 14 15 19 20 22 23 17 19 14 9 11 9 10 11 12 8 10 12 11 11 11 11 11 7
18 19 12 18 12 9 8 3 17 5 10 6 2 4 4 6 7 5 3 3 3 6 9 11 14 14 17 20 18 19 14 16 13 13 13 10 9 10 8 8 7 5 8 8 9 9 9 9 6
21 21 21 22 8 8 7 7 11 5 5 10 8 4 4 5 7 8 7 4 3 7 8 12 14 15 18 21 19 16 17 15 13 13 10 11 10 10 10 8 9 9 8 7 10 10 9 8 8
27 27 25 22 13 10 8 9 8 7 5 8 8 5 4 1 5 9 9 6 4 9 10 12 14 16 18 18 19 19 18 18 14 11 11 10 12 12 12 11 12 12 10 10 11 7 3 5 6
31 28 24 26 21 13 19 9 7 8 1 3 5 4 4 1 3 5 9 10 8 10 12 11 15 16 17 17 18 17 16 19 13 11 10 8 11 11 10 11 10 10 8 9 8 7 8 8 8
35 27 23 23 22 23 19 15 10 11 4 2 6 3 3 1 2 3 8 14 15 13 14 13 16 18 18 17 16 16 15 15 13 12 11 10 10 8 9 10 8 9 9 9 8 8 11 10 10
32 30 28 22 21 21 18 14 15 9 10 2 1 2 1 1 2 6 11 15 17 16 16 16 19 18 17 17 16 15 13 13 12 12 11 10 10 8 7 10 10 11 11 9 10 10 11 11 13
37 35 32 23 23 18 14 16 13 9 7 2 3 1 7 5 2 5 10 16 20 20 18 18 19 19 19 17 17 15 13 12 11 9 9 8 9 9 7 10 11 10 10 12 11 10 11 15 15
41 38 32 26 28 24 22 22 18 15 7 6 6 14 6 4 4 6 7 13 20 24 22 22 21 20 19 19 17 15 13 11 10 9 9 8 7 7 8 8 10 10 10 11 11 11 11 15 15
40 40 31 27 29 30 29 30 29 26 24 14 3 7 7 7 5 6 10 11 18 24 22 22 23 21 20 18 15 14 13 11 10 8 7 8 7 5 6 6 7 7 8 8 9 11 9 12 10
37 31 34 28 38 39 38 32 40 34 28 21 9 5 3 11 10 5 12 14 17 22 23 22 22 20 19 17 16 15 16 12 9 8 8 8 8 5 5 3 4 5 4 7 9 8 9 8 7
27 35 40 31 43 41 40 31 29 35 36 14 10 1 2 8 12 7 12 14 17 20 20 21 21 21 19 17 17 17 14 10 10 10 8 9 9 6 4 4 1 4 5 5 5 7 6 6 6
33 38 44 39 48 52 42 39 33 43 27 16 11 6 3 4 9 8 8 14 16 17 19 18 19 19 19 19 19 17 14 12 11 9 8 9 8 7 4 1 1 2 4 4 5 5 5 5 5
41 42 51 52 60 58 46 43 38 37 28 21 8 6 7 4 8 5 4 10 14 16 16 18 17 18 20 20 19 17 15 14 12 10 9 9 8 6 5 2 1 3 5 5 4 4 3 3 4
43 47 53 59 59 55 40 51 36 32 24 15 15 12 16 13 11 3 6 13 15 17 17 17 17 19 21 21 19 17 15 14 13 11 10 10 9 8 6 4 2 2 3 4 4 5 5 4 3
42 49 44 54 56 52 50 48 38 42 36 35 33 35 35 20 10 10 6 13 17 19 19 18 17 19 22 22 20 17 16 15 14 13 12 11 10 8 7 7 7 5 6 7 7 7 7 8 8
47 41 41 48 53 59 52 48 44 38 33 33 34 30 24 26 21 9 4 14 20 21 22 20 18 20 22 22 20 18 18 17 15 14 13 13 13 12 12 12 12 10 9 9 10 10 11 10 10
53 50 45 40 47 50 49 45 38 33 29 30 36 34 27 24 21 14 8 9 18 21 21 20 19 19 18 19 20 19 18 18 16 15 14 14 15 15 17 16 16 15 13 11 12 13 12 12 11
49 52 45 44 48 45 40 31 35 25 35 44 43 42 36 27 20 19 15 14 15 20 21 19 20 20 21 22 20 20 20 16 15 13 13 13 15 16 19 20 18 17 16 13 15 14 14 15 13

GFSSGP_500_spd_051.txt.gz
Wind_Speed
4 3 3 3 4 8 12 5 3 11 4 4 6 3 3 5 16 10 9 8 6 5 4 4 3 4 6 7 9 9 9 8 9 8 10 11 11 11 11 10 10 9 6 4 4 5 5 3 2
5 4 6 6 8 10 10 8 6 6 5 5 9 5 5 10 15 13 11 6 5 3 2 3 4 5 7 9 9 9 9 8 8 8 9 9 9 9 9 9 8 5 4 4 4 4 3 2 1
4 6 6 8 14 14 13 12 12 9 7 6 7 9 6 9 12 14 11 8 3 1 2 4 5 6 8 9 10 10 9 8 8 8 8 8 7 7 7 7 6 6 6 6 6 6 5 2 2
5 7 7 14 16 15 14 15 15 11 10 8 6 5 7 8 11 13 11 8 4 1 2 4 6 7 9 10 10 10 9 9 8 8 9 9 8 9 8 8 9 9 10 10 9 6 6 4 4
10 9 3 9 15 15 17 11 13 12 9 7 8 5 5 6 6 8 9 7 6 4 3 6 6 8 9 10 10 10 10 9 9 10 11 10 9 10 12 12 11 10 12 12 12 9 11 11 11
13 13 15 14 12 6 12 11 7 9 7 6 6 6 6 7 11 7 7 7 5 6 6 7 8 8 9 10 10 10 9 10 13 12 13 13 12 13 14 12 12 13 13 14 16 18 18 20 19
9 3 9 13 10 9 10 10 5 6 8 8 8 8 9 9 9 6 5 5 4 4 8 8 8 9 10 10 11 10 11 14 14 15 15 16 14 15 13 12 13 13 14 17 19 21 24 22 18
11 5 3 10 10 10 9 15 9 6 9 9 9 7 9 9 3 2 5 2 3 5 7 8 8 10 11 11 10 12 15 17 17 18 18 17 16 15 12 11 11 12 15 18 20 21 21 21 16
11 7 6 11 4 11 13 12 5 1 7 11 8 4 4 11 8 3 2 1 3 5 7 8 9 11 13 11 12 16 19 21 20 18 17 16 16 15 14 13 12 13 14 16 15 17 18 18 19
16 14 3 13 21 10 16 7 7 4 6 7 7 7 6 10 10 5 2 2 5 7 8 7 10 13 13 12 18 20 22 21 18 17 17 16 15 15 13 13 11 12 12 13 14 15 15 12 14
18 14 11 12 14 11 7 8 9 7 6 8 9 11 13 11 9 4 2 1 5 7 9 9 10 13 14 18 21 23 21 19 17 16 16 17 14 11 9 12 12 10 9 10 10 11 11 12 11
17 16 13 14 18 16 12 13 10 12 7 8 9 10 15 12 10 6 5 4 5 6 7 11 12 14 17 21 22 22 18 16 16 14 13 11 13 11 10 11 11 7 7 6 8 7 8 8 6
18 19 13 14 17 19 14 10 12 10 13 12 7 6 14 14 10 8 5 4 3 6 8 13 15 15 21 22 22 18 18 16 13 13 12 10 9 9 9 10 8 5 5 5 7 9 5 7 9
23 23 20 12 16 15 17 15 12 10 10 14 10 6 11 16 14 11 8 6 4 6 9 15 16 17 21 22 22 17 15 14 13 13 13 9 9 9 10 11 8 6 4 5 9 10 8 8 6
29 27 23 17 20 13 15 15 8 10 10 9 7 9 9 11 14 13 12 9 7 10 10 15 17 19 21 22 18 20 17 16 14 13 10 8 12 12 12 13 11 8 4 4 6 7 5 5 5
32 30 22 23 26 14 15 14 11 14 11 7 5 8 9 11 13 15 14 13 9 10 12 15 17 20 22 19 19 20 18 17 16 14 11 8 8 12 11 9 7 6 4 6 9 9 8 8 8
38 29 24 27 32 24 21 15 12 13 9 7 8 6 5 6 8 10 14 15 15 13 14 16 18 21 22 20 18 18 17 14 13 13 10 9 9 8 8 9 7 6 7 8 11 12 11 11 8
33 29 28 28 28 30 26 19 17 17 14 9 9 6 4 2 5 10 15 16 18 16 18 19 21 22 23 21 19 17 16 14 12 10 9 9 6 6 8 10 10 7 9 12 13 12 15 13 10
37 35 31 29 31 27 26 28 20 19 18 12 8 8 4 3 1 8 16 19 21 20 18 20 21 20 21 21 19 17 14 13 12 12 9 9 7 7 7 7 11 12 10 13 13 14 14 14 12
39 40 33 29 31 26 29 28 23 21 14 16 9 9 6 2 5 3 12 18 21 24 23 24 25 22 22 23 23 20 17 16 12 10 8 10 8 7 7 8 10 12 12 12 12 12 12 14 13
40 40 35 27 34 32 32 29 36 28 25 23 18 13 8 6 9 5 7 16 21 24 23 24 24 24 22 20 20 18 16 14 13 12 10 10 9 6 7 8 9 10 11 11 11 9 11 11 10
40 31 34 35 37 40 37 39 39 31 25 19 21 14 13 5 6 7 2 10 18 24 26 25 25 25 23 21 20 21 21 16 13 11 11 10 8 6 5 8 7 7 9 10 9 8 9 9 9
27 32 38 40 39 42 43 43 39 34 26 20 24 16 12 9 5 3 3 8 17 25 24 24 24 24 23 23 23 21 17 14 13 11 10 10 6 5 3 5 6 6 7 7 6 7 7 7 8
36 37 41 45 45 53 45 49 41 39 24 21 23 19 15 12 10 7 1 9 14 22 23 23 26 24 24 22 21 20 17 15 12 10 11 9 7 4 3 3 5 5 6 5 4 4 4 5 6
46 46 47 52 58 60 45 53 42 37 26 29 22 21 18 13 12 6 7 11 14 20 22 22 24 25 23 23 21 18 16 15 13 10 9 9 7 3 2 1 1 1 2 3 3 3 4 4 5
53 51 56 58 59 58 47 58 46 39 34 30 26 26 21 16 10 8 2 6 16 20 22 23 23 25 24 22 21 18 16 15 14 13 12 9 8 8 6 5 4 3 2 4 5 6 6 6 6
53 57 50 53 57 56 53 53 38 42 37 35 32 38 30 20 17 10 7 7 15 19 22 22 22 25 26 26 22 18 16 14 14 16 14 13 11 10 9 8 8 8 6 6 7 7 8 8 7
53 51 51 55 58 61 55 55 41 42 40 38 33 41 34 23 23 21 14 9 13 20 24 25 22 23 26 26 22 20 19 17 17 16 15 14 13 12 12 12 12 12 10 9 9 10 9 8 8
58 57 56 49 55 57 49 49 37 38 39 35 26 23 27 21 21 20 17 10 9 22 23 24 21 23 25 25 25 23 18 16 16 15 13 13 13 14 16 16 16 14 14 13 13 13 11 10 9
60 60 57 56 56 58 51 47 41 43 39 37 30 24 22 26 25 21 24 17 12 19 23 23 22 20 21 24 24 22 20 18 17 16 16 15 16 16 18 17 17 16 16 16 17 13 13 12 11

GFSSGP_500_spd_054.txt.gz
Wind_Speed
2 0 3 4 4 4 11 2 3 12 9 8 9 6 4 4 12 15 10 8 6 3 5 5 5 5 6 8 8 9 10 10 11 11 12 13 12 12 11 9 8 6 5 6 5 4 4 4 4
3 4 2 1 2 7 9 3 9 9 5 8 8 7 4 8 11 14 12 7 5 3 4 5 5 6 8 10 10 9 10 10 11 11 11 12 10 10 8 7 6 6 5 5 5 4 2 3 2
5 4 4 5 6 6 10 7 9 12 10 9 8 8 8 10 8 11 9 8 4 3 3 5 5 6 9 11 11 10 10 11 11 12 11 9 8 7 8 8 9 9 8 8 6 4 3 3 3
7 3 3 12 10 11 9 10 9 10 10 11 10 6 7 9 11 11 8 6 4 3 3 5 6 7 9 10 10 10 11 11 11 12 12 11 9 10 10 11 13 13 11 10 9 6 6 5 6
6 2 3 9 14 16 10 9 7 9 10 11 10 8 7 8 7 9 6 5 3 3 3 6 7 7 9 10 10 10 10 10 11 12 12 12 12 12 13 14 14 14 14 14 11 9 10 10 14
5 5 8 13 9 10 12 9 5 6 7 9 9 11 9 10 11 7 4 4 3 3 5 7 8 7 9 10 10 10 10 11 12 12 12 15 15 14 14 15 15 16 16 18 17 18 21 21 18
6 9 9 8 9 10 13 11 9 6 7 7 10 11 10 12 11 7 6 4 2 3 6 9 8 8 10 10 10 11 12 13 13 13 15 17 15 15 15 14 14 16 17 17 20 21 21 19 16
9 6 6 13 11 12 15 10 18 5 8 10 12 13 14 13 8 3 5 3 2 5 6 9 8 9 11 11 10 12 14 14 15 16 17 15 15 15 14 13 13 16 19 20 21 20 18 18 16
10 4 4 10 11 8 13 14 11 4 8 10 13 11 7 16 10 6 5 4 5 7 8 9 9 10 12 11 13 14 16 16 17 17 17 15 15 15 14 14 15 14 14 15 15 17 18 18 16
14 14 4 12 13 15 12 10 10 8 10 8 10 14 14 11 16 10 7 6 7 9 9 8 10 12 12 13 16 18 18 16 17 17 17 16 15 13 13 13 15 13 12 12 11 13 15 16 16
16 15 9 12 15 10 13 9 11 9 9 10 12 15 21 11 15 9 7 5 7 9 10 10 10 12 13 18 21 21 19 17 16 17 16 14 13 13 12 10 12 11 10 8 9 10 11 13 14
18 15 14 14 15 12 17 13 10 11 7 8 15 16 20 15 13 12 10 10 9 9 9 12 12 13 17 21 22 20 17 18 17 16 14 13 13 11 10 10 9 11 7 5 6 6 10 10 9
17 19 18 16 17 13 13 15 12 13 15 13 15 15 16 19 15 12 10 9 9 9 12 14 14 16 20 24 21 18 15 14 15 14 13 11 10 9 9 8 7 6 7 6 6 8 11 10 10
23 24 20 19 21 18 21 16 13 13 14 16 15 18 19 19 18 15 13 10 9 9 13 16 16 20 22 24 20 21 15 17 15 14 13 11 10 10 9 9 7 7 8 6 7 8 7 8 8
27 23 21 18 16 18 18 12 15 11 13 12 14 15 17 18 19 17 17 13 11 12 14 17 19 22 23 23 17 20 15 15 16 13 13 12 10 10 10 10 8 9 8 7 7 9 8 9 10
29 28 22 22 19 19 15 19 18 15 12 12 11 12 13 15 18 19 17 14 10 13 16 17 21 23 23 21 18 21 19 16 15 15 13 9 6 8 7 7 7 7 8 10 12 11 12 9 10
38 27 24 25 24 22 20 22 15 17 12 8 10 12 11 10 12 18 18 18 13 16 16 18 21 24 23 18 17 17 19 17 14 13 13 12 9 6 8 4 7 10 12 12 12 11 10 7 8
36 26 27 26 24 23 20 23 21 18 12 10 11 12 11 10 9 13 19 19 18 16 18 20 23 25 23 20 18 16 15 16 14 12 11 12 9 8 8 7 10 12 12 13 16 15 11 12 10
34 33 32 27 26 25 25 24 20 19 17 13 16 14 10 9 7 9 13 18 22 18 19 21 23 24 23 21 19 19 15 14 14 13 11 10 11 10 9 7 10 11 11 15 17 15 14 12 14
35 37 36 33 33 33 31 33 27 23 21 20 20 16 14 10 9 9 10 16 22 22 21 21 24 24 24 23 22 20 17 15 12 11 10 10 10 11 10 10 10 11 11 12 15 16 15 13 12
39 37 37 32 38 36 34 34 40 34 31 29 25 23 19 14 11 10 10 15 20 25 23 23 24 27 25 24 21 18 15 14 12 10 9 10 10 10 9 10 9 10 11 11 13 14 13 11 12
42 34 34 38 41 41 38 36 34 36 34 29 28 21 21 16 13 10 12 12 18 27 26 26 27 27 26 22 18 18 20 17 13 12 12 11 10 9 8 8 8 7 8 8 10 11 11 10 11
33 36 39 41 46 43 45 45 41 38 37 25 24 22 24 21 14 11 11 14 20 25 27 27 28 26 25 24 23 22 20 14 14 12 13 14 11 9 8 7 7 7 6 5 7 9 8 9 10
38 43 43 47 49 56 47 50 46 41 29 26 28 23 21 19 18 13 11 13 14 24 31 28 28 28 25 24 23 22 19 17 17 16 15 14 12 8 7 6 6 6 6 5 2 5 6 5 7
49 48 49 51 58 59 49 53 44 39 37 33 28 23 19 19 19 15 11 11 13 17 26 25 26 25 25 24 24 22 19 19 19 16 15 14 13 9 6 6 5 3 4 5 5 6 5 5 5
55 54 56 57 57 55 52 62 48 34 37 38 34 29 29 27 20 12 13 13 14 20 23 24 24 25 26 24 24 23 20 21 19 17 18 16 14 11 8 5 4 2 1 3 5 6 7 6 5
61 59 54 55 55 55 58 57 44 37 42 37 37 38 33 32 27 22 13 15 16 19 22 23 26 27 27 27 27 25 22 21 18 19 19 16 14 13 9 7 5 4 4 4 4 5 6 7 7
64 58 56 60 59 59 60 55 50 40 40 41 38 40 37 34 28 25 25 14 19 20 23 25 27 29 30 30 30 28 25 23 20 20 19 17 15 13 11 9 8 7 7 8 8 7 7 7 6
65 66 62 56 58 58 58 52 47 39 42 42 38 37 37 35 32 25 26 23 22 23 23 26 27 29 32 31 31 29 26 23 20 21 21 17 15 14 12 11 11 13 12 12 11 9 8 7 6
69 64 66 65 63 61 59 53 46 43 40 43 35 41 44 38 36 24 27 25 22 24 24 25 28 26 27 31 32 30 29 25 22 22 19 17 16 16 16 15 15 16 16 15 13 11 11 9 8

GFSSGP_500_spd_057.txt.gz
Wind_Speed
3 3 5 8 6 5 9 2 14 15 11 11 8 5 6 7 14 15 13 10 9 9 7 8 7 7 10 11 11 10 11 13 13 13 14 15 14 12 11 10 8 6 6 5 4 3 3 3 4
0 2 3 3 6 9 9 2 17 11 9 10 7 7 6 11 14 16 14 10 9 9 7 8 7 7 10 11 11 11 11 13 12 11 12 13 12 10 9 7 7 7 6 4 3 3 2 2 4
1 2 1 2 4 7 7 6 10 8 10 9 9 7 10 14 12 10 9 10 8 8 6 7 8 8 10 10 10 10 11 13 12 11 12 11 9 8 9 10 10 9 8 8 6 4 3 5 7
2 3 4 5 6 8 11 13 12 9 11 13 10 9 8 10 11 9 8 8 7 7 6 7 8 9 10 11 11 11 13 14 14 13 12 12 12 13 13 12 12 11 10 8 8 7 7 9 12
5 5 4 6 14 11 7 12 12 9 10 11 10 9 9 12 10 8 7 6 5 6 7 8 9 10 12 11 11 13 14 14 14 15 15 15 16 15 15 15 16 16 16 15 13 12 13 15 15
5 4 5 8 12 13 9 11 12 10 8 7 10 10 11 11 12 9 6 4 5 5 8 10 10 11 12 11 11 13 15 15 15 16 17 17 18 18 17 16 18 18 20 21 22 23 22 18 15
8 7 8 6 9 11 10 9 7 6 6 9 11 12 11 13 12 8 6 3 4 6 8 10 9 11 11 10 11 14 14 15 17 17 17 17 18 17 16 17 18 18 21 22 23 22 19 17 14
10 11 8 8 9 11 14 10 8 7 7 10 12 13 15 18 12 9 6 4 5 8 9 9 9 10 11 10 13 14 15 16 18 17 16 17 16 15 15 17 19 21 21 20 19 18 17 15 13
11 9 8 15 12 10 14 13 15 7 10 13 15 15 14 17 16 13 9 7 7 9 10 9 9 11 10 12 15 16 17 18 17 16 16 16 15 15 16 17 17 18 17 18 18 17 15 16 14
13 10 5 11 18 13 14 10 13 8 11 12 14 15 17 16 18 17 11 9 10 11 11 9 10 11 12 16 17 18 19 18 17 17 17 16 15 15 16 14 14 15 15 14 13 13 12 14 12
15 15 10 8 13 11 14 14 13 12 12 11 13 16 19 15 17 16 11 10 12 12 12 11 11 11 15 18 20 19 18 16 17 17 15 14 14 13 14 13 12 11 11 12 11 9 10 10 10
18 16 15 9 12 9 14 15 17 15 11 10 13 17 17 20 18 18 15 13 13 12 11 12 13 12 19 20 21 18 17 16 17 15 12 10 11 10 10 10 10 8 9 9 9 7 8 6 6
19 19 19 16 14 11 14 12 12 13 14 14 15 16 19 23 21 18 15 12 13 13 13 13 14 17 23 23 21 18 18 16 14 13 12 11 11 9 7 7 8 8 8 9 11 9 7 7 7
25 20 20 20 18 14 10 13 13 13 15 15 15 17 19 20 23 21 17 14 13 12 15 15 16 21 24 23 20 19 15 16 14 13 11 11 11 10 8 8 8 8 8 8 6 7 7 6 7
27 23 20 22 19 20 17 17 13 9 12 12 14 18 20 19 22 23 19 14 15 15 16 17 19 24 24 21 20 17 18 17 15 13 12 12 12 12 10 9 9 7 7 8 10 10 9 10 10
28 26 23 22 21 22 18 19 18 17 13 11 15 18 21 22 21 20 18 14 14 15 17 18 21 25 24 19 19 16 18 17 15 13 11 10 10 8 8 9 9 9 10 13 13 14 11 10 10
33 24 23 25 22 23 20 19 19 17 12 12 13 16 18 17 20 21 21 18 16 16 19 19 23 26 24 18 17 15 15 16 14 12 9 10 9 10 8 9 11 10 10 13 14 14 13 10 9
32 25 25 24 26 24 22 20 21 21 20 16 16 17 16 16 20 23 24 22 18 17 20 21 25 25 22 17 17 15 14 15 14 12 11 9 9 10 10 11 12 12 13 13 16 16 16 13 12
32 32 32 29 29 27 26 28 27 24 21 18 17 16 17 18 18 18 23 28 22 20 19 21 24 25 22 19 19 18 15 14 14 13 10 9 10 11 12 13 13 12 14 15 16 17 17 16 15
34 34 37 35 34 32 30 29 30 26 23 23 21 20 16 17 16 18 18 26 25 24 23 22 25 26 25 24 23 21 18 16 14 12 12 11 11 11 12 14 15 13 13 14 15 16 17 15 14
37 34 37 37 40 38 35 37 36 29 28 24 21 22 25 22 18 16 18 22 29 26 24 24 26 28 26 24 22 19 15 15 15 13 14 13 11 11 13 14 15 15 13 12 12 14 15 15 11
41 33 34 39 42 42 41 42 42 38 29 28 26 23 20 20 19 18 19 23 28 29 29 28 29 30 28 24 21 20 21 21 18 15 16 14 12 11 12 12 13 13 12 10 9 11 13 13 12
40 39 43 43 46 47 48 48 44 41 41 36 31 27 25 23 20 19 20 24 32 36 32 31 31 31 28 25 23 22 20 17 15 14 15 15 14 11 11 11 12 11 10 9 7 8 11 12 13
43 47 49 48 50 60 52 52 46 45 32 33 32 29 28 27 26 24 24 24 30 35 35 34 32 31 28 26 25 24 21 15 15 15 16 15 13 12 11 10 10 10 9 7 6 5 7 9 9
53 54 54 53 59 60 52 59 49 45 35 35 30 29 29 27 27 25 23 22 26 30 34 33 33 30 29 27 26 24 20 17 16 15 15 16 15 13 12 11 9 8 8 8 7 7 5 6 6
58 58 60 61 57 55 55 67 54 43 40 41 36 34 33 31 27 24 25 24 24 30 35 33 33 32 30 29 27 26 21 20 18 16 17 18 16 14 13 11 9 7 6 5 5 7 6 5 5
62 64 57 61 58 56 61 61 50 48 49 46 42 41 33 30 28 26 25 27 26 29 33 33 32 32 31 31 30 26 23 21 19 18 20 19 18 16 13 12 9 7 5 3 2 3 4 3 4
63 59 63 64 64 62 64 58 51 46 50 48 49 43 37 32 34 30 27 29 28 30 36 37 35 34 34 33 30 27 25 24 22 20 21 20 19 16 14 12 9 7 6 3 2 2 1 1 2
67 66 66 65 63 64 65 62 45 46 43 47 51 46 41 34 37 32 30 28 31 32 34 35 34 34 36 34 33 31 28 26 23 21 23 22 20 17 14 12 10 10 9 7 6 6 6 3 3
66 68 65 70 68 65 66 66 42 43 44 44 53 49 46 40 38 34 30 29 31 32 33 32 33 34 35 36 34 31 31 30 25 24 24 25 22 19 17 15 14 13 12 11 10 9 8 7 6

GFSSGP_500_spd_060.txt.gz
Wind_Speed
4 6 4 6 4 5 8 2 15 21 15 11 9 8 9 13 15 14 13 10 9 8 8 9 9 9 10 11 13 14 15 16 16 17 16 14 13 11 9 8 7 6 4 4 4 3 4 4 5
2 3 3 4 6 9 7 7 18 13 13 11 7 10 11 16 16 15 13 10 9 9 8 9 9 10 11 11 12 13 13 15 15 14 14 13 10 8 7 6 7 5 5 4 3 4 4 4 5
0 1 1 2 4 8 8 17 13 9 11 10 8 10 15 18 16 11 10 12 9 8 7 9 10 10 11 12 12 12 12 13 13 12 12 10 9 8 8 8 7 6 6 4 5 6 7 7 9
2 1 4 5 6 9 9 14 12 12 11 12 8 11 14 15 13 9 8 10 8 7 8 8 11 11 12 12 11 11 13 13 12 11 11 11 11 11 11 11 11 10 7 8 9 11 12 13 12
4 2 6 10 10 8 5 15 13 9 10 9 10 9 11 13 11 8 6 8 7 7 8 9 10 12 11 11 11 11 14 13 13 13 13 14 14 14 15 15 16 14 15 14 15 17 17 15 13
4 5 5 2 12 10 8 16 15 13 11 8 8 9 10 13 11 7 5 6 6 6 9 9 11 12 11 11 11 13 14 14 15 16 17 15 17 18 18 16 19 22 22 22 22 21 17 15 13
7 8 8 9 11 13 10 13 11 9 7 8 8 9 11 13 13 9 6 6 7 7 8 9 10 12 12 11 13 15 16 16 18 18 17 16 19 19 17 18 19 22 22 21 20 18 16 13 12
12 10 9 9 10 10 12 13 13 11 8 10 10 11 13 17 14 9 7 6 8 10 9 9 11 12 11 13 16 16 17 18 19 18 16 15 17 19 20 20 21 20 20 19 17 16 14 13 13
11 11 9 10 10 12 16 14 13 14 10 11 12 13 16 18 16 12 9 9 10 11 10 10 11 12 13 16 17 17 19 18 18 17 15 16 17 16 16 18 17 18 18 17 15 14 13 12 10
14 13 9 11 16 13 15 13 13 14 8 10 14 17 18 20 19 17 13 12 13 13 11 10 11 11 16 18 19 19 19 18 17 17 16 16 16 16 15 15 15 13 13 14 12 12 11 10 9
16 15 9 4 13 15 11 13 12 14 9 12 14 16 18 20 20 16 14 14 15 14 12 12 12 12 17 20 20 19 18 18 17 17 15 16 14 14 12 12 11 11 9 9 9 8 8 10 8
18 18 16 8 10 16 12 14 11 11 9 11 14 15 18 19 20 17 15 15 15 14 13 13 13 15 19 21 20 19 18 18 16 13 12 12 13 11 9 8 8 8 7 7 7 6 6 7 9
19 19 20 15 13 10 14 12 11 14 13 13 14 17 18 17 20 19 17 16 16 15 14 15 15 19 21 21 19 18 19 17 14 13 12 11 11 10 8 7 7 9 7 8 7 6 6 7 8
24 20 20 18 16 14 10 13 13 11 14 14 15 16 18 19 20 19 18 18 17 15 15 16 17 23 23 20 19 18 17 14 13 12 10 9 9 9 8 8 8 6 6 4 4 5 7 9 8
26 22 19 20 20 19 13 12 11 10 13 14 15 16 19 19 22 23 20 18 18 17 17 17 20 25 24 20 19 15 16 14 13 12 12 12 12 11 9 8 7 7 7 5 8 8 9 11 10
25 22 19 21 21 21 19 15 13 11 11 13 14 17 21 23 23 21 18 16 17 18 19 18 22 26 24 20 16 15 16 15 14 14 13 13 11 9 9 10 11 11 9 8 9 10 10 10 10
28 21 21 21 22 23 23 22 17 16 15 15 15 17 22 20 18 19 19 17 19 20 20 21 25 27 23 20 15 15 16 15 15 12 11 9 10 10 13 13 12 12 11 13 12 11 9 9 9
29 26 25 24 23 23 27 24 19 17 18 15 17 17 19 18 22 22 20 21 18 19 21 21 26 27 22 18 16 14 13 14 13 11 11 9 11 12 14 13 12 14 13 14 15 14 12 12 11
29 32 30 29 29 28 27 25 24 23 22 17 18 18 20 22 22 24 23 24 20 19 21 22 24 26 23 17 18 18 16 14 13 12 9 9 12 14 16 15 13 14 15 15 16 17 16 15 14
30 30 33 34 35 33 31 29 29 26 24 23 23 22 21 20 20 21 23 27 21 21 22 23 25 26 25 22 22 20 17 15 14 11 10 9 11 15 15 15 14 14 14 13 16 16 14 14 14
35 33 36 37 40 37 37 35 36 32 29 25 23 21 18 22 22 22 23 27 26 23 23 24 26 27 26 24 21 18 16 15 14 13 11 10 13 16 17 16 15 13 13 13 14 14 13 12 10
40 35 37 40 44 40 40 36 38 36 34 30 28 22 19 20 20 21 24 25 31 27 27 28 28 29 27 24 21 19 19 19 17 16 15 13 13 15 17 16 14 13 11 11 11 12 12 12 10
43 41 42 43 47 47 48 48 34 38 40 35 31 23 20 21 22 22 20 26 31 34 31 30 31 30 28 25 23 23 21 17 15 15 15 15 14 14 14 15 14 12 11 10 9 9 11 11 11
48 47 47 47 49 57 53 50 46 37 44 35 34 27 25 24 23 21 18 21 31 36 35 33 32 31 29 27 25 24 20 17 16 16 17 16 15 15 14 13 12 11 9 8 8 7 8 9 10
55 52 53 54 56 58 53 58 53 44 39 42 36 32 29 31 30 28 25 25 27 33 35 34 33 32 30 29 27 26 22 19 19 17 17 16 15 14 14 12 12 12 10 9 8 7 6 6 8
61 59 60 62 56 55 54 61 58 55 51 45 42 39 38 39 35 31 28 29 27 34 38 37 35 33 31 30 29 29 24 22 21 18 17 17 16 14 14 13 11 10 9 8 7 7 6 6 7
62 64 57 51 38 58 49 57 58 57 53 47 42 45 43 37 35 31 29 28 28 32 36 38 37 37 34 33 32 30 26 23 20 20 20 18 16 15 14 13 11 9 8 7 6 5 5 5 6
61 59 64 64 48 63 53 56 56 58 49 47 47 47 42 40 38 33 30 28 29 31 38 40 41 39 38 37 35 33 29 26 25 23 21 20 19 17 15 14 12 10 8 7 4 2 2 2 3
52 64 59 60 61 60 55 44 56 55 47 48 48 48 44 43 39 34 31 30 30 33 37 39 42 41 39 37 37 35 31 29 29 23 23 21 20 20 18 16 14 13 11 9 7 6 3 3 2
55 49 63 51 64 69 44 40 36 57 49 49 51 51 45 46 42 37 33 30 30 30 34 39 43 41 38 37 37 35 34 32 30 26 25 24 22 22 20 18 17 16 14 13 11 10 7 6 6

GFSSGP_500_spd_063.txt.gz
Wind_Speed
7 5 3 6 3 3 6 4 11 14 13 12 9 8 11 14 12 10 9 8 7 7 7 8 9 12 12 12 14 14 15 17 18 16 14 13 11 10 8 7 6 5 4 4 4 4 5 4 4
4 4 5 4 6 5 2 6 15 17 11 8 6 10 10 11 11 10 10 8 7 7 8 8 10 11 11 12 14 14 14 15 15 14 13 11 9 7 8 8 7 6 5 5 5 4 4 4 5
2 2 4 4 6 6 5 16 17 12 11 10 5 8 12 14 12 8 8 9 7 6 7 8 10 10 10 12 13 13 13 13 12 10 10 9 9 9 9 8 6 4 4 5 5 6 7 8 6
2 1 2 3 4 6 5 17 10 8 11 9 6 9 14 14 10 8 8 8 6 6 7 8 10 10 10 12 13 13 12 10 9 9 10 11 11 11 10 9 6 5 6 6 8 10 11 10 9
3 1 3 4 6 8 6 12 10 11 8 10 10 12 14 14 10 7 6 6 6 7 7 8 10 9 10 11 12 13 12 10 9 10 12 13 13 14 13 11 13 12 13 13 15 16 14 14 13
4 3 3 5 9 8 7 13 11 11 10 8 9 10 10 13 10 7 4 4 5 7 8 9 10 9 10 11 12 12 11 10 11 12 15 13 14 15 16 18 18 18 18 19 19 17 15 15 14
7 7 8 6 7 10 8 14 11 10 10 8 7 8 11 12 10 6 4 3 5 7 8 9 9 9 10 11 13 13 12 12 13 15 16 13 14 16 17 19 19 19 21 20 18 16 13 13 13
12 11 9 3 10 13 10 17 13 11 8 7 8 8 10 12 11 6 4 4 6 8 8 8 9 10 10 12 14 13 13 15 15 16 15 14 18 19 20 20 19 17 21 19 17 16 14 14 14
10 11 9 10 10 13 10 13 13 11 9 8 7 8 12 14 13 9 7 6 8 9 9 8 9 9 11 14 15 15 16 16 16 14 13 15 16 15 17 17 17 16 17 17 17 17 15 13 11
12 13 8 10 10 7 13 14 13 12 10 8 9 11 13 16 15 14 11 10 10 11 10 9 10 10 14 16 16 17 17 15 15 14 13 14 15 13 13 13 12 11 13 13 14 13 16 9 10
14 14 16 14 13 15 13 16 13 12 11 9 10 12 16 19 16 16 13 12 13 12 11 10 12 13 16 17 18 18 16 16 16 15 14 14 13 11 10 9 10 9 8 9 10 11 10 9 7
20 19 13 12 6 8 10 11 11 9 9 8 10 12 17 18 17 15 13 12 13 13 12 13 14 16 18 18 18 17 16 16 16 15 14 13 12 11 8 8 7 8 5 7 6 8 8 9 8
20 20 19 16 9 14 12 14 12 11 11 9 11 13 16 18 18 17 15 14 14 13 14 15 15 19 20 19 18 17 17 14 12 12 11 11 9 9 7 6 6 8 6 6 5 7 7 9 8
24 22 21 20 15 12 9 10 10 9 10 11 13 13 14 17 19 18 16 15 15 14 15 16 17 21 21 19 18 18 16 13 12 12 10 9 7 7 7 7 6 9 1 3 4 6 7 8 10
21 22 21 21 19 17 14 14 14 12 8 10 13 13 14 17 19 19 18 16 16 14 16 16 20 24 22 19 17 17 14 11 10 11 10 10 10 8 7 6 6 6 6 6 7 8 9 9 10
20 19 20 19 22 20 18 10 16 11 6 9 10 12 14 17 21 20 18 16 15 15 17 17 22 24 21 18 18 14 12 12 11 12 13 11 8 6 6 9 11 10 10 7 8 9 8 9 10
25 18 18 20 21 22 22 23 28 15 14 10 9 12 15 18 21 19 17 16 15 16 17 18 23 24 21 17 15 15 15 13 14 13 11 8 7 7 9 11 11 13 10 8 7 6 8 7 11
22 23 21 23 23 23 23 26 22 16 16 12 12 12 14 16 20 20 18 16 15 15 18 18 24 24 21 17 16 15 15 16 13 12 8 8 9 10 11 13 14 14 13 11 9 8 8 9 11
26 24 28 20 28 24 25 27 24 11 16 14 11 12 15 19 21 23 21 18 17 16 18 18 22 24 20 19 15 15 15 13 13 13 10 9 9 10 13 14 16 15 15 16 13 10 10 10 11
29 27 29 27 24 29 29 29 24 24 24 20 17 15 18 20 20 22 22 18 20 18 19 19 23 25 20 20 18 16 15 15 14 12 12 11 11 10 11 14 15 15 15 15 14 12 12 11 11
32 30 29 32 27 29 28 32 28 28 30 23 20 17 18 17 18 21 22 21 23 19 20 21 24 26 24 19 18 17 16 15 14 12 12 12 12 11 12 13 12 14 13 13 12 11 11 9 9
33 33 34 37 36 30 35 35 38 37 32 30 23 19 17 16 17 21 22 23 25 23 23 24 26 27 26 21 19 17 17 16 15 13 12 13 13 14 13 12 12 12 12 12 11 11 11 10 8
39 39 38 39 41 45 36 38 24 26 24 33 29 25 22 17 14 19 18 21 25 30 26 27 28 28 26 23 21 20 18 17 15 15 14 13 14 15 14 12 10 9 9 9 10 9 9 9 9
46 45 45 45 45 51 49 36 40 37 39 31 33 31 26 20 15 19 20 19 22 29 29 28 29 29 27 25 23 21 20 17 17 16 16 14 14 13 12 11 8 7 6 6 6 7 7 7 9
52 50 48 49 50 49 46 52 40 32 37 34 33 33 30 26 22 21 18 18 16 24 29 29 29 30 29 26 25 23 20 19 19 17 16 15 14 14 12 10 9 7 6 4 4 5 6 7 8
57 55 52 48 43 46 47 54 53 41 25 37 39 36 33 33 29 26 22 22 23 22 26 32 30 31 30 29 27 26 23 20 21 19 18 17 16 15 14 13 11 8 7 5 3 4 5 7 9
53 55 55 37 32 39 36 50 49 46 48 41 41 37 38 37 37 30 26 24 27 25 25 31 34 34 33 31 31 29 26 22 20 19 20 19 18 17 16 14 11 9 7 6 4 4 3 6 7
55 44 49 55 44 41 35 35 39 48 51 55 50 36 43 29 41 35 30 29 28 25 27 30 35 36 36 35 34 33 30 26 24 22 21 20 20 20 18 16 13 10 7 6 4 2 1 2 5
50 54 50 38 48 43 37 33 32 33 43 53 53 54 45 43 40 36 35 33 31 28 28 30 34 38 38 36 35 34 31 29 28 25 22 22 22 22 21 18 15 12 10 9 7 6 4 3 2
46 39 48 44 43 47 43 32 21 31 33 43 46 48 46 45 36 37 39 36 33 30 27 29 32 36 39 37 37 35 35 33 31 27 24 23 22 24 23 20 17 15 14 13 11 10 9 7 6

GFSSGP_500_spd_066.txt.gz
Wind_Speed
4 5 3 4 3 1 6 2 5 9 10 7 6 6 8 5 6 5 4 6 6 6 9 11 11 11 11 13 14 14 15 16 16 15 13 12 9 7 6 5 5 5 5 5 5 5 4 6 5
6 6 4 2 3 5 6 7 12 13 8 7 4 5 6 6 5 6 5 5 6 7 8 12 11 10 10 11 13 14 15 15 15 14 12 10 8 7 6 5 5 5 5 5 5 5 5 6 6
6 6 4 1 3 11 2 13 19 15 10 6 4 5 8 8 6 4 2 4 6 7 8 11 11 9 9 11 11 13 14 13 13 11 11 11 10 8 7 8 6 5 5 6 7 8 9 7 6
3 5 4 1 3 6 9 5 12 9 7 6 3 4 9 10 8 3 2 4 6 7 7 11 11 9 8 10 10 11 12 13 12 12 13 12 11 11 10 9 8 8 8 11 13 13 12 11 10
3 2 1 2 5 10 4 5 7 6 7 5 4 7 11 11 6 2 0 4 5 6 7 10 10 9 8 9 10 11 13 12 13 14 13 13 15 14 15 14 14 15 15 16 16 15 15 14 13
4 3 2 6 11 11 5 12 12 9 8 7 6 7 9 9 7 3 1 2 4 6 6 9 10 8 9 10 11 12 13 14 15 14 15 16 16 17 19 21 21 20 19 18 17 17 16 15 15
6 6 2 2 5 11 6 6 11 11 8 7 4 5 7 9 6 4 1 2 3 6 6 8 9 8 9 10 12 13 14 15 15 14 16 16 17 17 21 22 21 21 19 17 17 16 14 15 14
10 9 6 6 7 21 17 7 7 5 8 5 6 5 6 9 8 4 2 1 2 6 7 8 8 8 10 10 12 13 14 14 14 15 17 19 19 18 20 22 20 20 19 18 18 16 13 14 17
12 10 8 7 2 4 5 5 9 5 7 4 4 5 8 9 10 8 5 3 3 6 8 8 7 9 11 12 13 13 14 13 13 14 17 16 15 17 19 18 17 15 18 20 18 13 13 14 16
12 10 8 9 2 9 6 8 8 10 9 6 5 7 8 11 12 11 9 5 4 6 8 8 7 10 11 12 14 13 13 12 12 14 13 14 14 16 15 13 12 11 14 14 13 7 10 17 14
12 15 14 9 10 8 10 10 13 11 10 5 9 8 10 12 14 11 10 5 5 7 8 9 9 12 12 13 14 13 12 12 11 13 12 12 11 14 12 9 8 7 10 9 11 4 15 15 12
17 17 17 5 7 10 18 8 14 10 19 11 8 8 10 11 13 11 9 7 6 7 9 9 9 12 12 14 15 13 13 13 12 11 10 10 7 10 9 7 6 6 10 10 8 11 5 4 11
17 18 17 13 6 6 12 14 13 4 3 3 6 9 10 11 13 12 10 8 6 8 9 10 11 14 14 16 15 14 15 12 11 11 10 6 7 7 6 6 6 2 8 7 8 10 9 9 8
21 21 20 18 14 12 7 8 10 9 5 10 7 10 11 10 13 11 11 9 8 8 10 10 12 15 16 16 14 14 12 9 9 9 4 8 5 4 4 5 4 3 5 7 6 7 10 9 6
21 22 21 20 19 17 13 12 14 18 14 8 8 8 11 11 11 12 12 10 10 10 10 10 14 17 16 16 14 14 11 9 9 9 8 7 7 5 2 7 5 9 9 8 8 7 8 8 7
18 19 20 20 20 20 17 15 17 18 12 11 7 8 10 11 12 12 11 10 9 10 11 11 16 18 16 15 15 12 8 8 8 9 9 9 6 5 4 9 9 10 10 10 10 8 8 9 8
19 16 16 18 19 21 22 24 23 24 18 7 5 5 6 10 11 10 11 11 9 10 12 13 18 19 15 13 15 11 8 8 9 10 9 6 6 7 11 7 8 9 9 9 8 8 8 9 8
23 22 18 17 16 21 24 26 31 25 7 10 10 7 5 7 10 10 12 11 9 10 13 14 19 20 16 13 12 11 10 10 10 7 6 7 7 10 12 12 12 9 8 10 8 7 10 10 8
26 26 19 19 16 23 24 28 31 24 19 25 17 11 7 9 12 13 15 14 12 11 13 15 18 20 17 12 14 13 12 11 8 6 8 10 7 10 15 14 14 10 11 10 13 11 9 10 10
27 29 28 19 15 31 29 29 29 24 24 30 17 12 10 11 9 11 13 14 12 13 14 16 18 23 19 15 13 14 13 12 13 8 9 9 11 9 11 11 11 11 10 11 11 12 11 9 11
31 28 27 29 18 28 23 35 21 27 32 33 14 18 14 9 7 11 13 13 14 16 14 17 19 24 19 17 14 13 14 13 12 11 10 10 12 12 13 12 11 10 8 7 8 8 9 8 10
33 32 29 33 32 27 23 29 39 27 33 21 24 21 13 11 7 9 11 14 14 20 17 18 20 24 23 17 16 15 14 13 11 10 9 9 10 12 13 13 12 10 7 6 5 5 5 5 6
38 35 36 34 38 38 35 31 30 33 32 21 27 20 14 14 12 10 10 13 15 19 21 20 22 24 25 20 17 17 16 14 10 10 10 10 10 12 11 11 11 8 7 6 4 4 4 3 2
44 43 39 41 41 46 41 38 27 37 31 27 29 21 17 17 16 14 14 14 12 15 20 20 22 24 25 23 20 19 17 16 14 12 12 11 11 11 10 9 8 8 6 4 3 2 3 2 2
48 49 45 45 46 43 37 43 43 25 25 33 29 26 21 21 21 19 14 13 12 11 15 21 21 22 24 24 22 21 19 17 17 16 14 12 11 10 9 8 7 5 4 2 1 0 0 1 3
49 50 49 48 47 42 38 44 40 33 24 30 36 36 43 24 24 23 18 15 15 11 9 17 23 24 24 24 23 23 21 19 20 18 17 14 12 12 11 10 8 6 4 2 1 1 1 2 4
45 43 46 45 33 46 31 30 38 35 38 33 28 38 38 39 30 29 24 20 20 18 15 14 23 27 27 27 26 25 23 20 20 20 19 18 16 14 13 11 10 7 4 2 3 3 2 1 3
42 48 32 41 43 46 32 30 22 28 33 37 44 51 41 37 35 36 33 25 21 21 20 19 19 28 30 30 29 27 26 23 21 20 19 20 20 18 17 14 12 10 7 6 5 4 2 1 2
43 53 49 36 35 52 45 33 25 18 27 26 47 53 53 54 50 44 37 28 23 23 21 18 19 24 30 30 29 29 27 25 24 22 20 20 20 21 19 17 15 13 9 9 7 5 2 1 1
29 44 44 42 43 42 45 41 26 18 23 34 34 34 39 53 50 23 30 17 24 25 23 16 19 19 27 32 32 30 30 29 25 24 22 21 21 21 21 19 18 16 13 11 11 7 3 4 5

GFSSGP_500_spd_069.txt.gz
Wind_Speed
2 3 2 3 4 1 5 5 10 6 6 7 4 8 8 8 7 8 7 8 8 9 9 11 11 12 13 14 14 14 15 15 14 12 10 10 8 6 5 4 4 5 5 6 5 5 5 8 8
5 4 2 2 2 3 5 9 11 10 5 7 6 4 3 6 3 5 6 7 8 8 9 11 11 11 12 14 14 14 16 15 13 12 9 8 6 5 4 3 5 6 7 7 6 6 6 9 8
5 3 1 2 3 4 3 9 6 10 7 4 2 2 4 3 2 5 7 8 8 8 9 11 11 11 11 14 14 15 15 14 12 11 9 9 7 6 5 7 7 7 8 9 11 12 12 10 10
4 3 2 1 3 9 8 10 10 8 6 2 2 1 5 4 3 3 6 8 7 7 8 10 11 11 10 13 14 14 13 13 13 13 12 12 11 12 12 12 12 13 13 15 15 15 15 14 13
4 3 1 3 8 7 5 4 7 8 4 4 1 2 5 5 2 4 6 8 6 7 8 9 10 11 10 13 13 15 14 15 16 16 15 17 19 20 19 18 19 19 19 17 16 16 15 13 14
5 2 1 3 3 9 3 3 5 4 8 4 5 5 5 6 3 3 5 7 5 7 8 8 10 10 11 13 15 17 17 17 18 16 18 20 21 22 22 21 21 19 18 17 17 16 15 15 16
7 4 5 5 5 7 5 3 3 6 7 7 7 6 5 5 2 1 4 6 4 6 8 7 9 10 12 13 16 19 18 18 18 16 18 21 22 22 22 21 21 19 18 18 17 17 15 15 16
9 6 2 7 5 11 13 2 5 6 7 5 3 2 3 5 4 2 3 4 3 5 7 7 8 10 12 13 16 18 17 17 17 17 22 21 21 21 22 22 20 20 20 19 17 16 16 16 16
11 10 7 5 10 9 4 3 7 5 8 4 5 3 4 4 6 4 2 5 3 4 6 7 7 10 12 13 15 17 16 16 17 16 18 17 18 18 18 18 17 18 15 18 16 15 16 17 16
14 14 6 4 1 4 6 7 5 2 3 5 5 4 5 3 6 5 3 4 2 4 5 6 8 11 12 13 15 15 14 14 16 14 13 14 14 14 15 12 14 15 12 16 12 11 13 18 18
13 15 10 5 12 5 5 19 20 11 8 6 6 6 5 5 5 6 5 3 3 3 4 6 8 12 12 13 14 13 13 13 14 13 12 11 11 9 12 9 9 11 10 11 11 7 10 17 17
16 17 16 7 8 8 10 19 20 10 9 8 6 7 4 5 2 6 1 1 2 5 5 5 8 12 13 13 12 12 12 12 11 12 10 8 6 6 6 8 7 10 10 9 11 12 10 17 17
16 16 12 11 3 7 9 5 8 4 2 9 8 7 6 4 2 5 2 0 3 4 5 5 8 13 14 14 11 10 12 10 11 10 7 7 3 5 6 7 3 10 10 10 9 12 12 13 15
22 21 17 17 9 10 9 10 9 12 15 8 8 8 5 4 4 4 3 1 2 6 5 6 8 13 15 13 10 9 11 8 9 8 3 7 4 5 7 4 8 6 10 7 9 10 9 12 13
25 23 20 18 15 15 11 12 9 13 16 8 6 8 4 4 5 4 4 2 2 5 4 5 8 13 14 11 12 9 6 5 7 6 4 4 5 6 3 6 9 9 10 11 11 9 10 10 10
18 20 17 16 16 14 12 15 9 13 7 6 6 5 4 4 7 6 5 4 3 5 5 5 9 13 13 11 10 9 3 5 4 3 4 6 4 6 7 9 8 8 8 10 11 12 9 11 11
17 13 15 15 15 17 16 16 13 19 23 6 4 3 3 6 6 7 7 6 4 5 5 7 11 14 12 11 11 9 4 4 5 6 4 6 6 9 7 9 7 7 7 8 9 10 10 9 9
22 18 16 12 14 16 20 18 23 16 27 10 9 6 4 5 9 8 9 9 7 5 6 9 12 14 10 10 11 8 6 6 6 6 3 6 8 9 10 8 10 8 9 10 10 10 10 9 12
25 30 28 23 6 6 18 22 17 19 18 16 18 9 8 8 8 8 8 9 10 7 8 11 13 16 12 11 10 11 9 9 7 6 8 10 11 6 12 10 11 8 12 12 10 11 11 11 10
27 27 28 24 13 10 22 26 23 22 24 22 23 9 14 9 7 7 8 7 10 12 10 12 14 18 15 11 11 12 12 8 7 8 11 10 10 13 13 9 11 10 13 12 11 13 12 11 13
29 28 25 28 23 22 21 30 30 28 25 27 28 25 19 14 10 8 6 8 10 13 11 14 15 20 17 14 12 13 11 7 7 8 11 13 10 10 11 11 11 10 12 11 10 10 12 12 11
32 30 27 27 33 32 25 27 29 25 24 21 12 16 18 17 11 9 8 5 11 14 14 15 16 19 19 15 14 13 13 11 7 6 9 12 12 11 10 9 8 9 9 9 9 8 8 10 11
33 34 35 35 35 39 36 33 29 24 24 23 22 25 22 17 16 12 10 9 11 13 17 16 18 19 22 17 15 15 15 13 10 8 8 12 14 13 10 8 7 7 8 7 7 7 7 7 9
41 38 37 39 40 41 35 39 36 31 20 17 16 18 18 19 19 16 13 12 9 11 15 17 16 18 22 20 16 16 16 16 13 11 10 12 13 12 11 8 5 6 4 4 5 6 5 5 5
43 45 42 43 41 36 32 39 35 32 27 20 15 24 28 25 28 20 13 11 11 7 11 19 18 18 21 23 18 17 17 16 15 13 11 10 13 13 11 9 5 2 2 3 4 2 3 3 2
46 44 46 46 40 36 35 38 28 31 32 28 25 23 25 30 31 27 17 15 15 13 10 14 21 20 21 22 23 20 18 19 17 15 13 12 11 11 10 7 6 4 3 0 2 3 3 2 1
39 43 43 44 45 46 41 35 26 10 14 28 32 36 30 32 33 32 29 19 18 17 14 12 18 23 23 25 25 23 21 19 20 20 18 16 14 13 11 9 7 5 4 1 2 3 2 3 1
49 40 40 44 48 49 46 42 29 8 14 15 26 33 33 35 36 40 32 34 27 20 19 16 16 20 25 26 26 25 24 23 23 22 22 21 18 16 14 11 9 8 6 4 3 3 1 1 1
35 40 42 45 50 50 46 47 29 7 9 18 29 26 27 30 35 31 46 35 27 28 26 18 17 18 23 25 25 26 24 23 23 21 23 24 22 19 18 15 13 11 9 7 6 5 2 1 1
47 49 47 50 49 52 48 53 29 19 9 26 31 26 26 25 28 39 32 30 28 33 28 20 16 19 22 27 29 29 28 26 25 23 22 22 23 22 21 17 15 14 11 9 9 8 5 3 3

GFSSGP_500_spd_072.txt.gz
Wind_Speed
1 2 1 1 3 4 3 20 15 13 12 13 10 10 7 9 9 8 11 9 8 10 11 11 11 13 12 12 11 12 13 11 11 10 9 8 7 7 6 6 6 5 6 6 6 6 7 10 9
2 3 3 4 3 3 10 13 12 15 13 10 9 9 8 8 7 9 11 8 8 10 10 10 11 12 12 13 13 14 13 11 10 8 6 7 7 6 6 6 6 5 6 7 8 7 8 11 12
2 3 2 6 7 6 5 2 7 9 11 7 6 6 6 6 7 10 11 7 8 10 9 11 13 13 13 13 15 15 13 10 8 8 8 7 7 7 7 7 7 8 10 10 11 10 10 10 11
2 2 2 6 10 7 4 12 12 8 5 7 4 6 4 4 8 9 10 7 9 10 9 11 13 14 12 13 14 13 12 10 10 11 10 11 10 10 10 12 12 14 15 15 14 13 13 12 13
3 1 2 1 2 3 8 9 10 6 7 5 3 4 6 6 6 9 10 7 8 10 9 11 14 13 13 14 14 14 14 15 15 15 16 15 14 16 17 17 18 18 17 16 15 13 13 14 14
4 3 1 2 3 4 8 7 5 4 8 7 7 6 7 6 3 6 8 6 8 11 10 10 14 13 14 15 16 16 17 18 17 18 17 18 19 20 21 20 19 18 18 17 16 16 14 14 14
5 3 1 2 7 6 3 3 8 8 6 6 6 6 5 4 1 6 7 6 8 9 10 10 12 14 15 16 16 17 17 17 18 19 18 19 19 19 19 19 19 18 18 16 18 18 16 14 13
8 6 1 6 8 1 8 8 13 13 9 6 4 5 4 4 1 5 9 6 7 9 9 10 12 15 16 17 17 16 16 18 18 19 19 19 19 19 20 19 18 18 19 18 16 19 17 15 14
12 11 7 5 8 8 9 7 14 10 11 8 4 2 3 5 0 5 8 5 6 7 9 10 12 15 17 18 17 14 16 19 20 19 18 16 15 16 17 16 17 18 18 17 16 15 18 16 17
14 13 12 4 1 3 8 5 7 12 10 9 9 4 3 6 3 4 7 4 5 7 9 8 12 15 16 17 17 14 14 15 16 16 14 12 13 13 13 13 12 13 13 14 14 14 16 19 19
14 15 14 7 2 3 8 15 17 13 15 9 8 4 3 8 5 4 6 4 4 6 8 7 12 14 15 15 13 12 13 13 11 12 9 9 9 10 9 10 10 12 11 9 12 11 14 16 16
16 16 18 9 3 2 5 17 22 19 11 13 8 5 4 9 8 5 8 5 4 5 7 6 11 14 15 15 11 10 11 12 11 8 6 8 7 9 9 10 10 9 12 13 12 12 14 14 17
20 19 19 18 8 6 2 5 1 7 8 11 8 4 4 8 10 7 7 5 2 6 6 5 10 14 15 14 11 10 9 10 9 6 3 4 5 6 7 10 7 8 12 12 12 15 15 14 16
24 21 20 20 14 7 4 3 10 2 9 13 10 7 4 5 12 11 11 5 3 5 5 5 9 13 15 14 13 10 7 7 8 5 2 2 4 6 8 8 10 10 12 13 12 15 16 13 18
28 23 19 19 13 13 5 6 3 7 13 12 9 6 5 5 9 13 13 6 4 4 3 5 11 14 13 13 14 10 7 4 5 2 4 4 5 6 9 10 11 13 12 11 11 15 14 14 15
21 20 17 17 9 13 11 6 4 10 25 14 11 10 9 10 10 12 18 9 8 8 7 7 11 13 12 13 12 10 6 6 3 2 4 5 6 6 7 9 10 13 11 10 10 12 14 14 12
16 11 13 12 11 10 12 7 6 8 5 9 9 8 9 9 12 10 17 11 10 10 9 8 11 14 13 12 13 8 8 6 5 5 4 6 7 7 7 9 9 9 10 9 11 12 13 13 15
21 19 19 20 10 7 13 13 12 10 1 6 9 7 5 10 13 14 15 14 10 9 8 8 12 14 11 9 12 7 8 8 9 4 3 6 6 8 12 11 10 12 11 9 12 15 14 13 16
25 26 19 17 17 17 14 14 13 10 8 6 11 11 8 11 15 15 13 14 12 10 9 11 11 14 12 12 11 8 9 10 7 3 7 9 4 10 13 12 14 15 14 15 13 15 15 13 13
27 28 24 22 22 23 16 9 11 16 16 8 12 19 16 12 13 16 16 14 13 13 11 13 13 16 12 11 10 9 9 8 7 7 9 9 10 11 14 13 13 16 13 14 15 16 15 13 14
28 27 26 29 28 24 22 18 15 20 16 10 10 13 26 13 15 19 20 18 15 15 13 14 15 19 15 10 10 8 8 5 7 8 10 8 11 11 13 13 13 11 13 13 14 14 15 16 14
32 27 28 30 33 28 25 21 17 20 17 10 10 20 16 21 16 19 22 19 15 17 16 16 16 20 19 13 13 11 10 7 9 8 9 11 9 9 10 11 12 11 12 12 13 12 13 15 15
31 32 29 31 36 34 32 31 24 23 18 11 8 11 14 15 14 13 19 22 20 19 18 18 19 20 22 17 14 13 11 8 9 9 8 8 9 8 9 9 9 9 9 11 10 10 11 12 15
37 35 36 36 37 37 34 33 31 24 19 11 8 9 20 17 12 16 18 21 20 19 23 19 18 20 24 21 17 15 13 12 11 10 10 10 10 9 8 8 7 7 8 8 8 7 8 9 11
40 39 37 37 37 35 36 38 30 20 21 18 12 13 19 16 17 18 17 16 16 15 19 21 18 19 23 24 20 18 16 15 14 12 12 13 13 12 8 6 5 4 5 5 5 4 5 7 8
41 43 41 39 35 38 36 42 34 26 24 23 18 24 15 22 15 21 18 18 20 19 18 24 22 21 22 26 24 20 19 19 18 15 13 13 16 14 10 6 3 2 2 4 5 6 5 4 4
37 36 38 42 42 45 38 33 24 33 30 19 24 27 25 19 18 22 24 20 22 23 23 23 26 24 24 27 28 24 20 19 19 19 18 15 16 15 13 9 6 2 1 3 3 3 4 4 4
42 40 39 40 42 41 39 35 21 23 27 25 25 12 10 12 15 17 22 29 26 24 26 27 30 29 27 28 28 28 25 23 22 20 20 18 16 14 14 10 8 5 2 1 1 2 2 2 2
42 44 47 46 46 45 42 31 27 27 27 29 29 31 26 17 6 12 20 31 35 29 25 24 25 28 29 27 28 29 28 25 24 22 22 21 19 17 16 13 11 8 6 5 3 3 2 1 1
40 41 47 51 49 50 47 36 37 35 29 35 35 35 29 27 20 15 12 18 31 33 30 25 24 24 28 32 29 28 29 29 27 25 22 21 20 20 18 16 13 11 10 8 7 7 6 4 2

GFSSGP_500_spd_075.txt.gz
Wind_Speed
1 2 1 2 5 7 6 12 20 19 12 13 9 6 12 11 10 9 10 9 7 9 8 8 10 11 12 13 12 13 13 12 10 8 7 5 4 4 4 5 6 7 8 7 7 10 11 10 9
3 3 3 4 5 9 8 22 21 18 14 10 8 5 10 10 11 9 10 8 7 9 10 9 11 12 14 14 14 12 11 9 7 5 5 5 4 4 6 6 7 8 9 10 10 11 10 10 11
3 2 3 7 11 4 9 16 14 14 11 8 8 5 7 9 10 9 9 8 7 9 11 11 12 13 13 14 14 12 11 9 7 7 6 5 6 6 7 8 10 11 12 12 12 11 9 10 11
2 1 1 3 8 10 10 16 13 13 10 7 7 9 6 7 10 10 9 8 9 9 12 12 13 13 12 13 11 11 11 11 10 9 8 8 8 8 10 12 14 14 14 14 14 13 12 11 12
3 2 0 2 1 5 9 15 11 8 8 7 7 7 11 9 10 10 8 7 10 11 12 12 13 13 12 12 12 12 13 13 12 13 12 12 11 12 14 16 16 15 15 16 16 15 14 14 13
5 3 1 3 9 4 10 12 9 7 8 6 9 10 11 9 9 8 8 7 8 12 12 12 14 13 12 13 14 15 14 14 15 15 16 16 16 17 17 16 15 14 16 16 16 14 15 15 13
7 5 6 3 6 1 7 7 11 12 9 8 10 9 10 7 7 9 8 6 9 9 12 13 14 14 13 14 15 16 15 17 16 16 16 17 16 17 16 15 13 13 14 15 16 15 16 16 14
10 5 7 4 17 2 8 9 12 13 12 11 11 7 8 8 5 9 8 7 7 9 11 13 13 14 14 16 16 16 16 16 17 16 17 18 17 17 16 15 14 14 15 14 14 16 17 18 16
11 10 2 5 3 4 9 14 16 15 13 12 9 6 4 9 7 7 7 8 8 8 9 12 14 16 15 15 16 17 18 17 18 16 17 16 17 15 14 13 13 15 17 17 15 15 18 18 18
14 13 13 4 2 6 12 12 24 14 14 13 11 5 5 6 10 8 8 9 7 8 9 10 13 16 16 15 15 18 18 16 15 14 14 13 14 11 10 11 12 11 15 14 14 14 17 18 20
15 16 14 11 7 3 6 9 10 14 14 12 13 7 7 8 10 8 9 7 8 7 8 11 12 16 16 15 13 13 14 13 11 12 10 9 10 12 9 9 10 11 11 14 13 12 15 17 18
17 19 16 14 7 8 2 7 10 8 15 16 13 12 8 9 10 9 9 7 9 7 7 11 11 15 15 15 12 11 10 9 8 8 9 8 9 11 8 9 10 11 15 13 11 11 14 15 17
22 18 15 15 12 10 2 9 5 14 14 18 13 12 13 10 11 11 6 7 9 9 9 11 12 14 14 15 12 11 9 8 6 6 7 8 8 9 8 7 10 11 14 14 12 9 12 16 15
25 18 13 12 15 11 3 8 3 8 9 20 14 13 15 15 14 12 10 9 10 10 9 12 12 14 13 15 13 11 9 7 8 7 5 7 8 7 10 10 12 12 15 15 13 13 12 16 16
23 17 15 15 15 16 5 4 5 7 10 16 15 11 14 13 16 15 13 13 12 12 11 11 13 13 13 12 14 11 9 6 5 6 5 5 6 9 11 13 15 12 14 16 15 13 15 14 16
19 17 18 15 14 16 11 7 7 7 16 15 9 6 10 15 17 16 12 14 12 13 13 10 12 14 14 13 13 8 9 8 5 4 4 4 9 11 11 13 14 13 14 16 14 13 14 16 17
18 15 18 18 19 21 17 10 5 2 8 16 7 7 9 14 18 18 13 13 12 14 13 13 14 14 12 13 11 7 7 7 7 6 4 6 10 11 12 11 10 11 12 13 15 13 14 15 19
21 19 18 22 23 24 20 17 10 6 10 1 10 5 7 13 23 22 16 13 12 11 11 10 17 16 12 11 11 8 7 8 8 4 4 8 11 13 12 11 10 10 12 11 13 15 16 15 18
24 23 21 21 24 21 22 18 17 12 12 10 13 10 8 8 15 26 22 18 15 13 14 14 19 19 16 15 11 10 8 8 6 5 8 11 11 13 12 14 13 11 11 12 10 14 17 16 16
27 25 25 24 23 21 22 25 21 19 13 8 7 17 12 7 11 17 22 19 18 19 18 19 22 20 16 16 12 9 8 7 5 8 8 9 10 12 13 15 14 13 13 12 11 12 13 15 15
27 22 28 29 29 24 23 18 16 20 14 9 8 8 18 14 16 18 21 24 22 16 16 20 26 23 19 15 13 13 12 7 8 10 8 10 10 11 11 13 14 15 14 12 10 12 12 11 14
27 23 30 34 32 30 26 22 16 17 15 9 5 3 9 24 17 20 21 21 23 23 18 19 23 24 21 19 16 16 14 13 12 12 10 11 11 10 10 10 14 14 13 13 13 12 11 11 11
26 29 30 37 36 33 31 28 19 9 7 7 7 6 7 32 16 16 20 20 22 23 20 21 20 23 21 19 18 15 12 13 13 14 12 9 10 11 11 9 11 13 12 11 13 14 11 9 10
31 31 33 34 39 36 33 30 22 14 12 7 7 11 9 33 23 22 23 26 24 24 23 21 21 25 24 20 18 16 13 14 15 15 14 12 10 10 9 8 7 9 10 10 10 12 13 11 10
35 33 31 34 37 34 34 31 19 19 22 20 14 8 10 29 17 18 22 22 18 18 21 21 20 21 26 24 21 18 17 16 16 13 14 14 13 12 9 7 6 7 8 7 6 9 11 12 12
36 38 36 34 35 38 36 34 25 25 24 24 21 19 16 26 20 15 16 18 17 19 23 24 22 22 25 26 23 22 20 19 17 16 14 13 13 12 11 9 6 5 5 6 7 7 8 10 12
34 37 38 38 40 40 38 37 32 34 31 29 26 24 23 16 24 16 8 15 20 20 22 26 28 27 25 29 27 24 23 21 20 19 18 16 15 15 13 11 8 6 6 4 6 6 5 8 11
36 36 37 38 40 40 35 37 41 39 40 39 34 29 28 24 20 16 15 19 20 19 19 23 29 28 31 33 32 27 25 25 23 21 21 20 19 18 15 12 8 7 8 5 5 5 5 4 6
39 39 39 38 39 40 36 38 41 42 40 38 35 31 31 29 28 22 24 21 30 23 20 18 21 28 27 29 33 33 28 26 25 23 23 22 20 19 17 13 10 8 7 6 5 5 4 4 4
39 40 39 41 42 41 39 40 43 42 39 38 37 36 33 31 33 32 31 31 34 34 29 23 21 22 29 29 31 32 34 32 29 27 25 24 23 21 19 15 11 10 9 7 6 6 5 3 2

GFSSGP_500_spd_078.txt.gz
Wind_Speed
2 3 5 5 5 5 4 15 18 18 14 9 9 11 12 12 13 11 11 9 10 9 10 8 9 9 9 9 11 12 10 9 8 6 4 4 3 3 4 5 5 5 6 6 5 6 7 7 8
2 4 6 8 7 6 12 19 19 17 15 10 9 11 11 13 13 11 11 10 10 9 12 12 12 12 13 12 12 12 10 8 5 3 3 3 3 5 6 6 6 6 6 7 6 6 8 9 8
4 5 6 7 11 11 26 20 17 15 12 11 8 12 10 12 12 12 10 11 11 10 13 13 15 16 16 15 14 12 9 6 5 5 5 5 6 7 10 11 10 9 9 8 6 6 8 9 10
4 4 3 4 10 11 19 18 17 14 11 10 9 10 10 12 12 11 10 11 11 10 13 14 15 15 14 14 13 11 10 9 9 11 11 10 11 12 13 14 14 13 12 11 10 9 9 9 11
4 2 2 3 4 7 14 16 14 10 13 13 9 7 10 12 11 10 9 11 12 11 13 13 14 14 12 13 14 14 13 13 14 15 14 15 14 15 15 15 15 14 13 13 12 11 11 11 9
2 1 2 2 6 7 9 13 11 12 11 11 11 12 10 11 11 9 8 11 9 12 13 12 14 14 14 14 16 16 15 16 18 17 17 17 16 15 15 15 14 12 12 13 14 14 12 12 16
4 4 5 4 7 7 14 11 11 13 11 15 16 15 13 13 13 9 8 9 10 10 13 13 14 14 15 16 15 16 15 17 18 18 18 17 15 15 14 15 13 12 11 14 16 16 13 13 15
7 3 8 6 5 4 12 10 16 14 13 15 15 14 15 15 11 9 9 9 10 10 12 13 13 14 15 15 14 15 15 18 19 19 19 18 17 15 15 16 14 14 13 14 16 16 13 14 15
10 7 2 5 4 5 6 12 15 18 16 14 15 9 9 18 12 10 9 10 10 11 11 12 13 15 16 15 14 15 16 17 18 18 17 17 15 15 16 16 16 15 16 16 14 14 14 16 17
14 9 9 2 3 3 11 15 10 17 19 15 16 13 10 15 15 13 10 10 11 12 14 12 13 14 15 16 16 16 15 15 15 16 16 16 15 14 14 13 12 13 15 15 14 15 15 15 18
17 17 10 5 4 4 5 10 12 24 23 16 12 12 16 14 16 14 11 9 9 11 14 14 13 14 14 16 15 14 13 13 13 13 12 14 13 12 11 11 12 13 15 15 14 14 16 17 17
18 16 11 8 1 4 2 7 13 10 25 18 13 11 15 18 16 15 13 13 12 11 13 14 14 15 13 14 14 12 11 11 10 10 11 11 10 9 11 10 12 14 13 14 14 13 16 17 18
20 13 10 8 7 7 11 10 6 6 23 15 16 12 8 14 18 16 13 13 13 11 13 14 15 15 13 14 13 11 9 8 8 8 11 10 9 10 10 10 12 12 11 14 15 13 14 15 15
20 14 11 9 5 5 8 9 8 7 15 16 10 12 11 14 17 19 16 15 13 12 12 15 15 15 12 14 13 11 8 7 8 9 10 9 10 12 12 12 13 14 10 12 14 15 14 15 15
20 17 13 12 12 12 12 7 2 5 8 20 13 9 11 13 16 17 17 16 13 14 14 16 16 16 12 13 12 11 10 7 6 8 11 11 12 12 13 14 15 14 12 13 13 14 15 14 15
20 19 18 15 12 10 11 9 7 3 7 20 15 8 7 12 14 16 15 15 15 15 17 17 18 16 15 15 12 9 9 8 7 10 11 9 11 12 14 13 15 15 14 14 13 13 16 15 15
18 20 21 18 17 13 15 14 10 4 11 15 16 10 10 9 13 14 17 16 17 16 18 19 19 17 15 15 11 11 8 7 10 11 10 8 10 12 13 13 14 13 15 15 17 14 14 16 15
22 22 20 19 21 17 18 17 11 5 8 23 11 11 9 14 16 17 18 17 18 16 16 20 20 18 15 14 9 9 9 10 10 10 10 9 11 12 13 14 13 13 13 13 15 17 14 16 16
26 26 24 21 22 21 21 22 17 10 8 13 15 12 10 13 18 18 17 19 19 18 17 21 21 20 17 15 10 8 11 10 9 10 12 12 13 13 12 14 13 11 13 14 13 15 16 16 17
27 29 26 27 23 20 23 20 17 14 11 14 19 15 10 12 17 18 17 17 19 20 20 23 21 18 17 16 11 8 9 9 10 11 11 15 15 15 13 13 13 12 10 13 13 13 15 17 17
27 28 30 29 26 22 17 18 16 13 14 14 16 14 15 13 19 21 19 19 17 15 15 21 23 20 16 15 12 11 11 11 14 12 14 15 16 16 12 12 13 11 10 12 13 12 13 15 16
24 25 29 32 28 26 21 17 15 16 16 15 18 15 16 17 14 22 25 22 21 22 20 18 24 21 17 18 17 15 12 11 15 15 15 15 17 16 14 12 13 14 12 12 11 10 12 13 14
27 29 30 31 30 27 24 19 14 10 9 14 16 16 16 16 20 22 27 25 23 21 22 21 23 21 18 19 17 15 12 12 13 15 17 16 15 15 15 14 12 12 13 12 12 10 10 10 14
29 30 30 31 32 28 26 22 17 17 26 23 20 14 11 12 22 21 23 25 22 23 20 22 22 25 21 19 17 17 15 16 15 15 15 18 16 15 14 14 14 11 11 12 11 11 11 11 14
31 30 31 34 36 30 30 23 23 26 24 20 16 14 15 14 23 19 22 24 21 20 23 21 22 26 26 22 20 18 16 16 17 16 14 17 16 15 13 12 13 11 10 10 10 11 11 12 14
33 33 32 34 34 35 35 31 27 24 25 24 20 15 9 13 26 20 22 25 21 20 22 23 22 25 29 25 23 20 18 17 17 17 16 13 14 14 13 12 10 8 8 9 11 10 11 12 14
34 34 34 36 37 34 36 37 31 29 28 28 25 22 18 18 27 21 19 21 20 20 21 24 24 24 27 29 25 24 21 19 20 18 17 16 16 15 13 11 10 9 7 9 10 9 9 11 13
35 36 36 36 37 38 37 36 37 32 32 32 29 25 24 18 24 22 19 21 22 22 24 24 28 25 27 29 29 25 26 24 22 20 18 18 18 17 15 12 10 9 9 9 9 9 9 9 11
36 36 37 38 38 39 39 38 37 34 33 34 34 30 27 25 21 19 24 26 27 26 25 25 24 28 27 27 30 30 26 26 24 22 21 20 20 19 17 15 12 11 10 10 10 8 8 8 8
36 37 37 38 37 39 40 39 39 36 34 34 34 31 33 32 30 30 28 30 31 29 28 27 26 27 30 30 31 33 31 28 26 24 24 23 21 20 20 17 15 13 12 10 10 10 8 7 7

GFSSGP_500_spd_081.txt.gz
Wind_Speed
3 3 6 5 2 7 16 21 18 17 16 14 14 13 13 14 13 13 13 10 9 11 12 10 9 10 11 13 11 10 11 11 10 9 8 7 7 6 6 7 6 6 4 4 6 5 6 7 8
4 5 7 10 10 1 17 19 19 16 15 13 15 13 12 13 13 13 13 12 10 10 13 10 10 12 13 13 12 11 10 11 9 8 8 7 6 6 5 5 6 5 4 4 5 5 7 7 7
5 4 10 15 12 15 22 20 17 14 13 16 16 14 14 14 13 13 12 14 11 11 14 12 13 14 14 13 11 11 9 9 8 8 7 7 7 6 7 7 8 6 5 4 3 5 7 7 10
4 3 6 12 13 20 20 17 16 12 11 9 16 14 15 13 12 12 13 14 14 13 16 14 15 14 14 12 12 10 11 12 11 11 10 10 10 10 10 11 10 8 7 6 4 4 8 14 17
4 3 5 6 5 17 19 18 16 11 13 12 12 13 14 12 12 11 12 13 15 16 17 15 14 13 13 14 14 14 14 14 16 16 15 15 14 15 14 12 10 10 8 6 5 2 1 13 14
5 3 4 5 4 9 16 18 15 14 13 14 12 14 13 12 11 12 12 12 13 16 18 16 15 15 15 15 16 16 16 17 18 18 17 16 16 14 13 12 11 10 9 9 9 13 17 16 20
7 2 5 1 1 8 17 16 16 15 12 13 14 16 14 13 11 12 12 11 14 13 17 17 17 18 18 16 17 17 18 20 20 19 18 18 17 14 14 14 12 11 10 10 12 13 15 18 19
4 5 2 2 1 9 15 13 16 17 14 16 17 17 16 15 12 13 13 11 13 13 15 16 17 17 17 16 17 19 19 20 19 19 19 19 18 15 15 14 15 13 12 12 13 13 12 16 16
6 4 3 4 3 2 15 5 14 21 16 16 14 10 12 17 14 14 15 13 13 13 15 15 16 17 16 16 18 18 18 18 18 18 18 18 17 16 16 15 15 15 14 14 12 14 13 12 17
8 4 5 2 1 7 6 14 14 20 22 19 16 12 7 16 16 15 15 14 14 13 15 16 15 16 16 16 17 17 16 16 16 16 15 15 16 16 15 13 13 14 14 14 13 14 14 14 17
11 11 3 5 3 2 8 6 4 11 21 18 16 17 13 16 17 16 14 12 12 14 15 16 14 15 16 16 15 14 14 15 15 13 13 12 14 14 15 13 13 14 14 14 14 15 14 15 17
14 11 7 7 2 2 4 11 8 10 25 20 17 9 15 16 18 18 18 16 13 15 14 16 15 13 16 16 14 12 11 12 11 11 11 11 11 12 14 14 13 14 15 14 15 15 16 17 19
14 10 5 3 5 2 6 10 5 6 28 19 15 12 4 14 16 16 16 16 14 15 16 16 15 13 14 15 13 11 10 9 8 9 10 10 10 10 14 13 13 15 14 13 14 15 15 16 16
16 13 8 7 6 5 1 10 7 7 27 21 17 15 11 12 19 17 20 17 16 15 17 16 15 13 13 13 13 11 10 8 10 9 10 10 10 12 13 12 12 15 16 14 15 15 14 16 14
20 17 12 9 7 6 4 0 3 6 18 18 16 11 14 12 18 16 18 19 17 16 18 17 15 14 13 13 13 12 10 7 9 11 12 12 14 15 15 12 12 13 15 16 14 14 14 15 14
21 19 18 12 10 8 7 5 2 2 7 16 13 12 14 15 15 17 16 18 18 16 17 18 16 15 14 13 11 11 9 8 10 11 13 12 12 14 14 14 12 12 14 15 15 15 14 13 12
20 22 20 17 14 12 11 9 6 2 5 14 14 13 15 14 14 17 17 18 16 17 18 20 19 16 16 11 10 11 9 8 10 13 13 11 11 12 12 12 13 12 14 14 15 15 15 13 12
22 21 21 20 18 15 13 10 6 6 3 19 18 14 12 14 17 20 18 17 16 14 16 19 20 18 15 10 8 9 9 10 10 12 13 12 12 11 12 12 15 14 16 14 15 15 15 14 14
29 25 22 23 20 19 14 13 10 6 6 16 19 11 12 14 15 19 19 17 16 15 16 20 20 20 20 14 10 9 10 10 12 13 12 11 13 12 13 13 13 15 14 14 15 16 16 16 15
31 29 27 25 22 20 17 13 12 8 6 5 14 13 6 9 12 15 17 19 19 20 18 20 21 20 18 14 10 11 10 11 14 15 13 11 12 12 13 13 14 13 13 14 15 16 16 16 15
29 30 30 29 25 21 20 16 15 12 10 10 17 17 16 13 14 16 17 23 21 19 20 21 23 21 18 16 13 12 12 12 15 15 15 12 13 12 13 13 13 13 13 13 16 16 15 14 14
27 28 31 31 29 24 21 20 18 18 18 16 19 18 17 14 13 14 16 20 23 24 23 22 23 22 18 17 16 14 11 12 14 17 17 14 12 12 13 13 13 12 10 11 14 16 15 13 13
27 28 30 31 29 27 23 20 22 23 23 24 25 23 15 21 20 17 17 18 23 21 22 24 26 22 19 19 16 15 13 15 15 17 17 16 14 13 14 13 12 11 10 11 11 13 15 14 13
32 30 29 29 28 28 27 24 24 25 26 29 26 23 26 24 24 25 24 24 22 20 21 23 25 25 22 20 16 15 15 16 17 18 18 17 16 14 13 12 12 13 11 9 9 11 14 15 14
31 32 32 31 30 28 26 29 28 24 24 27 25 22 19 19 21 30 25 21 21 18 20 21 24 26 25 24 19 18 17 18 17 18 18 18 15 14 13 10 9 11 13 11 10 10 11 14 16
32 31 33 35 30 26 24 29 30 27 24 24 22 18 19 16 14 27 26 26 24 22 21 22 24 27 27 24 22 20 19 19 20 19 18 17 15 13 13 12 8 7 10 11 11 11 12 12 14
34 34 34 33 29 28 32 30 29 29 27 28 26 21 16 13 13 22 23 22 22 23 24 24 23 25 29 28 24 21 21 21 22 21 20 19 17 14 12 11 8 6 6 8 9 11 11 13 14
35 35 37 34 34 35 35 32 32 29 29 27 26 25 20 14 23 19 18 21 23 25 26 27 29 27 28 32 30 25 24 23 22 22 21 20 19 18 15 12 10 8 6 7 7 8 11 13 15
37 38 37 37 37 37 35 33 29 29 30 30 29 29 24 22 20 18 19 20 25 26 28 29 30 31 30 30 34 30 27 26 24 23 23 21 20 19 18 16 13 10 10 9 9 7 8 10 12
37 38 38 38 39 38 36 33 32 30 29 31 32 32 29 26 26 21 18 21 25 30 31 30 30 34 33 33 33 35 32 28 26 24 25 23 21 21 20 18 15 13 13 11 11 9 8 7 8

GFSSGP_500_spd_084.txt.gz
Wind_Speed
4 5 5 4 3 13 20 20 18 18 16 15 14 12 12 11 11 13 12 11 11 13 14 12 12 13 14 14 13 11 10 9 8 7 7 7 7 7 6 6 6 6 5 3 4 5 7 8 10
6 8 6 5 7 14 18 18 18 19 17 18 15 13 11 11 11 12 13 14 12 13 14 13 13 14 14 13 12 10 8 8 8 8 8 9 9 7 7 6 5 5 5 4 4 4 7 12 15
7 8 11 13 6 20 18 18 16 15 13 18 16 13 11 13 10 11 13 15 13 14 16 16 16 15 13 12 11 9 9 11 10 9 8 9 10 9 9 8 6 5 3 2 0 2 7 11 18
8 7 9 15 18 20 17 16 15 15 15 15 15 13 12 13 10 10 13 15 14 15 17 17 17 16 14 12 11 12 13 13 13 12 11 12 11 10 9 8 7 6 5 3 1 6 10 10 20
7 6 6 7 12 15 16 15 14 13 11 19 14 13 11 13 12 10 13 14 15 16 16 16 16 16 15 15 15 14 15 16 15 15 14 14 14 11 10 8 8 8 8 5 6 16 6 16 25
7 6 6 7 7 15 17 17 12 13 13 18 17 13 13 12 12 11 13 14 13 15 16 15 16 16 16 16 17 17 16 17 17 17 15 13 13 11 10 11 9 10 9 8 9 16 17 20 27
7 4 4 6 4 7 12 15 14 14 12 12 18 14 13 13 13 13 13 14 14 13 16 16 16 18 17 18 17 17 17 17 17 16 14 13 13 12 11 12 12 12 11 10 9 20 22 25 22
7 4 2 4 5 9 12 16 17 16 14 11 17 13 14 15 14 14 15 14 15 13 15 15 15 17 19 17 17 18 17 17 16 16 15 15 13 13 12 13 13 13 14 13 11 12 19 21 18
9 7 6 5 3 1 11 11 15 19 16 17 18 11 12 17 17 15 17 16 15 14 15 14 14 15 18 19 18 18 17 16 15 15 16 15 14 14 14 13 14 15 15 14 10 11 15 18 16
9 8 5 3 1 9 1 5 9 22 21 20 16 11 9 17 17 16 17 18 17 16 15 15 13 14 18 18 16 15 15 15 15 14 14 15 13 12 11 12 13 15 16 15 13 15 21 18 17
10 7 5 6 3 4 10 11 6 7 23 21 18 15 10 17 17 14 15 16 19 18 16 15 14 14 16 16 14 14 15 15 14 14 13 13 13 12 13 13 14 14 14 16 15 15 16 17 16
13 10 8 6 3 2 2 6 5 10 25 22 15 15 14 19 18 19 18 18 18 18 16 16 15 15 15 13 12 11 11 12 12 12 13 11 10 10 13 14 14 14 14 15 17 17 17 17 17
14 10 6 5 5 3 3 6 3 13 26 21 17 11 13 18 16 16 16 17 18 18 17 15 14 14 13 10 10 9 8 8 9 10 11 10 10 10 12 13 13 15 14 13 14 16 15 16 15
15 12 9 6 6 6 2 4 2 17 27 23 20 16 8 17 17 19 19 18 18 18 17 16 14 12 12 10 9 8 9 10 8 9 10 11 11 10 12 12 12 14 14 12 13 13 13 13 14
17 15 11 9 7 5 3 3 4 9 25 24 17 17 13 15 19 17 18 18 19 19 19 15 14 12 11 12 10 9 6 7 8 10 12 13 13 11 11 12 12 13 14 13 13 13 13 13 13
19 17 15 12 10 7 5 2 3 5 25 21 17 17 16 15 16 16 17 17 18 19 19 18 15 13 11 11 10 9 6 7 8 10 13 13 12 11 10 11 12 14 13 14 14 13 12 12 11
21 20 19 16 14 10 8 5 3 1 5 22 19 19 19 15 15 17 17 16 16 20 20 19 17 14 11 9 9 9 7 7 8 10 12 12 12 9 9 10 11 11 13 13 13 12 11 11 11
23 23 22 20 18 14 12 8 4 3 9 14 16 16 15 16 17 19 18 18 16 18 19 18 17 16 13 9 9 9 9 9 9 9 12 12 11 11 10 10 10 9 12 13 12 13 12 11 12
29 25 26 24 20 17 14 10 9 5 6 16 21 18 16 18 19 20 18 18 17 18 19 19 18 17 17 11 8 8 10 9 11 10 11 11 11 11 11 12 11 10 10 11 12 13 14 13 13
29 29 26 24 21 20 18 13 10 7 6 12 22 19 17 15 16 19 18 19 19 19 19 20 20 19 16 10 9 9 10 10 11 11 12 12 12 11 11 12 12 12 10 13 12 13 14 15 14
32 30 30 27 22 20 21 16 15 11 14 18 20 21 17 16 17 20 20 20 18 18 20 22 22 20 18 14 12 10 10 11 13 13 13 14 12 11 10 10 12 12 13 13 13 13 14 14 12
32 36 32 29 24 18 22 16 18 16 22 20 21 19 22 19 17 21 24 21 20 21 20 21 24 21 19 18 14 11 9 11 13 14 13 14 13 11 11 10 10 11 12 13 12 13 12 12 11
33 34 34 33 29 24 23 17 25 23 23 25 21 18 16 15 17 19 20 21 20 19 19 20 24 23 21 21 16 13 12 13 15 16 15 14 14 13 12 11 9 8 9 10 10 11 11 11 11
31 32 31 29 29 29 25 23 28 30 27 27 22 20 16 14 18 19 22 24 23 21 20 20 23 24 22 21 18 14 14 15 15 16 16 16 15 14 14 13 11 10 8 9 10 10 11 10 10
35 32 30 29 30 21 29 31 27 32 30 26 22 21 19 18 20 23 19 20 22 22 20 19 21 25 24 21 19 17 17 17 16 16 16 15 15 15 14 13 11 10 8 7 8 8 10 11 11
34 34 27 27 26 24 29 36 34 31 29 29 26 25 19 15 19 22 22 24 22 24 23 21 21 23 26 23 22 19 18 18 18 18 18 16 15 14 14 13 11 10 9 8 8 9 10 12 13
35 36 32 24 23 20 29 43 34 33 31 25 24 24 20 17 18 13 30 21 21 23 25 23 22 23 27 27 23 21 22 20 20 20 20 18 18 16 14 13 12 10 11 11 9 9 11 11 13
38 36 35 32 27 26 32 31 39 36 33 29 25 25 19 19 15 19 23 22 20 23 27 26 26 25 28 31 28 26 24 22 20 20 22 21 18 17 16 15 12 11 10 11 10 9 10 12 13
40 38 37 30 30 26 28 34 35 30 31 30 28 27 24 22 19 25 23 25 22 21 24 26 27 29 29 29 32 28 27 26 24 23 23 23 22 20 19 17 14 12 10 11 11 10 9 12 14
39 41 42 39 37 33 27 37 31 31 31 31 29 28 28 26 22 24 16 13 16 24 24 26 29 31 31 32 32 33 31 29 27 25 25 25 25 24 22 20 17 14 13 11 11 10 9 9 12

GFSSGP_500_spd_087.txt.gz
Wind_Speed
3 4 6 5 11 16 18 15 17 14 12 11 10 8 9 10 10 12 11 13 12 13 13 13 14 15 15 14 11 9 8 7 6 6 6 6 6 5 4 3 2 2 0 1 2 2 3 4 6
4 7 8 7 16 16 16 17 16 15 13 12 10 8 8 12 11 10 15 13 11 13 14 14 15 14 13 12 9 6 5 5 6 7 7 8 7 6 4 4 3 2 1 1 0 2 5 7 11
6 9 11 8 16 16 16 17 15 13 13 12 11 7 7 11 12 10 13 15 12 14 15 15 15 14 12 9 7 7 6 7 8 7 9 9 8 8 8 6 4 4 2 1 1 3 5 8 16
7 8 8 5 17 16 15 13 13 11 13 12 10 7 7 11 11 12 12 16 14 15 16 16 16 14 11 9 10 10 9 10 10 10 11 12 11 10 9 7 6 5 4 3 5 9 7 9 19
8 7 7 13 14 13 13 13 13 13 15 11 9 8 9 12 11 12 13 15 15 16 16 15 14 14 13 12 13 13 12 13 13 13 13 13 12 11 10 9 7 6 4 2 6 6 6 7 20
9 7 5 6 9 13 14 18 15 14 14 13 9 8 10 11 12 11 13 14 14 16 16 16 15 15 16 15 15 14 14 15 14 14 14 13 12 11 10 10 9 9 7 5 6 13 15 29 20
9 8 6 7 9 11 14 17 16 15 19 16 10 9 11 12 12 12 13 15 14 13 15 15 15 16 15 15 16 15 16 15 14 13 13 13 12 11 10 11 11 11 12 15 21 26 27 23 17
7 6 4 6 8 10 14 11 16 14 13 17 13 8 12 12 14 11 13 16 14 12 13 13 16 15 15 16 15 15 15 14 13 12 12 15 13 11 11 12 13 13 14 14 18 25 24 16 15
7 6 7 9 4 6 12 14 18 15 15 10 11 9 8 12 15 12 13 16 14 12 12 13 14 14 15 16 15 14 14 13 12 11 12 13 13 12 12 14 16 16 16 20 17 19 18 17 13
11 7 7 5 3 4 4 6 5 17 16 14 13 8 10 12 14 14 13 16 15 12 11 12 14 15 15 13 13 12 13 12 12 11 11 10 11 10 11 14 15 16 17 20 24 16 14 17 18
13 8 5 5 2 5 8 4 10 13 19 20 17 12 11 12 13 13 12 15 16 14 12 12 14 14 14 12 11 12 10 12 12 10 9 11 11 11 11 13 14 16 19 20 18 14 13 19 18
14 10 6 4 3 3 2 2 2 19 23 23 18 15 14 14 16 15 14 15 16 16 13 12 14 13 12 10 8 8 10 10 9 9 9 9 11 12 11 12 14 15 21 22 14 16 16 17 16
13 12 7 5 7 4 2 3 1 13 23 22 17 15 15 16 17 15 15 16 17 15 14 13 13 13 11 8 6 6 6 7 8 8 8 7 10 11 12 11 14 14 15 16 15 16 15 15 16
18 13 10 8 7 5 3 3 2 14 24 22 16 14 14 17 19 18 17 17 17 17 14 13 13 12 10 7 5 5 8 7 8 7 9 8 9 11 12 11 12 16 16 10 10 8 13 14 14
17 15 12 10 8 5 4 3 2 14 27 22 19 16 12 18 18 19 17 17 18 17 16 13 11 11 9 7 5 5 5 6 8 8 8 8 10 11 13 11 10 12 12 11 11 12 13 14 13
20 16 14 12 9 7 6 2 5 18 26 24 22 18 14 16 16 16 15 15 18 18 17 15 12 9 8 7 6 3 4 6 7 8 9 8 9 9 12 11 9 9 8 11 11 11 11 13 14
22 15 19 15 12 10 9 7 3 3 29 27 21 19 18 14 15 15 16 15 16 17 17 15 12 10 8 7 6 4 2 5 7 7 8 8 8 8 9 12 10 8 7 8 8 11 11 12 13
21 18 20 17 16 12 11 11 7 3 8 23 21 21 18 17 15 16 17 16 14 16 16 16 14 12 10 6 4 4 3 4 7 6 6 7 7 7 9 9 10 8 7 7 6 9 11 12 11
18 18 21 21 21 12 9 15 9 6 9 25 28 24 19 18 17 17 16 16 16 16 18 18 16 14 12 8 5 4 4 5 7 7 6 7 7 7 8 8 7 8 7 7 7 8 10 10 10
28 24 16 20 22 16 21 17 15 9 10 17 21 20 21 18 18 17 17 17 16 16 19 19 18 15 12 9 8 6 6 4 6 7 7 10 9 9 8 9 6 7 8 8 7 9 10 11 9
31 26 28 22 21 18 19 19 15 16 14 15 18 24 24 20 19 19 19 18 16 17 19 21 20 17 14 11 10 9 7 6 7 8 8 10 11 11 10 10 10 8 8 8 9 10 10 9 9
31 26 29 18 21 17 15 16 19 18 17 17 20 18 23 22 21 22 20 19 18 19 18 20 21 19 16 14 11 7 6 7 8 9 9 10 10 12 12 11 12 10 9 7 8 8 8 7 6
24 32 29 29 19 16 18 30 26 27 21 19 23 17 22 19 18 22 22 21 21 18 16 16 19 19 18 16 12 8 8 9 14 11 10 9 9 9 10 10 12 10 10 9 7 7 7 6 4
32 34 38 28 23 24 19 20 21 22 23 24 21 22 17 15 14 20 23 23 21 18 17 14 16 20 19 18 15 10 11 10 11 11 11 10 8 8 9 9 11 11 10 10 9 7 7 7 6
39 34 28 28 27 22 20 24 39 19 26 26 28 20 16 12 12 19 20 20 21 19 17 15 14 17 21 20 18 14 13 12 13 13 12 11 10 10 9 9 9 10 10 9 8 7 7 7 7
37 31 25 22 25 23 17 31 43 37 27 31 26 19 20 16 16 15 16 20 21 21 19 18 16 16 20 23 20 16 15 14 15 16 14 12 11 11 10 9 8 9 9 9 9 8 7 7 8
39 36 23 18 18 22 30 43 41 42 30 30 28 25 23 18 15 19 18 21 22 21 24 23 20 19 19 24 22 19 17 18 17 17 18 15 13 12 11 9 8 8 8 8 8 9 7 8 8
40 34 31 27 24 27 32 34 38 39 31 33 31 28 23 21 22 22 20 17 37 23 26 27 24 22 23 24 26 22 20 21 19 19 19 18 16 15 10 12 10 8 7 8 9 9 10 9 9
38 40 35 29 20 31 20 23 44 37 34 33 30 25 23 24 20 20 25 28 33 27 26 25 27 24 23 24 26 26 23 23 21 21 20 20 19 18 18 16 12 9 8 8 8 9 11 12 12
46 32 36 30 30 26 25 36 41 26 31 35 34 30 27 26 25 23 29 21 19 28 26 18 28 27 25 26 25 27 28 25 23 23 22 21 21 20 20 18 16 13 10 8 9 8 8 10 12

GFSSGP_500_spd_090.txt.gz
Wind_Speed
2 4 6 4 11 18 13 13 13 11 9 8 4 9 9 7 8 11 10 11 10 12 13 14 14 13 12 11 10 9 7 5 3 3 3 3 3 3 3 4 4 4 4 4 4 5 5 5 7
4 6 4 15 18 19 11 15 12 11 10 7 5 11 9 8 10 11 12 11 10 12 13 14 14 12 10 10 8 7 5 5 4 5 4 5 4 5 5 7 6 5 5 4 5 5 4 2 9
4 8 8 17 14 13 14 15 12 11 9 6 7 9 9 8 11 10 12 12 11 12 13 14 14 12 10 9 8 7 7 6 6 6 6 7 8 9 9 8 7 6 4 4 5 4 2 5 10
5 6 7 17 10 11 11 13 12 10 8 6 8 8 10 9 11 9 13 13 13 13 13 14 12 11 10 8 8 8 8 9 9 9 8 9 11 11 11 10 9 8 7 5 5 3 3 5 12
5 3 2 14 22 13 11 10 8 9 7 5 6 7 11 10 11 10 13 14 15 14 12 14 12 11 10 9 10 11 12 11 10 11 11 12 12 13 12 13 12 11 9 6 5 2 9 9 16
5 4 9 8 9 7 8 9 15 12 10 5 5 7 10 10 12 11 14 16 14 14 13 14 13 12 12 11 12 13 12 12 12 12 11 12 13 13 14 15 15 12 7 4 7 10 14 21 16
5 7 5 3 6 7 10 12 13 16 10 9 5 7 10 11 11 11 13 14 13 13 12 12 13 13 12 13 13 13 13 12 13 12 11 13 14 14 14 15 13 13 17 18 19 30 28 21 17
5 2 4 3 6 11 11 11 9 15 14 11 7 9 9 10 11 11 11 13 13 12 12 12 12 14 13 13 13 12 13 11 12 12 12 14 15 16 16 15 18 21 19 21 27 25 22 21 16
5 1 5 5 3 6 8 12 11 10 17 13 7 9 7 9 11 11 12 12 13 13 12 12 12 14 14 12 12 12 12 10 10 12 13 13 15 16 16 14 17 15 17 21 19 19 17 15 15
5 5 6 5 1 3 1 4 11 15 17 9 8 6 9 7 9 12 13 11 12 14 12 12 13 13 11 11 12 13 12 10 11 11 12 11 12 14 14 17 18 16 20 20 15 19 14 15 14
5 7 4 3 2 4 6 6 5 4 12 12 11 8 8 8 8 10 11 11 11 14 13 12 13 11 9 10 12 12 11 10 9 11 14 12 9 13 13 18 23 20 14 15 28 22 20 17 17
16 9 6 4 3 1 3 5 6 6 11 16 13 10 11 10 10 12 12 12 10 14 14 10 12 10 8 7 8 8 9 8 8 11 13 13 9 11 6 12 28 24 12 22 20 20 20 18 19
17 14 8 7 4 2 2 5 5 3 18 17 16 12 11 12 11 11 12 13 11 10 11 11 11 9 6 5 5 7 5 8 8 8 13 15 9 12 13 18 15 11 15 9 19 23 18 21 18
17 15 7 9 7 4 3 5 3 7 18 19 14 12 11 13 11 11 13 12 11 11 10 10 9 8 4 3 4 8 8 8 7 8 12 15 15 12 10 10 8 12 15 20 22 17 17 17 15
2 11 10 9 8 5 3 3 3 9 20 21 15 12 11 13 11 12 12 13 13 11 10 9 8 7 5 3 3 7 7 8 8 8 10 14 16 15 9 8 9 13 16 17 19 16 18 16 15
17 16 15 13 11 6 5 1 4 8 24 22 17 15 11 12 10 11 12 13 14 13 11 9 8 7 5 3 2 4 7 6 8 9 10 12 14 13 10 8 10 10 14 16 16 18 18 15 16
23 19 17 11 11 11 8 6 2 2 23 23 20 17 14 11 11 12 13 12 14 14 13 11 8 7 5 3 3 4 6 6 6 9 10 10 11 11 12 8 8 9 12 14 14 14 17 16 18
20 15 20 20 20 15 13 9 7 2 16 25 19 21 17 15 14 15 14 13 12 14 14 12 10 7 4 3 3 3 5 5 6 6 8 9 8 10 16 11 7 10 11 10 12 13 15 16 17
19 13 18 20 22 19 18 14 12 9 12 26 24 20 18 18 18 18 14 14 13 14 15 14 12 9 6 3 2 2 3 3 5 5 5 7 8 4 14 11 8 10 10 11 11 11 12 15 15
25 21 29 26 19 31 24 25 17 12 13 12 26 25 20 19 17 18 16 15 14 14 16 16 14 11 7 5 3 2 2 2 4 4 5 7 9 7 12 7 11 11 11 10 10 10 11 11 12
36 28 25 28 28 15 17 13 19 13 12 10 14 29 22 22 17 17 18 16 15 15 15 16 16 12 10 6 3 3 2 2 3 6 4 5 7 5 8 9 10 9 10 11 9 11 9 9 9
33 28 31 29 12 11 16 19 9 13 16 15 15 17 21 19 18 19 20 18 17 16 13 14 17 15 12 9 5 3 6 5 6 7 4 2 4 4 4 5 8 7 9 9 9 9 9 7 6
36 18 21 23 11 17 23 26 23 26 25 21 18 17 19 24 20 20 20 19 18 16 15 13 15 17 15 13 9 5 4 2 1 6 6 4 4 4 4 5 7 7 7 5 7 8 6 6 5
38 33 30 20 19 27 28 25 31 35 28 21 20 16 15 21 22 19 19 20 18 17 16 14 13 16 16 14 13 9 5 4 6 7 6 7 5 6 6 4 4 5 3 5 5 5 4 3 4
44 41 29 29 28 23 18 15 36 32 23 27 18 20 23 22 17 16 14 17 18 17 18 17 15 15 17 16 16 13 9 8 7 8 12 9 7 6 5 5 4 5 5 5 4 3 3 2 2
42 41 31 31 24 19 15 31 43 44 6 27 17 23 25 27 18 13 13 14 14 17 19 19 17 16 16 18 16 13 12 11 12 10 9 9 10 8 9 8 6 5 3 3 4 5 4 4 4
36 45 33 19 21 17 30 38 43 43 27 23 21 25 21 8 11 12 16 17 20 20 21 21 22 20 19 19 19 17 15 14 13 12 11 11 13 14 12 7 6 6 6 4 4 4 5 5 5
36 35 38 34 26 24 32 38 46 41 30 26 27 27 22 24 23 25 29 26 27 25 26 24 22 22 23 22 21 21 17 16 14 13 14 16 18 18 10 8 5 5 6 4 4 5 6 6 6
40 39 42 27 21 24 20 29 33 49 33 33 33 30 29 27 25 25 30 38 32 20 26 32 27 26 22 22 21 23 21 18 15 14 15 17 20 14 10 8 7 6 3 2 3 5 6 8 8
38 34 42 37 38 31 35 39 42 42 32 26 31 31 30 30 28 23 24 21 26 18 25 46 31 31 31 27 23 22 24 20 18 16 16 17 20 17 13 12 13 10 5 2 5 6 6 8 9

GFSSGP_500_spd_093.txt.gz
Wind_Speed
4 6 8 5 16 13 14 15 11 7 9 11 12 12 10 10 11 11 11 11 11 14 13 14 13 13 11 9 7 6 6 5 5 4 4 5 5 5 6 6 6 6 6 7 8 8 9 8 10
3 7 5 13 17 12 15 15 12 8 8 8 11 11 13 13 12 11 12 10 10 13 13 13 12 10 10 7 7 7 7 7 7 7 7 6 7 8 8 7 6 6 6 6 7 8 10 9 10
3 9 6 9 10 14 17 13 9 9 7 7 11 10 13 13 12 12 12 11 11 13 14 13 11 9 9 9 11 11 9 10 10 10 10 10 10 10 10 8 7 7 6 5 5 7 12 11 12
3 4 7 13 23 18 13 11 9 10 7 8 9 10 12 14 14 13 12 14 13 13 13 13 11 10 12 13 12 11 12 12 12 12 12 11 11 11 9 9 8 7 6 4 4 6 11 14 12
0 4 11 16 17 15 16 16 11 9 7 6 8 11 13 14 16 12 14 15 15 14 12 13 13 12 13 13 13 13 14 13 13 14 12 11 10 11 10 9 9 6 4 2 4 8 13 18 14
3 9 20 23 17 10 20 11 5 11 6 3 7 10 12 13 15 14 14 15 14 15 13 14 15 13 14 15 15 14 13 12 12 13 12 11 11 13 12 13 13 10 8 5 9 15 18 17 16
3 10 1 7 26 16 14 12 13 10 10 4 5 8 10 13 16 12 14 14 15 14 14 14 14 15 15 14 13 12 13 12 13 12 12 12 13 14 14 16 18 19 13 15 16 23 24 19 16
4 3 3 15 8 6 7 3 7 12 11 7 5 7 8 12 14 13 13 14 13 14 15 14 14 14 13 13 12 12 12 13 12 11 13 12 14 15 14 16 21 25 26 29 31 27 21 16 14
3 3 2 6 4 15 12 5 3 7 6 7 7 11 7 10 11 11 12 12 13 13 14 14 14 13 14 14 14 12 12 13 12 11 13 13 14 16 15 18 18 21 22 22 22 22 20 17 13
4 6 6 5 7 8 6 11 4 12 10 10 4 5 8 7 11 11 9 13 12 13 12 13 14 12 14 14 15 13 12 13 13 11 12 14 14 17 16 18 21 21 15 14 17 18 16 14 13
14 12 14 8 6 7 6 7 6 7 19 15 10 5 9 5 9 9 9 10 11 12 11 11 12 12 12 13 14 14 12 11 12 11 14 14 9 16 18 19 22 23 28 24 20 10 18 17 16
1 15 10 7 3 2 4 6 3 1 19 14 8 5 8 7 8 8 12 9 11 9 10 10 10 10 10 10 12 11 11 11 11 12 15 11 8 16 16 21 24 29 19 22 21 18 18 20 21
10 4 1 7 6 2 2 6 5 3 9 12 9 6 6 9 7 7 8 10 9 9 8 9 7 9 8 10 14 14 12 8 11 14 13 11 11 13 10 24 29 16 24 24 23 19 21 22 23
11 11 12 8 5 2 1 5 3 4 10 10 10 7 6 11 11 6 7 9 11 8 5 6 5 6 7 9 13 12 11 11 10 12 13 12 12 11 19 24 23 22 22 25 21 19 19 23 21
21 9 15 11 7 5 3 3 4 5 14 14 12 9 7 12 11 10 8 9 8 9 8 6 4 5 6 7 10 13 15 10 11 12 12 11 11 14 15 19 21 22 19 19 23 20 21 20 22
11 25 16 13 8 4 4 2 2 5 13 15 12 9 8 12 9 8 8 11 8 6 5 4 4 3 5 6 11 12 13 11 11 12 11 11 12 14 14 16 19 21 19 19 22 22 24 21 23
26 16 13 12 11 10 9 6 3 3 15 20 16 13 10 13 13 8 7 8 10 8 6 5 2 2 5 5 8 11 11 11 11 12 9 9 10 13 13 15 14 19 17 19 22 22 23 22 24
17 16 17 14 21 17 12 10 5 3 9 19 19 15 12 12 15 14 11 9 9 9 9 7 4 3 4 6 6 10 10 9 9 11 9 8 9 13 12 12 14 15 18 18 20 20 20 20 20
19 14 16 27 30 21 13 13 11 7 5 21 22 14 14 13 14 15 13 11 9 10 11 9 6 4 3 3 6 7 9 8 9 10 10 8 9 9 10 12 14 10 15 16 18 19 18 18 17
25 20 24 23 27 29 27 21 17 11 10 13 18 19 14 13 12 12 14 14 13 11 11 12 9 7 4 5 4 6 9 7 6 8 9 11 11 11 11 10 13 11 13 14 13 16 17 17 13
30 30 30 24 30 29 18 15 20 17 14 17 19 26 24 17 14 11 14 15 15 13 12 14 12 10 7 4 2 4 4 7 5 4 8 11 10 11 9 12 10 11 12 12 14 11 13 13 10
33 32 27 29 23 27 27 16 25 22 15 14 16 11 21 19 13 12 12 15 17 15 13 14 13 13 10 7 4 3 8 4 4 1 4 6 11 12 10 8 9 9 12 12 12 11 12 12 10
33 29 20 24 18 20 22 23 12 10 17 17 14 15 20 17 15 16 14 15 19 17 15 14 15 14 12 10 6 5 5 7 4 3 5 3 6 9 11 10 8 9 10 9 10 9 9 10 11
34 22 26 28 23 32 18 22 3 18 21 21 24 20 20 19 19 20 18 16 16 17 16 15 16 14 13 12 10 6 5 9 9 6 4 5 2 5 8 8 7 6 6 8 6 7 6 6 9
46 35 31 33 28 27 18 20 21 19 18 23 24 27 22 21 21 23 19 17 16 15 16 16 16 16 14 15 12 10 7 7 8 8 7 4 3 4 7 6 6 6 4 4 5 4 6 5 5
49 38 29 23 18 14 11 25 27 23 23 27 28 27 22 19 20 20 20 20 20 20 19 18 19 19 16 17 16 13 10 10 10 12 11 7 4 5 7 5 4 4 3 4 2 2 3 4 4
47 48 39 19 16 19 20 26 28 19 25 26 28 14 20 15 21 23 20 24 20 18 20 22 23 23 21 20 19 17 14 12 10 9 10 10 10 4 3 4 4 4 1 3 4 3 2 2 2
50 52 41 35 23 24 25 29 33 29 25 25 25 24 7 13 18 29 26 26 22 21 22 25 24 25 24 23 21 20 17 15 13 11 12 12 12 9 5 4 4 4 4 1 2 1 2 2 1
44 49 48 38 35 31 29 28 30 34 32 28 26 25 21 18 21 25 21 29 31 24 20 26 24 24 24 25 24 23 22 19 16 13 11 13 14 13 10 7 7 5 5 5 4 3 2 3 3
41 42 48 43 33 35 31 29 27 30 23 21 25 27 24 24 21 21 19 20 26 29 34 37 24 29 32 27 24 23 24 22 20 17 14 12 12 15 14 12 12 10 8 6 6 5 5 5 5

GFSSGP_500_spd_099.txt.gz
Wind_Speed
6 9 13 4 13 8 11 10 13 15 9 16 11 14 10 8 12 11 11 12 10 14 13 13 12 11 10 9 8 8 8 8 8 8 8 8 7 7 6 7 6 8 10 11 11 12 12 12 12
6 9 3 9 13 11 11 11 10 14 11 14 13 13 12 14 13 13 14 10 10 14 13 12 11 11 9 9 8 8 8 8 10 10 9 8 7 7 6 6 6 8 9 11 11 12 13 12 12
5 8 5 7 12 9 11 11 12 15 13 13 15 12 16 17 13 15 15 12 11 14 13 11 10 9 9 9 9 9 9 9 10 11 10 8 7 6 5 6 5 7 8 11 12 14 15 16 14
5 6 3 10 14 11 13 12 13 15 12 12 15 16 15 15 14 16 15 14 14 14 13 12 11 11 12 12 11 10 10 10 11 10 9 7 6 4 3 3 4 5 7 10 13 16 17 17 15
6 8 13 9 17 11 16 10 11 15 13 12 14 14 14 15 14 16 16 14 15 15 14 13 12 13 14 14 13 12 13 12 11 10 9 7 6 4 2 1 5 6 8 10 13 15 17 18 16
7 10 18 19 13 14 16 12 10 12 12 12 11 13 15 14 16 15 16 13 13 17 15 13 15 15 14 15 15 15 15 13 12 11 9 8 7 6 3 1 3 7 8 10 15 15 16 16 15
4 11 9 18 24 20 23 15 13 10 11 11 9 14 14 11 16 16 15 14 13 16 18 16 17 16 15 15 16 16 16 15 13 13 11 10 9 11 12 10 8 10 13 18 19 17 17 15 14
1 10 14 15 24 27 21 16 12 8 8 10 7 16 13 10 15 14 12 13 14 17 17 18 17 17 15 15 16 14 14 15 14 13 11 14 13 15 20 21 18 18 18 20 19 18 17 16 14
8 2 15 19 20 19 16 11 11 13 8 6 6 10 17 13 15 14 12 13 15 16 16 17 18 18 16 14 15 14 13 14 13 11 13 16 13 16 19 22 25 26 24 22 19 18 16 16 15
10 9 7 14 14 10 14 12 19 14 10 8 7 8 16 16 15 15 10 14 13 15 16 15 18 17 17 16 14 12 13 14 13 11 17 17 16 14 14 18 19 21 20 18 18 17 16 16 17
10 3 18 11 16 14 12 13 12 12 16 13 14 9 12 12 16 15 10 11 12 14 14 13 14 15 14 14 14 11 11 12 12 11 17 19 18 21 18 16 16 16 16 14 15 14 17 18 19
13 9 11 13 13 14 10 12 11 9 24 16 15 14 15 13 15 17 12 11 10 12 13 12 12 14 16 12 14 13 11 11 12 13 17 21 19 16 18 21 20 20 17 16 16 18 19 21 22
8 16 17 14 8 8 10 6 7 10 8 15 14 15 15 15 14 16 14 13 9 10 10 10 11 12 15 13 14 13 11 12 13 14 16 18 19 19 20 21 20 21 22 21 19 20 21 22 21
18 11 3 13 8 6 9 7 7 13 12 19 15 17 16 15 13 15 13 13 9 10 8 9 7 10 14 12 15 13 12 12 13 15 18 21 20 20 19 20 23 22 22 20 21 20 18 19 20
20 14 14 7 8 6 9 9 11 10 16 20 16 19 18 15 14 14 15 12 10 9 8 8 6 10 10 11 16 14 13 12 12 13 16 18 16 15 21 19 20 20 20 20 20 21 21 20 20
19 18 12 12 12 8 9 7 7 10 16 18 15 16 20 18 17 16 15 15 10 10 7 7 6 6 5 10 15 16 15 12 11 14 14 15 14 16 18 19 19 21 20 20 20 19 19 20 19
19 21 20 12 9 8 8 8 7 9 13 18 15 14 19 17 19 17 15 17 13 13 8 7 8 4 6 8 13 15 16 13 12 13 12 16 15 14 15 18 19 21 21 21 21 21 19 19 20
22 23 20 15 14 13 9 9 7 7 7 13 14 13 16 21 18 16 18 15 12 13 12 7 10 5 5 6 10 11 14 15 12 13 14 14 16 16 15 16 19 20 19 20 20 20 18 17 17
22 22 27 17 19 22 11 6 8 5 11 11 16 13 13 17 20 17 16 16 15 14 11 8 8 6 6 5 8 9 11 14 12 14 14 12 13 15 14 15 17 20 19 18 18 17 16 15 17
25 28 24 22 15 12 14 9 12 8 10 12 11 15 11 12 16 17 17 17 15 15 13 10 9 8 6 6 8 8 9 11 13 14 14 15 13 13 15 14 15 17 18 17 18 17 14 13 13
27 28 28 25 27 15 21 10 17 12 8 14 14 20 17 14 16 17 17 14 14 15 16 13 10 8 7 6 6 8 9 11 13 13 14 13 13 14 14 16 14 14 16 16 16 17 14 12 11
29 25 27 28 26 24 21 20 18 23 15 17 17 20 20 17 16 16 17 18 15 13 13 14 12 9 7 5 4 7 7 8 11 12 11 12 12 12 12 13 15 15 16 15 15 13 12 11 11
29 31 33 30 28 27 21 15 17 15 14 21 22 19 27 21 17 16 15 16 16 14 12 15 14 12 9 8 4 5 5 7 9 12 11 11 12 9 11 11 13 14 13 13 12 11 11 8 9
37 41 37 32 29 28 16 13 7 14 20 21 25 22 21 19 20 20 17 15 15 12 13 13 15 15 13 11 8 5 3 5 7 11 10 10 12 11 10 10 10 9 11 11 11 10 11 10 8
45 43 38 36 31 23 21 19 14 10 15 16 19 19 20 17 15 22 17 15 11 15 16 15 16 17 17 15 13 10 7 7 7 9 10 10 10 12 11 11 9 11 10 10 9 10 10 11 9
44 45 42 41 33 26 28 22 18 16 17 20 32 21 21 22 19 22 20 18 16 16 19 19 18 18 19 18 17 14 11 9 10 10 10 10 10 11 12 11 11 11 10 11 11 11 10 11 11
44 46 43 36 34 28 32 21 20 20 16 12 23 26 16 22 22 25 28 26 27 18 19 21 21 21 20 20 20 19 16 15 13 13 13 12 12 12 11 11 11 10 10 11 10 10 11 12 13
43 46 43 44 40 37 26 23 24 20 20 17 15 11 26 19 24 24 22 18 24 25 21 21 21 20 20 19 20 21 21 18 16 17 18 18 16 15 14 13 14 13 12 11 11 11 12 12 14
42 46 49 43 44 38 34 33 27 27 24 19 14 10 9 13 21 25 22 24 23 20 22 22 21 23 24 23 22 22 23 22 20 19 19 19 19 19 16 14 13 13 14 12 12 12 12 12 13
41 44 49 48 43 43 38 32 31 28 23 19 17 14 16 9 11 27 22 23 23 21 24 26 26 30 28 26 27 26 26 25 24 22 22 24 25 22 20 18 16 15 14 14 15 13 13 13 12

GFSSGP_500_spd_102.txt.gz
Wind_Speed
11 12 13 6 15 8 14 14 12 14 10 13 9 13 14 11 14 11 11 11 12 13 13 13 12 11 11 11 11 10 9 8 8 6 7 8 8 9 8 8 8 8 10 11 11 12 13 12 13
10 11 9 4 11 10 13 11 10 15 14 12 10 13 15 13 14 13 14 10 10 11 12 12 12 12 13 13 12 11 11 10 9 9 9 9 9 9 8 8 8 8 8 10 10 11 12 12 12
8 7 8 2 11 7 11 10 10 9 15 13 13 13 15 14 14 13 14 13 9 10 11 12 12 13 13 13 12 11 11 11 10 9 8 8 7 6 6 8 8 9 8 7 10 11 13 13 13
7 6 7 8 8 10 12 12 11 12 15 14 14 16 13 12 14 13 15 13 9 9 12 12 14 15 15 12 12 12 12 12 10 9 8 8 6 4 3 6 6 8 9 8 12 13 14 15 15
7 7 10 11 13 14 14 13 12 11 16 13 12 17 17 14 11 13 14 12 9 11 14 14 15 15 15 14 14 14 13 12 11 10 9 8 5 2 2 3 6 9 8 10 12 13 13 15 16
7 9 11 9 15 18 17 13 12 12 15 14 12 13 19 17 13 14 13 11 9 12 15 15 15 17 16 15 16 16 14 14 13 11 10 10 10 10 4 4 7 12 11 14 15 15 14 18 13
5 10 13 9 23 20 16 14 12 10 16 16 14 11 17 17 13 15 13 12 13 14 15 15 17 18 16 15 16 16 15 14 13 13 12 10 13 13 6 11 10 12 12 15 15 14 15 15 13
9 9 13 10 21 27 20 13 13 9 13 14 10 10 16 16 13 17 14 13 15 15 16 17 18 18 17 14 14 15 14 14 14 14 12 16 20 21 13 17 17 18 18 19 16 14 15 14 13
12 6 8 6 27 15 17 16 13 11 14 12 8 9 17 16 14 18 15 14 16 17 18 19 19 17 16 14 14 15 14 15 15 15 17 17 20 22 23 22 24 23 24 19 17 15 14 14 14
10 6 9 16 10 18 18 19 15 13 14 17 10 10 15 18 16 20 17 14 16 17 18 17 16 16 15 14 14 15 14 15 15 17 19 17 15 20 23 24 24 25 22 18 15 14 13 14 15
8 8 8 17 11 22 12 10 12 12 13 17 19 10 14 15 14 19 18 14 14 16 16 16 15 14 14 13 13 14 13 15 16 18 21 21 20 19 18 21 19 20 19 17 15 15 16 16 16
8 9 9 24 18 13 13 10 17 12 11 17 18 19 16 14 19 18 19 18 13 14 14 15 15 15 14 12 12 14 12 16 13 16 21 18 20 21 19 19 18 17 17 17 17 17 19 19 18
7 4 15 14 10 10 11 11 2 10 14 16 17 18 19 15 15 17 18 19 16 12 13 15 15 16 14 11 10 13 13 16 16 14 17 20 19 21 21 22 21 21 21 20 20 21 21 21 20
11 14 18 15 11 7 11 7 2 9 17 16 18 17 18 17 16 19 18 18 17 13 10 14 14 15 13 12 9 12 14 15 14 18 20 19 19 20 22 22 23 23 24 22 22 18 17 19 19
15 17 9 8 10 7 9 10 15 10 16 16 17 17 16 19 16 18 19 18 14 16 12 13 12 13 12 13 11 12 13 15 15 18 17 17 18 18 19 20 20 21 21 20 21 20 19 18 17
18 14 10 3 16 11 17 10 14 16 20 18 16 18 17 17 17 17 19 20 15 15 14 11 10 11 11 12 13 13 14 14 14 12 13 16 15 15 16 17 20 19 19 19 20 20 17 16 15
19 16 14 10 8 13 12 12 11 12 20 19 17 20 18 17 19 17 16 18 16 16 15 12 10 11 11 10 14 14 14 13 12 11 11 14 15 14 14 16 18 18 18 18 18 19 17 15 15
21 18 18 18 15 13 13 12 13 16 19 22 18 21 20 20 18 17 15 15 16 15 14 13 13 11 10 10 11 13 13 13 12 12 11 10 13 14 15 14 15 16 16 14 15 16 15 13 11
24 19 18 22 14 20 15 17 15 12 19 26 21 17 23 17 19 20 20 17 14 14 13 12 12 10 12 9 11 11 11 12 13 11 13 12 11 13 14 14 14 15 16 15 14 15 14 13 14
23 23 22 26 20 13 22 18 18 13 17 17 21 17 17 16 18 16 22 21 18 16 15 13 11 9 13 11 9 11 11 12 13 12 11 12 12 12 12 12 13 13 13 14 14 14 13 12 14
26 23 21 18 22 17 18 14 16 17 16 22 25 20 18 20 17 18 20 20 20 19 17 15 12 12 10 12 8 9 10 13 13 12 13 11 11 11 11 12 12 11 11 13 12 10 11 12 12
27 25 23 26 24 24 26 19 13 15 19 20 17 24 19 17 19 18 19 17 18 18 17 18 14 12 11 9 9 9 8 10 12 13 11 11 11 9 10 10 10 10 9 9 10 9 7 9 10
29 31 26 26 26 25 20 17 19 18 12 16 6 25 22 21 18 18 20 20 16 17 16 18 18 15 11 10 10 11 9 10 12 14 13 13 12 10 11 10 9 9 9 8 8 7 6 8 8
35 35 27 25 27 22 21 17 18 15 18 11 9 17 22 20 19 18 18 20 18 16 16 17 18 18 16 13 10 10 9 9 10 11 13 14 13 13 12 11 10 10 10 9 9 7 5 4 6
42 41 37 33 33 26 23 23 20 16 14 20 18 19 16 25 25 22 19 18 19 17 17 17 17 16 16 16 14 10 10 13 12 13 13 14 14 14 13 13 13 12 13 11 9 8 7 5 5
43 42 41 39 34 24 28 29 23 19 13 10 11 18 19 25 18 19 24 20 17 18 20 18 17 18 18 18 17 15 11 12 14 14 14 15 15 15 15 15 13 14 12 12 12 10 10 9 7
43 45 39 39 35 31 32 25 25 24 17 13 16 15 24 22 24 18 26 23 18 17 18 20 20 18 17 18 19 18 15 12 15 13 15 16 16 17 15 14 14 13 12 11 11 11 11 11 9
43 41 43 44 42 38 35 30 25 22 12 14 12 17 17 20 23 25 25 22 22 23 22 17 21 19 17 17 20 21 20 17 15 15 17 17 17 17 17 16 14 14 13 13 13 13 13 14 14
41 44 43 43 45 43 35 28 24 22 15 16 15 19 21 26 26 16 26 30 28 23 28 26 21 20 21 24 23 22 23 22 20 18 18 20 19 18 17 17 16 15 14 15 15 14 14 13 13
40 41 43 44 45 46 44 38 32 22 19 19 22 19 19 20 19 20 22 29 23 25 22 21 24 25 24 27 27 24 24 25 25 22 20 20 20 20 19 19 20 20 18 17 17 17 15 14 14

GFSSGP_500_spd_105.txt.gz
Wind_Speed
12 14 11 16 14 14 13 10 13 12 11 11 11 15 16 15 18 17 16 14 14 13 11 11 11 9 9 9 9 8 8 7 9 9 9 9 9 9 9 10 10 10 10 11 11 11 11 12 12
10 11 17 7 9 12 10 10 12 14 13 9 12 16 16 15 17 17 17 14 13 11 11 11 10 10 10 11 10 10 10 9 8 9 9 9 8 8 10 10 11 10 9 10 11 11 11 10 11
8 7 9 7 9 12 9 9 13 10 13 9 14 15 15 14 16 16 15 15 11 10 11 11 10 11 11 12 11 11 11 11 9 8 7 8 8 7 12 11 11 10 9 9 9 10 12 13 13
7 5 6 14 5 9 10 9 13 14 12 11 12 19 15 13 16 15 16 14 11 9 12 12 11 12 13 13 12 12 12 11 10 8 6 6 8 8 7 13 11 12 11 10 12 13 15 15 15
6 7 4 3 4 11 12 8 12 14 14 11 8 15 18 14 15 15 16 14 11 10 12 13 13 13 14 14 13 13 12 11 9 7 5 3 7 7 8 10 10 11 13 14 14 15 16 17 16
5 7 5 7 5 15 14 12 14 15 13 13 11 13 15 20 16 17 16 15 13 12 13 13 13 13 14 14 14 13 13 11 9 7 5 7 9 7 9 12 12 12 15 15 14 17 17 16 15
2 6 10 13 15 24 17 12 13 15 16 15 11 13 15 20 16 19 17 16 15 14 13 13 13 13 15 14 14 14 14 12 9 7 11 16 11 9 8 13 15 15 16 17 15 17 17 15 13
7 10 11 2 22 27 20 16 13 15 16 15 14 15 19 18 18 20 19 16 16 16 15 14 13 14 15 15 15 16 14 13 14 14 19 21 17 15 14 14 17 18 19 19 15 15 15 13 13
6 7 11 5 28 20 19 18 14 17 18 16 13 14 20 21 18 20 20 17 16 17 16 15 14 14 15 17 16 16 15 18 18 18 20 21 23 20 19 18 20 23 20 17 15 14 14 13 13
6 6 6 6 30 28 22 21 18 19 20 19 18 9 15 22 19 20 21 18 16 15 14 14 15 15 15 16 17 16 17 18 18 18 16 19 23 25 23 23 24 22 19 16 14 13 12 12 12
6 8 9 11 18 27 19 19 17 15 19 18 23 12 12 19 18 20 20 17 16 14 15 14 13 14 15 15 17 17 19 17 17 19 19 20 19 22 25 24 21 18 17 15 14 13 13 13 12
6 7 17 16 26 18 19 17 17 13 17 19 22 21 18 18 19 19 18 17 16 13 15 15 14 13 15 14 18 18 16 14 15 17 20 20 19 20 20 20 18 15 14 14 14 14 15 14 14
7 3 6 22 15 15 18 19 20 15 17 18 18 21 19 17 17 19 18 17 15 14 14 15 13 13 14 14 18 18 18 16 13 18 20 19 19 19 18 19 17 17 17 16 16 15 16 16 16
7 8 6 12 15 14 12 16 16 19 19 21 19 22 22 20 20 21 19 16 15 13 12 14 13 14 14 14 17 16 17 17 17 19 20 21 20 19 20 21 20 20 19 18 17 16 16 15 16
16 11 14 20 14 10 10 13 9 19 23 23 21 23 21 20 20 20 19 17 15 14 12 14 13 13 14 15 16 16 17 18 16 18 18 18 19 18 19 21 21 21 20 20 19 17 16 13 13
16 22 15 10 14 11 13 7 8 17 24 24 22 22 23 20 21 20 20 18 16 14 10 14 13 13 14 15 16 15 17 15 15 16 17 17 17 16 14 16 17 17 18 17 17 15 14 13 14
16 14 14 10 15 14 12 16 10 7 24 21 23 22 21 21 19 17 18 18 15 15 11 12 13 14 13 14 14 13 15 16 14 16 15 16 15 15 15 14 14 15 16 16 16 15 15 14 14
18 16 16 7 9 11 12 14 18 12 16 20 19 22 23 22 22 20 18 17 17 15 11 10 11 14 13 12 12 11 13 14 15 15 15 14 13 14 14 13 13 14 14 13 12 13 13 14 14
22 20 18 16 16 15 14 17 16 23 19 18 16 20 21 20 21 21 20 17 16 16 15 11 10 12 13 11 11 12 11 11 14 12 13 14 14 14 13 12 13 13 13 14 13 12 12 12 13
24 22 22 19 19 17 22 21 21 21 19 23 18 17 22 21 21 22 21 18 17 16 16 14 11 10 11 11 11 12 13 12 12 11 10 11 12 13 12 11 11 11 10 10 10 9 9 9 10
23 23 24 23 27 18 18 23 23 17 21 26 26 22 22 23 22 20 20 18 17 16 15 15 13 11 9 10 11 9 11 12 11 10 11 10 10 12 12 12 11 11 10 9 9 8 6 7 8
25 25 25 24 19 24 21 21 27 24 19 24 29 23 21 23 26 24 20 21 17 16 16 15 15 12 10 9 10 10 10 11 13 13 12 11 11 11 11 10 10 9 9 9 8 8 7 7 8
30 26 27 24 22 20 22 19 20 7 17 19 17 24 20 19 24 22 20 21 19 18 18 17 17 15 12 10 10 10 10 9 11 12 11 11 11 12 12 11 10 11 9 8 7 7 6 6 8
35 33 29 24 25 21 21 14 17 11 6 3 5 19 26 20 20 22 23 24 19 20 21 19 18 17 15 12 14 11 9 8 9 10 12 12 11 10 11 11 10 11 10 8 6 5 6 6 7
37 36 34 31 28 19 21 18 15 10 6 10 11 12 23 21 19 15 13 19 21 22 22 23 21 19 18 16 14 13 12 12 12 12 12 14 12 13 12 11 10 10 9 8 7 6 6 5 6
40 38 38 36 29 20 22 19 16 13 10 9 11 13 9 20 23 19 17 17 21 25 26 24 25 24 22 19 17 14 13 14 14 13 12 14 14 13 13 12 12 10 10 10 9 9 9 8 7
42 42 37 34 31 30 29 24 20 19 15 12 12 14 11 14 16 24 21 21 20 20 25 26 24 24 25 23 20 18 15 15 14 15 14 14 14 15 16 15 13 13 12 13 12 10 11 11 9
43 38 39 38 35 35 35 30 25 18 17 17 17 18 21 22 21 25 20 23 25 23 22 21 23 22 23 23 23 21 19 17 15 16 16 16 15 17 17 16 16 16 15 15 14 13 12 12 11
43 44 43 40 39 35 33 29 23 19 15 14 12 12 25 19 16 18 21 23 24 23 25 22 20 23 24 25 24 23 23 22 19 19 16 16 16 16 17 17 16 16 16 15 16 14 12 13 14
42 41 40 41 40 41 37 32 25 20 18 17 13 12 25 24 23 21 20 23 25 27 29 26 26 22 26 26 25 24 23 24 26 24 20 18 19 20 19 18 18 17 16 16 16 15 14 15 15

GFSSGP_500_spd_108.txt.gz
Wind_Speed
14 16 9 15 13 12 9 11 11 13 10 9 13 14 18 18 18 17 15 12 12 9 8 6 7 7 7 8 8 9 10 10 9 9 10 9 8 9 8 10 10 10 11 10 11 11 10 11 12
10 12 13 10 10 11 10 10 9 15 12 8 13 16 17 18 18 17 16 12 11 8 7 6 8 6 6 7 9 9 9 10 10 8 8 9 10 10 11 11 11 10 9 10 11 12 12 12 12
7 9 9 5 7 8 8 10 10 12 10 9 15 16 15 16 16 17 14 12 10 9 7 7 8 8 8 8 9 8 9 9 9 9 9 8 10 13 12 12 11 11 10 10 10 12 13 13 13
4 6 8 13 6 5 7 9 10 15 10 9 12 17 15 15 16 16 14 11 10 9 8 8 9 9 8 8 9 9 8 6 6 6 7 7 9 18 14 13 12 12 12 12 13 16 15 14 14
2 1 3 6 6 6 8 9 8 13 13 10 11 14 16 15 15 14 14 12 9 10 10 10 11 10 9 9 8 8 7 8 6 5 7 10 11 14 17 13 13 13 15 15 16 17 17 16 15
4 3 6 9 6 13 10 10 10 11 13 11 12 15 15 18 16 14 14 12 11 10 11 11 12 12 10 10 10 9 7 5 3 3 1 7 11 11 15 15 14 15 16 16 16 17 17 16 16
6 4 11 6 14 16 14 12 14 14 14 13 13 15 17 17 16 16 15 13 12 10 11 12 12 12 12 12 11 9 7 3 3 11 11 10 12 11 15 15 16 17 17 15 16 18 15 15 15
7 9 8 8 10 21 18 13 14 15 16 16 13 19 20 18 18 17 17 14 11 11 11 12 12 14 12 12 13 13 15 22 18 18 13 13 14 12 16 17 17 19 18 16 16 16 15 12 13
8 7 10 12 13 29 22 18 17 17 15 17 16 17 21 20 20 18 18 16 13 12 12 12 13 15 14 13 14 17 16 15 16 18 18 16 18 18 19 18 20 20 18 15 14 13 12 11 11
9 8 10 9 24 29 25 21 21 20 19 18 16 14 19 19 21 18 17 16 12 10 12 13 13 15 16 15 15 17 16 16 14 18 21 19 19 19 20 21 22 19 16 14 12 11 11 10 10
10 8 9 10 28 29 26 22 21 21 21 23 24 14 14 18 19 18 18 16 13 11 10 11 13 16 17 17 16 19 16 17 19 18 19 21 22 23 24 22 20 17 14 13 12 11 11 11 10
9 7 8 8 24 29 26 22 20 21 20 21 22 24 18 19 19 17 16 15 15 13 11 11 12 16 17 17 14 14 18 17 18 17 17 19 21 21 20 18 16 14 12 13 13 13 13 13 14
9 8 6 10 26 27 26 23 19 20 19 20 20 23 22 19 18 17 15 13 15 14 12 11 12 15 17 18 17 16 16 18 19 19 18 16 17 16 15 15 14 13 14 15 15 15 16 16 17
9 7 5 18 28 23 20 22 19 17 21 21 20 22 23 22 20 18 15 13 13 14 12 12 13 14 17 18 15 17 20 20 20 20 18 18 17 16 16 16 15 15 17 16 15 16 16 16 17
10 7 5 17 19 19 22 23 21 21 23 23 22 22 23 21 19 18 15 13 12 13 12 12 13 14 16 18 16 18 19 20 19 19 19 19 19 18 17 17 17 17 17 16 15 15 15 15 16
19 14 12 20 18 16 14 19 18 25 25 25 24 23 21 21 20 18 16 12 11 12 11 11 12 13 15 17 16 16 16 17 19 18 18 17 18 18 17 16 16 15 15 15 13 12 13 13 14
19 16 22 12 20 16 18 17 11 25 29 28 25 24 21 22 19 18 16 13 11 10 11 11 11 13 14 15 15 14 14 15 18 17 16 15 14 15 14 13 13 13 13 12 11 12 13 14 14
17 15 20 10 14 15 8 12 15 17 31 26 26 23 24 24 22 19 17 14 12 10 10 11 12 12 13 13 13 13 14 13 14 15 16 16 15 13 12 13 12 11 11 10 10 11 13 14 15
26 22 18 15 7 16 13 9 14 20 31 29 28 26 25 24 23 20 18 15 13 11 11 11 12 12 12 11 11 12 13 13 13 12 13 14 15 13 12 13 12 11 11 11 10 10 12 14 15
24 22 19 15 14 16 17 16 12 18 25 25 25 26 25 23 22 21 18 17 15 12 11 12 12 12 11 11 11 12 13 12 13 13 12 12 13 13 13 13 12 12 12 11 10 11 11 12 13
25 23 25 19 21 20 16 20 18 20 24 26 24 25 26 23 26 23 20 19 16 15 12 11 12 11 13 11 11 11 12 12 11 11 12 12 11 11 12 10 9 10 10 9 9 11 11 11 11
27 27 25 21 18 22 15 19 24 16 22 22 23 22 23 26 26 25 23 21 20 17 15 13 12 12 12 12 12 11 12 11 11 11 11 11 11 11 9 9 8 8 9 9 7 8 9 10 10
33 26 28 23 20 17 14 14 21 25 20 19 28 25 22 27 26 24 25 23 20 20 17 15 13 12 13 13 11 10 11 11 11 9 9 10 10 10 10 9 9 8 7 7 7 7 8 8 9
31 31 24 24 20 21 18 17 21 22 9 1 29 28 24 22 25 26 25 22 22 21 20 19 17 14 12 12 12 10 10 11 13 12 11 10 10 11 11 9 9 8 7 7 6 6 6 8 9
35 32 30 20 22 18 19 15 17 26 13 1 8 9 29 23 23 24 22 21 23 23 21 21 20 18 14 12 14 12 10 9 10 10 11 11 11 11 12 11 10 10 8 7 6 5 5 6 6
37 33 30 25 21 19 18 11 9 5 9 5 7 6 7 28 23 18 22 23 24 22 22 22 22 21 18 15 12 12 12 10 9 10 11 12 10 11 11 10 10 10 9 8 6 5 5 4 5
39 40 32 29 18 17 22 16 16 9 9 11 14 11 9 5 21 25 24 23 27 27 25 23 23 23 22 19 17 15 13 12 13 11 11 12 12 11 10 10 9 10 10 9 6 5 5 6 5
41 38 35 34 20 18 22 24 17 14 14 14 14 12 19 21 13 11 26 27 24 27 26 25 25 24 23 22 21 20 18 16 15 13 13 13 11 12 12 11 11 11 11 9 9 9 8 8 8
44 40 38 28 27 20 21 23 25 18 15 16 17 17 18 26 20 19 24 26 26 28 25 23 26 25 25 26 26 25 23 21 19 17 17 15 14 13 14 14 14 14 13 12 12 11 12 11 11
41 42 37 36 29 30 25 20 23 21 18 16 16 15 14 32 25 25 30 27 25 26 27 26 25 22 26 28 27 26 27 26 25 22 19 18 17 16 15 16 16 15 15 15 14 15 15 14 13

GFSSGP_500_spd_111.txt.gz
Wind_Speed
14 12 14 12 12 10 8 10 11 12 10 8 8 11 14 10 12 13 11 9 7 6 6 6 7 8 8 9 9 9 8 9 8 8 9 9 9 8 8 8 9 10 11 10 10 9 11 11 10
11 11 7 8 12 13 9 11 9 13 10 8 9 11 13 12 14 12 12 9 6 5 5 6 7 7 8 7 8 8 7 7 8 8 7 7 9 9 9 10 10 11 12 8 10 11 12 12 12
8 9 2 5 8 8 7 10 8 11 10 8 11 10 11 12 11 11 9 8 5 6 5 6 6 6 8 8 7 7 8 8 7 6 8 9 10 11 10 10 11 12 12 12 11 13 13 13 13
4 6 3 6 6 4 7 8 11 11 9 9 10 11 11 10 10 9 8 8 6 6 6 6 6 6 7 7 6 6 5 5 5 5 5 5 11 12 12 12 11 13 12 11 13 14 14 14 13
2 3 2 4 6 5 5 7 8 11 10 10 10 12 12 11 9 8 9 8 7 6 6 6 6 7 5 6 5 4 3 5 5 6 6 6 13 13 12 13 14 14 14 14 15 14 14 14 14
2 1 4 11 13 10 7 8 8 10 10 11 11 13 13 12 10 8 7 8 8 6 7 7 7 7 5 6 5 3 2 1 4 6 10 10 10 16 13 13 15 16 15 15 15 15 14 14 14
5 2 6 6 10 8 11 10 11 10 9 13 13 14 15 13 11 10 8 7 8 7 7 8 7 8 7 7 6 2 1 2 4 3 8 13 13 14 13 13 15 16 14 15 15 15 13 13 13
5 6 5 7 9 15 14 13 13 13 11 13 14 15 15 15 13 11 8 7 7 6 8 9 9 8 9 9 9 16 17 15 12 8 11 15 13 15 14 15 17 16 14 15 14 12 11 11 12
7 6 7 9 12 17 18 16 15 15 14 14 15 14 14 15 15 13 9 9 8 7 8 10 10 9 10 10 11 12 13 13 15 15 14 15 14 17 17 16 17 16 14 14 12 11 9 10 11
10 9 10 11 11 26 21 20 19 19 16 15 15 14 13 14 13 13 10 8 8 8 8 9 10 10 10 11 11 13 13 15 20 13 22 20 17 19 18 17 17 14 13 13 11 10 10 9 9
11 10 11 11 8 30 24 22 21 20 20 19 17 15 13 15 13 14 11 9 8 7 8 10 11 10 11 14 12 13 17 17 22 21 18 17 18 19 19 19 15 12 12 11 9 9 9 11 11
11 12 12 10 13 28 26 24 22 22 19 19 18 18 16 17 14 14 12 10 8 8 8 11 12 11 10 10 13 14 15 17 19 24 21 21 22 21 18 15 13 12 12 15 14 10 11 11 13
13 12 10 9 21 29 28 22 22 20 18 19 18 17 16 16 16 14 12 10 9 9 9 11 11 11 12 12 12 15 16 16 18 19 19 19 18 17 16 13 12 13 14 15 14 14 15 15 18
15 13 10 12 17 32 28 25 21 21 19 20 21 17 17 18 18 15 12 10 9 10 10 11 12 12 13 14 13 16 17 17 18 17 15 15 15 14 14 15 16 15 17 17 17 17 18 18 21
12 11 11 13 28 34 28 25 23 22 21 22 21 20 19 17 18 16 13 11 8 10 11 11 12 11 13 15 16 15 17 17 19 18 17 17 17 15 15 15 16 17 18 17 17 15 17 18 21
15 10 11 11 28 24 27 29 21 21 23 23 23 21 19 18 18 17 14 11 9 8 10 12 11 11 13 15 15 15 15 15 17 18 16 17 17 17 15 14 14 14 16 16 14 13 14 16 19
18 19 12 14 20 22 15 26 25 26 26 26 25 22 20 19 18 17 14 12 10 8 8 10 11 11 12 13 14 15 15 14 14 15 15 15 15 14 12 11 11 11 13 13 12 12 12 13 16
19 20 19 18 21 23 21 19 27 26 27 29 27 24 22 22 19 17 15 13 10 8 8 9 11 11 12 12 12 13 14 13 13 13 13 14 14 13 12 12 12 12 12 13 12 12 13 13 12
26 22 18 24 18 16 18 24 30 27 33 32 30 27 24 23 20 18 16 14 12 8 8 9 10 11 12 13 12 11 11 12 12 13 12 12 13 13 12 11 12 16 12 12 11 12 13 13 15
21 21 16 17 18 21 20 21 16 31 26 34 32 30 26 25 22 19 17 15 13 11 10 10 10 10 10 11 13 12 11 11 12 13 13 12 13 12 12 10 11 11 12 11 10 11 11 14 15
20 21 9 25 18 16 10 12 18 15 32 38 32 30 29 25 22 21 19 17 14 12 12 11 11 11 10 9 10 12 11 10 10 9 11 11 12 12 10 9 9 9 11 8 8 9 11 10 13
24 28 22 23 32 18 14 13 30 19 28 30 32 29 28 26 26 24 20 17 16 15 12 12 11 12 11 11 9 11 10 10 10 10 9 9 10 10 9 8 7 8 9 8 7 7 8 9 9
40 28 15 9 16 20 9 21 3 19 32 32 28 24 28 27 26 25 22 20 16 15 14 12 11 12 12 11 11 11 10 10 10 10 10 9 8 8 7 6 7 7 7 7 6 5 6 7 7
39 27 28 21 15 16 23 11 12 11 26 18 27 27 26 31 27 22 24 22 21 17 17 15 13 12 12 13 11 11 12 10 9 8 8 8 8 7 6 5 3 4 3 4 4 3 3 5 6
36 28 22 19 15 12 7 16 21 21 15 8 9 29 29 25 29 28 25 27 25 22 20 18 16 14 12 12 11 12 11 10 10 10 8 7 7 7 7 5 4 4 4 4 2 2 2 2 4
34 31 16 19 12 16 18 8 14 8 30 1 1 9 24 27 24 28 28 27 29 25 22 21 19 17 14 12 11 11 10 9 8 9 3 10 9 7 6 6 6 7 6 6 5 4 2 2 1
29 36 29 17 19 9 6 12 14 8 7 7 9 7 4 9 27 27 25 25 27 24 22 23 21 20 18 15 13 13 12 11 10 9 14 10 10 9 9 9 9 8 8 8 6 5 5 4 3
34 24 31 27 14 12 15 18 14 18 19 19 13 13 11 10 8 25 25 28 28 27 25 22 21 21 21 20 19 17 14 13 12 11 11 10 5 12 11 10 10 9 9 8 8 7 7 6 5
38 36 29 25 26 22 9 19 19 23 22 18 13 12 14 17 17 15 14 26 24 25 22 23 24 23 22 21 23 22 19 17 16 15 14 14 14 14 13 13 13 11 10 10 9 8 8 8 8
27 28 31 26 25 30 21 21 21 16 24 15 16 17 16 16 22 24 16 26 23 27 23 24 24 24 24 23 24 24 23 22 22 21 18 16 17 16 15 15 15 14 13 13 13 12 12 11 12

GFSSGP_500_spd_114.txt.gz
Wind_Speed
10 10 11 7 14 9 12 11 8 8 9 11 2 8 6 8 6 10 7 7 7 8 8 7 7 7 5 6 7 6 6 5 4 5 6 7 7 7 7 8 9 12 12 11 12 11 11 11 11
7 5 6 5 16 10 7 9 7 8 6 4 5 7 6 8 7 9 5 6 7 7 7 6 7 8 6 5 5 6 6 5 5 5 6 6 7 8 8 8 10 12 12 11 12 12 12 11 11
6 2 9 13 15 13 6 9 7 8 6 1 6 7 8 7 5 6 9 6 9 8 7 7 7 7 6 5 5 5 5 6 6 5 5 6 7 7 8 8 9 11 12 9 11 12 13 12 12
4 5 4 8 9 7 8 7 6 6 6 6 3 7 8 6 5 9 7 3 7 6 7 6 7 6 5 5 5 5 4 4 3 3 4 4 8 8 9 10 10 10 10 9 11 12 14 14 14
2 2 3 4 4 4 6 6 4 6 6 4 5 5 7 6 6 5 6 6 4 5 6 6 6 7 6 5 3 3 3 4 3 3 3 3 9 9 9 10 10 10 10 12 13 13 13 13 14
2 2 2 7 11 10 4 9 11 4 6 9 7 7 7 6 5 5 5 7 5 5 6 6 8 8 7 5 4 2 1 4 5 6 6 5 15 11 9 13 13 13 15 15 15 14 14 14 14
3 4 4 12 9 10 5 8 8 4 6 6 6 7 6 7 3 3 6 4 4 3 5 8 8 7 7 6 12 3 3 6 7 4 8 10 15 13 12 13 15 14 14 15 15 14 13 13 14
7 5 7 12 11 7 11 11 18 11 7 8 8 7 6 8 3 2 6 5 4 6 3 12 8 7 7 8 11 11 12 8 7 10 16 14 14 14 15 14 15 15 15 15 15 13 13 13 13
8 6 6 8 11 15 13 9 11 9 6 8 8 7 5 8 5 5 4 9 6 7 10 9 7 7 8 8 6 9 9 10 11 15 16 13 15 14 15 15 16 15 16 14 13 13 12 11 12
11 10 7 10 13 16 23 12 19 16 14 12 10 7 6 7 6 5 7 8 7 7 7 7 7 9 8 5 9 8 14 16 17 19 14 25 16 15 15 16 14 14 14 11 9 11 13 12 11
15 11 11 10 11 10 20 20 20 17 14 12 10 8 7 8 7 6 8 7 8 8 8 8 8 12 12 6 10 9 15 20 23 26 24 17 18 16 17 15 13 14 11 9 9 10 12 12 11
16 14 12 11 12 17 27 23 19 18 16 13 10 9 9 8 7 6 7 10 9 8 10 7 9 10 11 12 11 9 15 19 26 24 21 18 21 19 16 13 15 17 13 13 10 9 12 14 14
14 12 11 10 11 12 25 27 21 19 17 14 12 11 10 8 9 7 7 10 9 8 11 7 9 11 13 13 11 11 9 16 19 26 25 20 19 18 15 13 11 10 17 15 12 11 11 16 18
18 18 12 11 7 16 26 21 22 22 18 16 15 12 11 11 10 9 7 9 9 9 10 10 10 12 12 12 14 13 13 12 18 20 17 16 16 15 14 14 16 10 17 20 15 15 18 20 24
15 12 11 11 11 10 25 21 22 22 19 18 17 15 13 11 11 9 8 8 8 9 10 10 10 10 13 14 13 15 17 14 15 16 16 15 15 15 15 17 17 17 18 17 17 19 20 23 25
13 13 14 18 21 30 27 24 22 23 21 20 20 18 15 12 12 10 8 8 8 8 8 10 10 11 12 13 14 13 17 17 17 18 19 17 16 16 16 17 17 18 16 17 15 17 19 24 25
18 12 14 12 17 35 34 30 27 24 23 23 22 20 18 14 14 12 9 7 8 8 8 10 11 11 11 11 12 14 15 16 16 17 18 18 17 15 16 16 16 16 16 15 13 13 13 17 21
19 17 19 20 12 27 30 33 33 26 23 24 24 22 19 16 15 14 11 8 7 7 7 8 10 11 11 11 12 12 13 14 16 16 16 15 14 13 14 14 15 16 14 13 13 10 14 12 14
18 21 28 15 12 15 24 24 32 27 28 26 27 24 22 20 18 16 12 10 8 7 7 8 10 11 10 11 10 12 12 12 12 14 14 13 12 12 13 14 13 13 20 15 16 13 9 11 13
25 28 29 17 20 22 25 31 26 34 33 27 31 27 25 22 21 18 14 11 9 8 7 7 8 9 10 9 11 11 11 10 11 11 12 13 12 10 13 11 9 12 17 12 12 14 9 11 14
4 30 24 25 23 14 15 25 35 36 34 36 32 29 28 22 22 19 15 13 11 9 8 7 7 8 9 9 7 8 9 10 10 9 9 10 9 7 7 9 3 13 9 9 11 11 12 6 10
13 28 23 35 8 12 14 12 21 17 39 31 41 34 32 28 26 22 19 15 15 13 9 8 8 7 7 9 8 9 9 8 7 8 9 9 9 9 5 5 8 7 4 7 8 9 7 7 11
26 38 28 10 18 7 15 14 11 21 33 33 34 39 36 37 25 24 21 18 15 13 11 9 8 7 6 6 7 9 8 8 7 5 5 8 8 7 7 6 8 9 8 7 8 9 6 3 6
28 35 22 27 6 7 9 11 7 12 7 35 32 35 35 33 28 26 22 19 16 15 14 11 10 10 9 7 7 8 8 11 8 8 7 7 7 6 3 4 5 6 7 6 7 6 4 2 3
23 28 31 20 4 9 7 11 11 20 21 28 29 30 29 33 28 25 23 22 21 16 16 13 11 11 11 10 8 8 9 6 6 5 5 7 6 6 4 1 0 2 3 4 4 4 3 0 1
35 31 22 18 11 9 8 14 20 18 10 6 14 35 33 36 28 27 27 21 23 23 18 15 13 13 12 11 10 10 6 4 4 7 8 11 8 10 10 5 3 3 2 0 0 1 3 2 1
11 29 23 17 12 7 12 7 8 11 12 20 8 7 32 31 26 29 32 27 32 29 20 17 16 16 16 13 11 12 11 9 9 9 10 11 10 9 8 9 6 4 4 4 3 3 3 4 2
26 10 21 35 29 7 22 18 3 15 9 8 9 9 4 27 35 24 27 30 30 17 18 20 20 19 19 17 15 13 12 13 12 12 11 12 11 12 10 9 7 8 7 7 7 6 6 5 4
35 32 23 20 21 28 14 20 14 18 22 25 19 17 11 11 25 29 28 21 30 26 23 24 24 23 22 20 19 17 15 14 13 11 10 9 10 10 6 5 8 10 9 9 9 9 8 8 6
28 19 31 19 23 19 16 19 20 14 17 23 28 20 20 15 13 12 25 29 25 29 27 21 29 24 23 20 22 20 19 19 18 17 14 10 11 13 12 11 13 12 13 12 12 10 11 9 9

GFSSGP_500_spd_117.txt.gz
Wind_Speed
6 7 8 10 8 7 16 13 5 9 13 5 6 12 8 10 11 13 11 9 10 10 8 7 5 5 4 3 4 4 4 3 5 6 6 5 7 8 9 10 12 14 15 15 13 11 13 12 15
8 2 7 18 11 14 14 5 2 4 5 6 7 6 9 10 10 12 10 9 9 9 7 6 5 5 5 4 4 4 4 5 5 5 6 6 7 8 9 10 12 13 14 14 13 12 12 12 15
8 6 1 17 14 9 7 8 3 5 9 8 7 4 6 11 10 8 11 10 9 8 8 7 7 6 5 5 5 4 4 5 6 6 5 6 8 9 9 9 10 11 12 12 11 10 12 13 15
7 11 12 25 14 12 7 7 2 6 5 4 7 6 5 9 7 8 10 6 8 9 10 9 7 7 6 4 3 2 3 5 6 5 5 5 7 9 9 10 10 10 10 9 11 10 12 13 15
5 8 5 16 14 11 6 6 10 5 3 3 6 3 7 4 7 8 9 6 9 9 10 9 7 7 6 5 3 2 3 4 5 6 6 9 9 9 10 10 10 10 9 9 11 12 13 15 16
2 6 6 16 14 8 7 8 7 3 1 3 3 4 2 4 6 9 8 11 10 8 10 8 7 7 7 6 3 3 4 6 7 8 9 12 13 10 11 10 11 12 13 12 12 14 14 16 17
3 5 5 11 3 9 11 3 10 2 1 1 2 4 1 4 6 6 9 7 8 8 9 7 8 8 9 11 13 8 4 6 6 6 9 19 15 14 15 13 13 15 16 14 14 15 16 17 18
6 5 10 9 9 5 6 11 7 9 5 3 1 3 1 3 5 9 11 8 7 8 8 9 9 8 9 10 11 11 8 5 8 10 16 17 16 15 16 15 14 15 16 16 15 15 16 19 17
8 4 9 14 5 5 3 14 10 6 5 4 3 1 2 3 5 7 9 7 9 8 9 12 9 7 10 10 8 10 7 7 14 19 19 21 17 16 16 15 14 16 16 14 13 14 16 19 17
11 8 8 11 11 4 8 15 14 10 2 2 3 2 2 2 3 4 8 10 12 10 11 10 9 13 12 12 12 10 9 13 15 19 22 20 20 19 17 17 16 16 15 14 13 12 14 19 18
13 12 10 9 11 13 7 11 23 15 9 4 3 1 2 2 3 7 10 8 11 10 8 10 9 14 11 13 15 8 12 13 14 26 21 21 19 22 19 17 17 15 11 10 13 13 14 15 18
17 14 12 10 10 15 13 16 20 20 16 7 3 3 1 2 5 4 7 7 12 9 11 12 9 12 14 7 13 14 10 20 23 22 20 19 20 21 18 15 15 14 14 11 12 15 16 16 18
17 17 13 12 9 13 16 19 16 14 11 13 7 5 3 1 2 6 6 10 11 12 9 10 11 14 14 16 10 10 13 17 24 25 24 20 16 18 16 14 11 17 14 12 12 13 17 17 17
16 11 10 13 7 9 10 22 23 21 13 13 9 7 4 4 3 8 6 13 9 11 8 9 10 9 14 16 16 12 15 21 24 22 21 18 14 18 17 18 18 19 16 15 13 16 19 21 21
9 11 10 12 9 9 14 13 20 16 18 13 11 10 8 7 3 6 8 11 8 9 10 8 9 11 11 15 16 18 16 19 17 18 19 19 14 17 18 17 19 20 20 19 19 21 22 24 23
12 14 15 13 12 11 9 14 19 24 20 15 15 12 10 9 7 2 6 8 9 8 9 11 9 9 11 12 15 17 19 19 17 17 19 19 16 17 19 13 17 17 19 19 21 22 24 25 24
20 13 19 15 12 21 17 19 23 23 23 19 17 15 12 11 9 6 5 6 7 8 9 12 9 9 10 11 13 15 15 18 18 18 18 18 17 15 16 16 14 14 16 17 21 20 22 23 24
15 14 11 14 13 18 33 27 29 25 25 22 19 17 15 13 12 10 6 5 4 7 8 11 10 9 9 9 12 13 12 16 15 16 17 16 15 14 14 13 11 11 12 12 14 20 17 19 21
16 21 18 25 17 15 25 36 29 30 27 25 22 21 17 17 15 14 9 7 6 6 7 9 10 9 10 10 11 12 12 13 14 13 12 14 15 13 15 13 10 8 7 11 13 11 15 13 14
24 20 26 23 17 9 16 37 36 29 30 24 26 23 21 18 18 14 13 9 8 7 6 7 8 9 8 9 9 10 10 11 12 11 11 12 14 13 15 10 9 9 10 9 14 15 13 10 12
11 20 25 24 29 15 14 20 32 42 33 31 27 21 25 24 22 17 14 13 10 8 7 6 7 8 8 9 9 10 10 8 9 11 10 10 13 16 14 13 6 6 7 8 12 14 16 12 11
23 14 14 18 18 20 14 14 26 34 38 33 32 25 30 27 26 23 19 18 14 10 9 7 6 7 7 7 8 8 10 10 6 6 7 7 8 10 11 13 12 8 6 6 10 15 16 15 9
26 10 7 14 13 9 13 13 13 32 35 37 40 32 32 31 27 23 20 18 14 12 11 10 8 6 7 4 6 6 9 7 9 7 5 7 7 7 6 8 9 12 9 8 9 12 12 12 8
31 22 13 18 20 8 12 9 6 12 19 20 40 37 34 34 32 27 23 20 18 17 14 12 11 9 8 8 6 6 6 8 7 9 6 5 6 7 6 4 5 5 7 8 7 7 9 10 13
21 17 6 16 28 12 3 2 5 8 8 10 31 44 31 35 28 28 25 23 21 19 17 13 10 10 6 6 8 6 6 4 6 7 8 8 6 5 4 4 4 5 4 5 4 6 6 4 5
22 24 11 8 16 17 3 10 6 9 6 12 32 34 37 35 33 28 26 25 24 23 18 16 13 12 10 8 7 7 7 7 8 8 6 6 6 5 3 3 4 6 8 6 5 4 4 5 3
16 17 11 21 15 19 11 20 14 11 12 4 16 28 33 33 36 31 32 29 27 23 20 17 16 15 14 12 9 8 9 8 6 6 6 7 4 5 6 6 6 6 8 8 7 4 2 3 3
30 8 9 21 23 21 23 13 3 9 10 6 10 22 24 30 30 32 28 30 27 24 25 23 18 16 16 15 12 11 12 11 10 7 6 5 6 5 8 7 8 8 8 8 7 6 5 4 4
28 27 12 11 16 21 20 23 16 8 13 13 17 18 20 27 33 36 28 30 34 28 26 25 19 19 20 17 17 16 15 14 12 11 10 10 8 9 9 8 9 9 10 8 6 5 6 6 6
10 30 25 19 18 13 17 19 14 9 18 13 27 24 21 14 36 49 30 35 33 30 26 22 26 22 21 19 19 19 18 17 16 13 10 9 10 11 12 10 11 13 12 11 9 9 10 10 11

GFSSGP_500_spd_120.txt.gz
Wind_Speed
0 6 2 7 3 5 7 8 8 13 16 13 15 9 10 9 10 12 12 11 11 11 9 8 8 7 6 4 3 3 5 6 4 5 8 9 10 11 13 13 14 15 14 14 15 14 15 17 18
5 7 3 6 4 9 5 8 8 7 12 13 14 13 13 11 10 11 12 9 10 10 10 8 6 5 5 5 4 4 4 5 6 7 7 9 11 12 12 13 13 15 15 14 15 14 16 18 18
7 8 5 10 11 11 3 2 10 10 13 12 12 14 10 8 10 7 13 11 10 10 10 9 8 6 5 6 5 5 4 4 6 7 7 8 10 11 12 11 11 12 14 14 11 15 17 20 21
7 9 12 7 7 7 11 3 11 9 8 9 8 11 9 7 8 7 7 9 11 12 10 9 8 7 7 5 4 4 5 5 5 6 8 9 10 11 11 10 10 11 10 12 11 15 17 20 21
11 12 10 12 3 2 11 8 12 8 7 7 4 7 7 8 6 6 10 10 12 10 10 9 8 8 7 5 3 4 5 5 5 6 5 10 10 11 11 10 9 10 11 10 12 16 17 19 19
6 5 20 8 10 7 3 12 10 5 7 7 5 5 8 7 5 7 9 11 11 9 9 8 9 9 10 7 1 4 5 6 7 7 8 11 12 12 12 11 9 9 12 12 15 17 18 19 19
4 13 13 6 9 12 3 17 12 6 4 4 5 6 9 7 6 6 9 9 11 8 8 9 9 9 10 11 11 7 7 6 7 9 8 12 13 13 13 12 12 12 13 15 17 19 19 19 18
2 5 9 6 10 5 3 7 10 2 4 5 5 7 10 9 8 10 8 10 11 7 9 10 8 9 8 7 9 10 9 8 9 9 16 16 14 15 15 14 13 12 13 15 17 18 19 18 16
8 7 18 17 7 6 2 17 1 3 2 4 8 8 9 9 7 7 9 11 11 10 11 9 8 7 9 8 10 10 10 11 13 18 17 13 14 18 17 16 16 16 16 16 17 16 17 18 16
12 10 6 10 7 0 5 12 10 6 7 6 9 8 8 8 7 8 8 10 10 12 13 10 14 11 10 10 14 12 14 17 17 20 21 15 15 16 18 16 15 13 13 15 17 16 17 17 16
15 13 10 6 7 3 6 9 6 7 8 3 8 7 7 8 8 7 8 10 12 13 12 10 13 9 14 15 17 15 14 17 19 20 21 17 15 13 15 18 16 15 12 13 17 17 16 17 15
18 15 10 10 10 10 8 12 12 14 9 5 7 7 6 7 5 6 10 8 14 13 13 13 8 11 16 13 18 16 16 24 23 22 21 19 19 15 13 15 16 15 14 16 18 20 19 18 15
17 17 11 10 9 11 11 10 24 11 14 7 8 8 9 7 3 10 8 7 14 14 14 11 10 15 15 16 15 14 18 17 23 21 22 20 16 14 11 9 14 15 14 17 20 22 21 21 18
17 12 14 12 11 10 13 13 17 12 17 8 7 7 11 6 6 7 5 10 11 14 13 12 10 15 13 18 17 20 22 20 22 22 20 18 15 12 11 15 14 14 14 15 19 22 23 21 20
18 14 12 13 12 13 7 15 19 16 10 11 5 5 8 11 7 4 5 10 11 12 13 11 14 15 12 17 17 18 20 18 19 18 17 16 15 16 14 17 16 12 13 16 18 21 23 22 22
20 16 14 12 12 9 6 11 18 17 18 14 11 9 8 8 7 4 7 7 10 11 12 12 12 16 17 14 17 18 15 16 18 18 19 21 17 16 16 17 16 17 17 17 21 21 21 20 21
20 19 20 17 13 13 11 13 15 21 15 14 11 12 9 9 9 7 6 6 6 10 11 10 11 14 18 15 15 18 18 16 17 20 22 20 18 16 15 17 14 15 18 18 19 20 19 15 18
27 19 15 16 23 20 25 16 21 22 27 24 16 14 12 11 12 10 7 7 5 7 11 10 12 12 15 16 15 15 16 16 16 18 20 18 17 16 15 16 15 14 17 19 16 14 16 13 14
10 13 22 16 11 11 20 29 24 26 27 25 20 18 16 13 10 10 8 8 5 5 11 10 12 10 14 13 14 15 14 14 15 15 15 16 13 15 15 15 14 12 14 16 14 10 10 11 12
29 16 11 22 23 12 8 36 35 27 30 25 24 22 18 18 15 12 10 9 7 6 9 11 10 9 10 10 13 13 12 11 13 14 12 11 12 14 17 15 14 15 14 14 13 13 10 9 8
27 20 20 19 18 26 20 5 39 34 32 30 24 24 23 19 18 16 13 11 9 7 8 12 10 10 10 9 10 12 12 10 9 10 11 11 11 11 12 10 11 12 12 14 13 11 9 8 8
23 18 14 14 14 11 20 15 25 35 33 30 27 22 22 21 22 20 16 16 13 11 10 10 14 11 9 9 9 8 11 11 8 7 10 10 8 8 7 6 9 11 11 13 15 14 15 12 11
26 29 10 7 11 3 11 12 12 34 41 36 31 30 25 26 23 21 21 17 14 13 12 10 12 14 12 12 11 8 8 8 8 9 8 7 6 5 5 7 5 8 11 11 13 14 14 13 12
22 25 24 4 6 11 9 8 9 16 40 38 40 33 28 24 26 26 25 20 18 15 14 14 11 13 15 12 13 11 9 9 7 7 9 8 6 5 3 5 7 5 8 9 9 9 8 8 9
20 17 17 8 6 12 16 9 6 13 24 36 36 35 32 26 27 25 28 23 18 18 15 15 14 11 13 14 12 12 10 8 9 9 8 7 6 6 7 4 5 7 6 6 7 9 7 6 10
19 13 15 10 2 8 15 8 12 8 14 30 44 42 38 36 32 28 29 24 22 22 17 14 15 14 13 12 12 12 12 9 9 9 10 10 10 9 8 8 7 6 7 8 7 7 8 7 5
23 17 21 17 17 14 13 22 17 15 11 21 29 39 45 47 35 31 29 25 26 23 21 18 18 17 15 16 14 10 10 10 8 10 10 10 11 11 10 9 8 9 8 8 8 7 6 8 6
19 21 20 23 16 13 14 19 20 3 10 13 20 35 47 43 38 37 35 24 27 25 23 20 22 18 17 15 16 15 14 11 10 10 10 10 10 10 12 12 10 9 8 8 9 9 7 5 5
17 19 10 11 9 4 12 12 17 23 15 6 4 28 40 44 36 31 32 32 31 28 25 25 23 22 19 18 17 16 16 15 12 10 11 10 10 10 10 9 10 10 9 8 9 10 9 9 9
14 24 20 20 12 11 12 6 5 5 9 8 10 24 32 39 39 32 34 34 37 31 22 22 26 21 21 23 21 19 17 16 15 13 12 11 11 12 13 12 11 13 11 10 10 12 11 11 11

GFSSGP_500_spd_123.txt.gz
Wind_Speed
4 4 9 3 3 3 11 9 11 15 15 13 10 8 10 11 9 10 11 8 6 9 8 6 6 7 7 6 5 5 6 7 8 9 10 12 14 16 16 15 15 15 14 15 15 15 16 17 17
8 7 10 6 2 13 8 11 9 11 12 11 9 9 11 11 8 9 11 10 4 8 8 7 7 5 5 5 4 4 5 4 6 8 10 10 13 14 16 15 14 14 14 15 16 17 17 16 17
7 5 5 5 5 6 14 10 11 12 12 9 8 8 10 8 10 10 11 10 6 8 8 7 6 5 6 5 5 5 5 6 6 7 9 10 11 13 15 15 15 16 16 17 16 17 18 17 20
8 13 8 7 6 1 9 12 11 8 13 11 7 8 9 9 8 7 8 8 7 10 11 9 7 6 6 6 6 5 7 8 8 8 9 10 11 13 15 15 14 15 15 17 17 17 18 20 21
5 9 12 5 4 4 8 11 12 8 8 9 9 8 9 8 8 9 9 7 7 10 12 10 9 7 5 5 5 6 7 7 9 9 10 10 11 11 12 13 13 14 15 15 17 14 17 17 19
3 10 11 12 9 9 2 6 5 10 11 7 9 7 7 6 7 8 7 7 8 9 11 10 10 10 8 4 5 6 8 7 7 7 10 11 12 11 11 12 11 12 15 17 19 17 17 17 17
5 4 6 2 4 4 3 13 11 5 7 6 7 6 6 5 8 8 6 6 9 10 10 10 10 9 10 9 7 8 9 9 9 8 10 11 12 11 12 13 14 13 15 16 18 17 17 17 16
8 7 8 3 2 4 9 8 14 5 8 9 6 6 7 5 7 9 6 7 9 10 9 10 10 10 9 9 7 7 11 11 10 6 12 9 10 11 13 16 16 16 16 17 18 19 18 16 16
6 7 5 10 5 4 5 8 2 4 8 10 7 4 9 8 7 9 7 9 11 11 13 12 12 13 10 10 7 8 10 14 13 15 14 11 14 13 13 14 15 16 16 17 19 18 17 17 15
10 6 10 10 6 5 12 6 4 3 6 8 9 7 9 9 6 9 7 9 11 13 15 13 13 13 7 8 9 8 8 14 16 19 15 14 13 11 12 14 15 16 16 15 17 18 18 18 16
12 10 9 5 6 2 3 2 5 4 8 5 6 9 10 9 8 7 11 10 12 12 11 15 14 11 13 11 11 13 14 16 19 18 15 15 13 11 10 13 15 16 16 15 18 17 18 17 16
17 15 10 6 6 6 8 4 4 7 8 6 7 8 13 6 8 7 10 9 13 15 13 16 14 12 15 12 15 12 15 20 21 18 17 16 13 11 11 11 12 14 16 15 15 16 18 18 16
18 15 13 11 10 9 7 5 5 13 10 6 6 8 13 8 6 8 9 9 14 15 16 18 16 14 13 12 18 18 18 20 19 17 16 16 11 10 10 9 8 10 13 17 17 17 18 17 17
16 16 14 12 8 9 9 11 15 19 12 9 8 10 13 10 7 9 9 12 14 16 16 17 16 15 15 17 15 20 21 18 18 18 16 15 11 9 7 13 10 11 13 16 16 16 16 16 17
18 19 15 15 14 16 13 13 26 22 15 14 11 10 11 10 7 6 10 13 14 16 17 16 17 16 16 17 21 19 22 19 18 16 14 15 12 16 13 12 13 13 16 17 20 18 16 15 14
21 21 20 14 16 14 13 10 19 24 16 21 10 11 9 13 5 5 11 12 13 15 16 16 17 18 16 18 17 18 18 16 17 15 15 17 17 16 16 15 13 14 17 20 19 17 15 15 14
19 22 22 17 15 14 13 8 20 14 21 14 12 14 13 13 8 5 8 12 13 13 15 15 17 18 19 14 17 18 18 18 17 17 17 16 17 16 16 18 18 16 18 20 19 16 13 13 11
22 24 21 19 13 14 19 14 24 16 17 19 14 15 15 14 10 7 5 13 11 12 14 16 16 17 20 18 18 18 18 17 18 19 16 15 16 17 16 17 18 17 17 17 16 14 11 8 8
26 22 27 18 20 22 16 20 22 18 27 20 14 13 14 16 13 10 6 9 12 10 11 15 17 15 16 18 19 20 18 19 19 16 13 14 16 16 16 17 16 17 18 19 17 13 10 8 10
26 28 26 17 24 22 11 24 27 29 25 26 23 17 16 16 16 11 8 6 12 11 10 12 17 16 15 14 15 19 19 16 17 12 13 13 12 17 15 16 17 16 14 15 18 15 11 9 7
24 27 24 8 9 19 21 10 37 29 30 33 24 22 19 19 18 15 13 9 10 11 11 10 15 16 15 14 13 15 16 15 15 13 10 13 13 13 13 13 12 12 14 14 12 12 13 8 8
28 30 30 15 7 10 18 16 8 41 36 26 28 22 21 22 22 18 16 14 11 12 11 10 10 15 16 14 14 13 14 14 13 11 13 11 8 9 12 12 12 11 11 12 14 11 10 9 7
24 25 22 15 8 16 10 11 18 21 44 31 31 26 22 23 23 18 19 15 12 13 12 12 11 11 15 15 14 14 12 11 12 11 12 12 8 7 7 8 10 10 10 10 11 12 12 11 10
23 22 26 12 5 10 11 10 9 15 39 42 33 28 23 23 23 23 20 18 15 13 11 11 11 12 12 14 15 12 12 12 11 11 11 10 10 8 8 8 10 10 8 7 9 9 10 10 12
23 21 22 20 10 7 13 13 9 9 15 43 41 32 28 25 25 27 20 19 17 15 14 13 13 13 13 11 11 13 14 11 10 9 8 7 7 7 7 7 8 8 7 7 7 8 8 9 11
23 9 8 15 6 2 8 17 8 15 10 18 47 42 32 31 30 31 25 23 22 20 18 16 14 15 16 15 14 12 13 14 12 11 10 9 8 7 7 7 7 7 5 5 7 7 8 8 10
21 13 19 19 11 7 8 11 10 11 8 5 14 40 38 41 32 31 27 27 26 22 19 19 18 17 16 15 14 13 13 10 12 12 11 11 10 8 8 7 7 8 8 7 7 8 7 6 7
21 17 17 20 18 16 10 10 9 10 12 11 11 20 36 38 37 32 28 30 29 25 21 20 19 18 17 17 17 14 13 14 14 14 12 12 11 11 12 11 10 10 10 10 9 8 7 6 7
19 21 16 15 9 7 4 1 3 9 11 15 17 12 29 34 39 35 38 35 30 31 26 26 22 20 21 20 19 17 16 15 15 14 13 13 14 13 13 12 12 12 10 10 11 10 8 8 9
20 20 19 13 15 11 7 3 4 3 2 6 12 14 18 30 40 44 37 34 33 31 28 27 24 25 22 21 20 20 17 18 18 18 15 14 14 14 13 12 12 13 12 12 14 14 12 11 11

GFSSGP_500_spd_126.txt.gz
Wind_Speed
9 6 5 5 4 5 7 13 11 9 12 11 11 9 9 9 7 6 8 7 5 3 6 8 9 10 11 12 12 13 12 11 12 14 15 15 16 16 16 17 18 17 16 16 16 17 16 17 17
9 9 3 3 3 7 5 10 7 8 11 10 11 10 8 6 7 5 7 7 5 2 6 8 9 9 10 9 10 10 10 11 11 14 14 15 16 15 15 15 16 15 15 15 16 16 16 16 16
10 9 5 3 5 6 8 8 9 5 9 10 10 9 9 8 8 7 6 7 5 3 6 8 8 8 8 9 9 9 9 10 11 13 14 14 14 14 15 15 16 17 16 15 16 15 15 16 18
13 12 1 8 8 7 5 9 10 7 6 10 10 9 9 8 6 4 6 6 5 2 6 8 8 8 8 8 10 9 10 10 11 12 12 13 14 15 14 14 15 14 15 15 15 14 17 16 16
10 9 6 6 8 8 9 9 8 8 9 8 10 10 8 9 9 6 5 8 7 4 7 9 9 7 7 7 9 10 11 11 11 12 12 13 14 14 15 14 13 12 16 13 12 11 18 21 15
7 6 13 10 10 10 9 5 9 8 10 10 10 11 9 9 6 6 6 8 8 7 9 10 10 8 5 6 9 11 11 11 12 12 12 13 13 12 14 15 15 14 18 16 12 11 14 17 14
5 7 6 6 8 7 11 7 6 9 8 8 8 10 12 11 6 5 7 8 8 8 10 9 8 8 8 7 10 12 13 12 13 13 14 15 14 14 14 15 15 15 17 18 14 14 15 14 14
3 3 9 3 2 7 14 12 6 6 4 6 7 8 12 13 5 5 9 8 9 11 9 8 8 7 6 6 8 15 14 15 14 16 16 15 14 13 14 15 15 15 17 18 17 16 14 13 14
3 3 4 8 2 11 13 8 8 5 5 3 8 9 12 12 6 8 10 9 12 12 10 8 9 9 6 5 8 13 19 17 15 19 16 16 16 15 15 14 14 15 16 17 18 18 16 13 14
5 4 5 8 7 12 11 10 9 6 5 3 8 8 10 10 8 8 10 10 12 12 10 10 10 6 4 5 10 11 13 17 19 18 21 20 18 17 14 13 13 15 16 16 17 17 17 15 14
9 6 6 6 8 6 7 5 7 9 5 3 8 7 12 9 10 8 11 12 11 12 11 10 12 12 10 10 13 16 17 18 18 17 19 19 17 15 14 14 13 15 16 16 17 17 17 15 14
11 8 5 6 5 5 6 6 5 6 2 2 4 6 11 11 8 8 12 15 14 13 12 11 14 13 15 12 15 16 18 21 17 16 17 17 16 14 15 14 14 15 17 16 16 16 15 14 13
13 10 9 9 9 5 4 6 10 5 8 7 4 8 9 12 9 10 13 14 14 14 14 15 16 15 16 18 17 18 19 21 17 16 16 16 15 14 14 14 12 12 15 16 15 15 16 14 13
13 13 14 13 9 7 8 5 11 7 11 7 7 8 6 14 10 8 13 13 15 16 16 16 19 16 16 15 18 21 18 18 18 16 15 14 13 11 14 14 13 14 15 16 16 15 16 14 14
14 15 16 13 14 12 10 10 13 16 10 11 9 7 6 14 12 9 10 13 16 16 18 17 19 20 22 20 18 18 17 17 17 17 16 15 13 16 17 13 13 16 17 17 16 14 14 14 13
16 18 20 15 17 18 13 13 14 13 18 12 13 11 10 13 12 9 10 13 15 16 18 18 19 19 19 17 19 18 18 17 16 18 17 16 17 15 12 12 14 16 17 19 15 14 14 13 11
20 18 21 21 18 16 15 14 17 19 23 19 17 13 13 12 12 8 10 13 14 16 18 17 20 18 17 17 16 17 17 18 20 18 16 16 18 16 15 12 14 17 19 19 19 15 13 11 8
23 21 22 22 20 19 16 15 12 12 26 24 21 16 14 14 14 10 10 12 14 14 17 18 17 20 19 19 19 17 18 19 19 19 17 18 17 16 16 16 17 18 19 19 19 16 12 9 7
25 24 21 24 20 16 17 15 14 18 20 25 21 18 13 13 16 13 11 13 15 13 15 17 17 16 18 19 20 21 19 18 18 17 16 18 17 16 14 16 19 19 19 18 18 17 11 10 7
24 24 19 23 21 20 20 17 21 19 23 19 22 22 16 12 15 12 11 14 16 15 13 15 17 17 17 18 20 20 18 15 15 15 16 14 17 15 13 15 16 18 17 20 18 14 10 9 5
23 25 25 22 16 18 21 21 24 27 27 32 25 21 16 17 16 18 13 13 14 16 14 12 15 17 19 18 18 20 17 17 14 13 15 16 15 14 14 14 14 14 15 16 17 16 14 10 7
22 24 28 22 17 6 10 20 24 25 30 32 27 17 19 21 18 19 16 16 15 15 17 13 12 15 18 17 17 15 16 15 13 13 15 14 12 12 12 12 13 13 13 14 13 14 12 11 10
21 22 29 28 22 10 13 12 22 15 33 35 27 26 22 23 21 20 19 17 17 16 15 16 14 14 16 16 18 18 15 14 13 14 12 12 12 12 11 9 9 11 11 10 10 11 11 11 11
22 21 20 25 18 9 14 7 6 14 17 39 29 25 26 25 26 24 24 20 18 16 16 15 15 15 14 16 16 16 15 15 14 14 12 9 12 11 11 10 8 8 8 9 10 10 10 10 9
23 25 17 16 17 10 10 12 10 14 14 15 44 27 25 25 27 23 22 18 18 19 18 16 16 15 14 13 13 13 14 14 14 14 15 12 12 12 11 13 11 9 7 5 7 8 9 9 11
12 17 21 22 16 3 3 4 8 8 12 15 25 38 27 29 28 23 24 23 21 20 20 19 16 16 15 14 13 14 14 14 14 14 14 13 12 11 10 10 9 9 9 8 6 7 8 9 9
16 11 16 16 19 2 7 4 12 2 6 6 9 34 36 31 26 25 26 27 25 22 20 20 20 18 18 16 15 14 14 14 13 13 12 11 11 10 10 9 8 7 7 8 7 5 5 5 5
13 13 16 15 15 19 4 8 7 3 7 9 7 14 35 39 33 32 29 30 28 26 23 22 20 19 17 17 16 16 16 12 14 14 13 11 10 10 10 10 11 10 9 9 7 6 4 5 6
21 17 17 15 13 14 8 3 1 5 7 10 10 7 8 36 52 39 29 34 31 29 25 25 22 20 20 19 18 19 17 15 15 13 13 12 12 11 10 11 11 11 10 10 10 10 9 8 8
21 22 20 19 14 12 12 5 2 5 6 6 7 8 11 21 36 39 39 37 30 30 28 27 25 23 21 18 18 19 17 17 17 15 14 12 11 13 13 13 13 13 12 11 11 12 12 12 13